[[{"header":{"parameterUnit":"m.s-1","parameterCategory":1,"la1":30.6,"la2":29.2853,"lo1":-89.7004,"lo2":-87.6739,"dy":0.0162,"dx":0.0183,"nx":112,"ny":82,"refTime":"2024-07-23T12:00:00:Z","depth":0,"parameterNumber":2,"parameterNumberName":"U-component_of_WINDS"},"data":[0.0,0.0,0.0,0.0,0.0,0.0,0.0,0.0,0.0,0.0,0.0,0.0,0.0,0.0,0.0,0.0,0.0,0.0,0.0,0.0,0.0,0.0,0.0,0.0,0.0,0.0,0.0,0.0,0.0,0.0,0.0,0.0,0.0,0.0,0.0,0.0,0.0,0.0,0.0,0.0,0.0,0.0,0.0,0.0,0.0,0.0,0.0,0.0,0.0,0.0,0.0,0.0,0.0,0.0,0.0,0.0,0.0,0.0,0.0,0.0,0.0,0.0,0.0,0.0,0.0,0.0,0.0,0.0,0.0,0.0,0.0,0.0,0.0,0.0,0.0,0.0,0.0,0.0,0.0,0.0,0.0,0.0,0.0,0.0,0.0,0.0,0.0,0.0,0.0,0.0,0.0,-3.0593,-3.1326,-3.1397,-3.0656,-3.0539,-2.9767,-2.8015,0.0,0.0,0.0,0.0,0.0,0.0,0.0,0.0,0.0,0.0,0.0,0.0,0.0,0.0,0.0,0.0,0.0,0.0,0.0,0.0,0.0,0.0,0.0,0.0,0.0,0.0,0.0,0.0,0.0,0.0,0.0,0.0,0.0,0.0,0.0,0.0,0.0,0.0,0.0,0.0,0.0,0.0,0.0,0.0,0.0,0.0,0.0,0.0,0.0,0.0,0.0,0.0,0.0,0.0,0.0,0.0,0.0,0.0,0.0,0.0,0.0,0.0,0.0,0.0,0.0,0.0,0.0,0.0,0.0,0.0,0.0,0.0,0.0,0.0,0.0,0.0,0.0,0.0,0.0,0.0,0.0,0.0,0.0,0.0,0.0,0.0,0.0,0.0,0.0,0.0,0.0,0.0,0.0,0.0,0.0,0.0,0.0,0.0,0.0,0.0,0.0,0.0,0.0,0.0,-2.8812,-3.0458,-3.0727,-3.0742,-3.061,-3.0545,-2.9751,-2.8015,0.0,0.0,0.0,0.0,0.0,0.0,0.0,0.0,0.0,0.0,0.0,0.0,0.0,0.0,0.0,0.0,0.0,0.0,0.0,0.0,0.0,0.0,0.0,0.0,0.0,0.0,0.0,0.0,0.0,0.0,0.0,0.0,0.0,0.0,0.0,0.0,0.0,0.0,0.0,0.0,0.0,0.0,0.0,0.0,0.0,0.0,0.0,0.0,0.0,0.0,0.0,0.0,0.0,0.0,0.0,0.0,0.0,0.0,0.0,0.0,0.0,0.0,0.0,0.0,0.0,0.0,0.0,0.0,0.0,0.0,0.0,0.0,0.0,0.0,0.0,0.0,0.0,0.0,0.0,0.0,0.0,0.0,0.0,0.0,0.0,0.0,0.0,0.0,0.0,0.0,0.0,0.0,0.0,0.0,0.0,0.0,0.0,0.0,0.0,0.0,0.0,0.0,0.0,-2.8602,-2.9295,-3.0478,-3.0606,-3.0608,-3.0602,-3.0535,-2.9751,-2.8015,-2.7898,0.0,0.0,0.0,0.0,0.0,0.0,0.0,0.0,0.0,0.0,0.0,0.0,0.0,0.0,0.0,0.0,0.0,0.0,0.0,0.0,0.0,0.0,0.0,0.0,0.0,0.0,0.0,0.0,0.0,0.0,0.0,0.0,0.0,0.0,0.0,0.0,0.0,0.0,0.0,0.0,0.0,0.0,0.0,0.0,0.0,0.0,0.0,0.0,0.0,0.0,0.0,0.0,0.0,0.0,0.0,0.0,0.0,0.0,0.0,0.0,0.0,0.0,0.0,0.0,0.0,0.0,0.0,0.0,0.0,0.0,0.0,0.0,0.0,0.0,0.0,0.0,0.0,0.0,0.0,0.0,0.0,0.0,0.0,0.0,0.0,0.0,0.0,0.0,0.0,0.0,0.0,0.0,0.0,0.0,0.0,0.0,0.0,0.0,0.0,0.0,0.0,0.0,-2.9421,-2.9912,-3.053,-3.0598,-3.052,-3.0308,-3.0226,-2.9462,-2.7726,-2.7594,0.0,0.0,0.0,0.0,0.0,0.0,0.0,0.0,0.0,0.0,0.0,0.0,0.0,0.0,0.0,0.0,0.0,0.0,0.0,0.0,0.0,0.0,0.0,0.0,0.0,0.0,0.0,0.0,0.0,0.0,0.0,0.0,0.0,0.0,0.0,0.0,0.0,0.0,0.0,0.0,0.0,0.0,0.0,0.0,0.0,0.0,0.0,0.0,0.0,0.0,0.0,0.0,0.0,0.0,0.0,0.0,0.0,0.0,0.0,0.0,0.0,0.0,0.0,0.0,0.0,0.0,0.0,0.0,0.0,0.0,0.0,0.0,0.0,0.0,0.0,0.0,0.0,0.0,0.0,0.0,0.0,0.0,0.0,0.0,0.0,0.0,0.0,0.0,0.0,0.0,0.0,0.0,0.0,0.0,0.0,0.0,0.0,0.0,0.0,0.0,0.0,0.0,-2.95,-3.0537,-3.0583,-3.0598,-3.0269,-2.9457,-2.9337,-2.8575,-2.6896,-2.6728,0.0,0.0,0.0,0.0,0.0,0.0,0.0,0.0,0.0,0.0,0.0,0.0,0.0,0.0,0.0,0.0,0.0,0.0,0.0,0.0,0.0,0.0,0.0,0.0,0.0,0.0,0.0,0.0,0.0,0.0,0.0,0.0,0.0,0.0,0.0,0.0,0.0,0.0,0.0,0.0,0.0,0.0,0.0,0.0,0.0,0.0,0.0,0.0,0.0,0.0,0.0,0.0,0.0,0.0,0.0,0.0,0.0,0.0,0.0,0.0,0.0,0.0,0.0,0.0,0.0,0.0,0.0,0.0,0.0,0.0,0.0,0.0,0.0,0.0,0.0,0.0,0.0,0.0,0.0,0.0,0.0,0.0,0.0,0.0,0.0,0.0,0.0,0.0,0.0,0.0,0.0,0.0,0.0,0.0,0.0,0.0,0.0,0.0,0.0,0.0,0.0,0.0,-2.783,-2.8422,0.0,-2.8977,-2.8842,-2.8513,-2.8429,-2.7919,-2.6761,0.0,0.0,0.0,0.0,0.0,0.0,0.0,0.0,0.0,0.0,0.0,0.0,0.0,0.0,0.0,0.0,0.0,0.0,0.0,0.0,0.0,0.0,0.0,0.0,0.0,0.0,0.0,0.0,0.0,0.0,0.0,0.0,0.0,0.0,0.0,0.0,0.0,0.0,0.0,0.0,0.0,0.0,0.0,0.0,0.0,0.0,0.0,0.0,0.0,0.0,0.0,0.0,0.0,0.0,0.0,0.0,0.0,0.0,0.0,0.0,0.0,0.0,0.0,0.0,0.0,0.0,0.0,0.0,0.0,0.0,0.0,0.0,0.0,0.0,0.0,0.0,0.0,0.0,0.0,0.0,0.0,0.0,0.0,0.0,0.0,0.0,0.0,0.0,0.0,0.0,0.0,0.0,0.0,0.0,0.0,0.0,0.0,0.0,0.0,0.0,0.0,0.0,-2.6738,-2.7044,-2.7404,0.0,-2.7991,-2.7894,-2.76,-2.756,-2.7166,-2.6336,0.0,0.0,0.0,0.0,0.0,0.0,0.0,0.0,0.0,0.0,0.0,0.0,0.0,0.0,0.0,0.0,0.0,0.0,0.0,0.0,0.0,0.0,0.0,0.0,0.0,0.0,0.0,0.0,0.0,0.0,0.0,0.0,0.0,0.0,0.0,0.0,0.0,0.0,0.0,0.0,0.0,0.0,0.0,0.0,0.0,0.0,0.0,0.0,0.0,0.0,0.0,0.0,0.0,0.0,0.0,0.0,0.0,0.0,0.0,0.0,0.0,0.0,0.0,0.0,0.0,0.0,0.0,0.0,0.0,0.0,0.0,0.0,0.0,0.0,0.0,0.0,0.0,0.0,0.0,0.0,0.0,0.0,0.0,0.0,0.0,0.0,0.0,0.0,0.0,0.0,0.0,0.0,0.0,0.0,0.0,0.0,0.0,0.0,0.0,0.0,0.0,0.0,-2.6795,-2.7531,-2.804,-2.7976,-2.7972,-2.7619,-2.6764,-2.6687,-2.6317,0.0,0.0,0.0,0.0,0.0,0.0,0.0,0.0,0.0,0.0,0.0,0.0,0.0,0.0,0.0,0.0,0.0,0.0,0.0,0.0,0.0,0.0,0.0,0.0,0.0,0.0,0.0,0.0,0.0,0.0,0.0,0.0,0.0,0.0,0.0,0.0,0.0,0.0,0.0,0.0,0.0,0.0,0.0,0.0,0.0,0.0,0.0,0.0,0.0,0.0,0.0,0.0,0.0,0.0,0.0,0.0,0.0,0.0,0.0,0.0,0.0,0.0,0.0,0.0,0.0,0.0,0.0,0.0,0.0,0.0,0.0,0.0,0.0,0.0,0.0,0.0,0.0,0.0,0.0,0.0,0.0,0.0,0.0,0.0,0.0,0.0,0.0,0.0,0.0,0.0,0.0,0.0,0.0,0.0,0.0,0.0,0.0,0.0,0.0,0.0,0.0,0.0,0.0,-2.5887,-2.6116,-2.6257,-2.6231,-2.6246,-2.613,-2.5874,-2.5811,-2.5674,-2.541,0.0,0.0,0.0,0.0,0.0,0.0,0.0,0.0,0.0,0.0,0.0,0.0,0.0,0.0,0.0,0.0,0.0,0.0,0.0,0.0,0.0,0.0,0.0,0.0,0.0,0.0,0.0,0.0,0.0,0.0,0.0,0.0,0.0,0.0,0.0,0.0,0.0,0.0,0.0,0.0,0.0,0.0,0.0,0.0,0.0,0.0,0.0,0.0,0.0,0.0,0.0,0.0,0.0,0.0,0.0,0.0,0.0,0.0,0.0,0.0,0.0,0.0,0.0,0.0,0.0,0.0,0.0,0.0,0.0,0.0,0.0,0.0,0.0,0.0,0.0,0.0,0.0,0.0,0.0,0.0,0.0,0.0,0.0,0.0,0.0,0.0,0.0,0.0,0.0,0.0,0.0,0.0,0.0,0.0,0.0,0.0,0.0,0.0,0.0,0.0,0.0,0.0,-2.5518,-2.5495,-2.5501,-2.5496,-2.5507,-2.5507,-2.5507,-2.5433,-2.5393,-2.5391,0.0,0.0,0.0,0.0,0.0,0.0,0.0,0.0,0.0,0.0,0.0,0.0,0.0,0.0,0.0,0.0,0.0,0.0,0.0,0.0,0.0,0.0,0.0,0.0,0.0,0.0,0.0,0.0,0.0,0.0,0.0,0.0,0.0,0.0,0.0,0.0,0.0,0.0,0.0,0.0,0.0,0.0,0.0,0.0,0.0,0.0,0.0,0.0,0.0,0.0,0.0,0.0,0.0,0.0,0.0,0.0,0.0,0.0,0.0,0.0,0.0,0.0,0.0,0.0,0.0,0.0,0.0,0.0,0.0,0.0,0.0,0.0,0.0,0.0,0.0,0.0,0.0,0.0,0.0,0.0,0.0,0.0,0.0,0.0,0.0,0.0,0.0,0.0,0.0,0.0,0.0,0.0,0.0,0.0,0.0,0.0,0.0,0.0,0.0,0.0,0.0,0.0,-2.5522,-2.5495,-2.5501,-2.5496,-2.5492,-2.5507,-2.5507,-2.5433,-2.5417,-2.5395,0.0,0.0,0.0,0.0,0.0,0.0,0.0,0.0,0.0,0.0,0.0,0.0,0.0,0.0,0.0,0.0,0.0,0.0,0.0,0.0,0.0,0.0,0.0,0.0,0.0,0.0,0.0,0.0,0.0,0.0,0.0,0.0,0.0,0.0,0.0,0.0,0.0,0.0,0.0,0.0,0.0,0.0,0.0,0.0,0.0,0.0,0.0,0.0,0.0,0.0,0.0,0.0,0.0,0.0,0.0,0.0,0.0,0.0,0.0,0.0,-2.7221,0.0,0.0,0.0,0.0,0.0,0.0,0.0,0.0,0.0,0.0,0.0,0.0,0.0,0.0,0.0,0.0,0.0,0.0,0.0,0.0,0.0,0.0,0.0,0.0,0.0,0.0,0.0,0.0,0.0,0.0,0.0,0.0,0.0,0.0,0.0,0.0,0.0,0.0,0.0,0.0,0.0,-2.5577,-2.5525,-2.5505,-2.5495,-2.5499,-2.5507,-2.5507,-2.5484,-2.5456,-2.5397,0.0,0.0,0.0,0.0,0.0,0.0,0.0,0.0,0.0,0.0,0.0,0.0,0.0,0.0,0.0,0.0,0.0,0.0,0.0,0.0,0.0,0.0,0.0,0.0,0.0,0.0,0.0,0.0,0.0,0.0,0.0,0.0,0.0,0.0,0.0,0.0,0.0,0.0,0.0,0.0,0.0,0.0,0.0,0.0,0.0,0.0,0.0,0.0,0.0,0.0,0.0,0.0,0.0,0.0,0.0,0.0,0.0,0.0,0.0,0.0,0.0,-2.7898,0.0,0.0,0.0,0.0,0.0,0.0,0.0,0.0,0.0,0.0,0.0,0.0,0.0,0.0,0.0,0.0,0.0,0.0,0.0,0.0,0.0,0.0,0.0,0.0,0.0,0.0,0.0,0.0,0.0,0.0,0.0,0.0,0.0,0.0,0.0,0.0,0.0,0.0,0.0,0.0,-2.5599,-2.5544,-2.5505,-2.5499,-2.5499,-2.5507,-2.5507,-2.5507,-2.546,-2.5401,-2.5393,0.0,0.0,0.0,0.0,0.0,0.0,0.0,0.0,0.0,0.0,0.0,0.0,0.0,0.0,0.0,0.0,0.0,0.0,0.0,0.0,0.0,0.0,0.0,0.0,0.0,0.0,0.0,0.0,0.0,0.0,0.0,0.0,0.0,0.0,0.0,0.0,0.0,0.0,0.0,0.0,0.0,0.0,0.0,0.0,0.0,0.0,0.0,0.0,0.0,0.0,0.0,0.0,0.0,-3.2974,-3.2877,-3.1927,-3.1216,-3.0697,-3.0287,-2.8893,-2.873,-2.9365,0.0,0.0,0.0,0.0,0.0,0.0,0.0,0.0,0.0,0.0,0.0,0.0,0.0,0.0,0.0,0.0,0.0,0.0,0.0,0.0,0.0,0.0,0.0,0.0,0.0,-2.8527,-2.8924,0.0,0.0,0.0,0.0,0.0,0.0,0.0,0.0,0.0,0.0,0.0,0.0,-2.5602,-2.5548,-2.5508,-2.5506,-2.5503,-2.5507,-2.5507,-2.5507,-2.5484,-2.5425,-2.5401,-2.5076,0.0,0.0,0.0,0.0,0.0,0.0,0.0,0.0,0.0,0.0,0.0,0.0,0.0,0.0,0.0,0.0,0.0,0.0,0.0,0.0,0.0,0.0,0.0,0.0,0.0,0.0,0.0,0.0,0.0,0.0,0.0,0.0,-2.6847,-2.615,0.0,0.0,0.0,0.0,0.0,0.0,0.0,0.0,0.0,0.0,0.0,0.0,0.0,0.0,-3.2653,-3.3421,-3.3776,-3.3795,-3.4541,-3.4087,-3.2582,-3.246,-3.1611,-3.0207,-2.9998,0.0,-3.0273,-2.9521,0.0,0.0,0.0,0.0,0.0,0.0,0.0,0.0,0.0,0.0,0.0,0.0,0.0,0.0,0.0,0.0,0.0,0.0,0.0,0.0,0.0,0.0,-2.8097,-2.7344,-2.72,-2.7631,0.0,-2.8602,-2.7948,-2.7948,0.0,0.0,0.0,0.0,0.0,0.0,0.0,0.0,-2.5598,-2.5535,-2.5495,-2.5492,-2.5495,-2.5507,-2.5507,-2.5507,-2.5507,-2.5484,-2.5429,-2.5339,-2.5239,-2.5342,0.0,0.0,0.0,0.0,0.0,0.0,0.0,0.0,0.0,0.0,0.0,0.0,0.0,0.0,0.0,0.0,0.0,0.0,0.0,0.0,0.0,0.0,0.0,0.0,0.0,0.0,0.0,0.0,0.0,-2.7087,-2.7816,-2.7125,-2.8132,-2.8413,0.0,0.0,0.0,0.0,0.0,0.0,0.0,0.0,0.0,-3.2974,-3.3006,-3.3397,-3.4223,-3.4556,-3.4722,-3.4722,-3.4592,-3.3891,-3.268,-3.2222,-3.1369,-3.0211,-3.02,-3.029,-3.0428,-3.0183,-3.0151,-3.0196,0.0,0.0,0.0,0.0,0.0,-2.7795,-2.8285,-2.8148,0.0,0.0,0.0,0.0,0.0,0.0,0.0,0.0,0.0,0.0,0.0,0.0,0.0,-2.7652,-2.7656,-2.7839,-2.8551,-2.8398,-2.81,0.0,-2.7446,-2.675,-2.6242,0.0,0.0,0.0,0.0,0.0,-2.5601,-2.5564,-2.5544,-2.5495,-2.5506,-2.5499,-2.5511,-2.5507,-2.5507,-2.5507,-2.546,-2.5433,-2.5401,-2.5393,-2.54,0.0,0.0,0.0,0.0,0.0,0.0,0.0,0.0,0.0,0.0,0.0,0.0,0.0,0.0,0.0,0.0,0.0,0.0,0.0,0.0,0.0,0.0,0.0,0.0,0.0,0.0,0.0,0.0,-2.7736,-2.8593,-2.8029,-2.9448,-2.9907,0.0,0.0,0.0,0.0,0.0,0.0,-3.2082,-3.2132,-3.2813,-3.4267,-3.4308,-3.4598,-3.519,-3.5209,-3.5209,-3.519,-3.4369,-3.3547,-3.268,-3.184,-3.1006,-3.0211,-3.02,-3.0292,-3.0402,-3.0535,-3.0667,-3.0752,-3.0565,-3.0138,-2.9573,-2.9358,-2.9006,-2.8732,-2.9378,-2.9182,-2.8674,-2.8869,0.0,-2.7141,-2.6289,0.0,0.0,0.0,0.0,-2.6127,-2.6816,0.0,-2.702,-2.7439,-2.7709,-2.7851,-2.7809,-2.7793,-2.7851,0.0,-2.7446,-2.6692,-2.6048,0.0,0.0,0.0,0.0,-2.5601,-2.5601,-2.5609,-2.5573,-2.5518,-2.5494,-2.5511,-2.5492,-2.5507,-2.5507,-2.5507,-2.5507,-2.5484,-2.5429,-2.5429,-2.5421,-2.54,0.0,0.0,0.0,0.0,0.0,0.0,0.0,0.0,0.0,0.0,0.0,0.0,0.0,0.0,0.0,0.0,0.0,0.0,0.0,0.0,0.0,0.0,0.0,0.0,0.0,0.0,0.0,0.0,0.0,-2.8719,-3.0795,0.0,0.0,0.0,0.0,-3.1286,-3.2088,-3.2955,-3.3823,-3.388,-3.4262,-3.5114,-3.5133,-3.5171,-3.5209,-3.5209,-3.5209,-3.519,-3.4369,-3.3547,-3.268,-3.1801,-3.0968,-3.0211,-3.02,-3.0273,-3.0414,-3.0546,-3.0643,-3.0639,-2.9934,-2.9631,-2.9495,-2.8674,-2.8869,-2.9534,-2.9573,-2.9573,-2.9651,-3.0431,-2.9523,-2.7988,-2.7187,-2.6305,0.0,0.0,-2.6933,-2.6934,-2.6992,-2.6992,-2.6775,-2.5935,-2.6361,-2.6952,-2.6956,-2.6964,-2.7194,0.0,-2.7446,-2.6886,-2.6847,0.0,-2.5601,-2.5601,-2.5601,-2.5601,-2.5601,-2.5609,-2.5573,-2.5518,-2.5494,-2.5511,-2.5492,-2.5507,-2.5507,-2.5507,-2.5507,-2.5507,-2.5507,-2.5488,-2.548,-2.5401,-2.5393,0.0,0.0,0.0,0.0,0.0,0.0,0.0,0.0,0.0,0.0,0.0,0.0,0.0,0.0,0.0,0.0,0.0,0.0,0.0,0.0,0.0,0.0,0.0,0.0,0.0,0.0,0.0,0.0,-3.0881,-3.2109,0.0,-3.1886,-3.2592,-3.3089,-3.307,-3.3834,-3.4437,-3.4751,-3.477,-3.5171,-3.6003,-3.5488,-3.5469,-3.6023,-3.5469,-3.4942,-3.4426,-3.3566,-3.2718,-3.1897,-3.1026,-3.0472,-3.0211,-3.0199,-3.0227,-3.0279,-3.0411,-3.0564,-3.068,-3.0412,-3.0336,-3.0333,-3.0021,-3.0118,-3.0372,-3.0372,-3.0372,-3.0235,-2.9455,-2.8386,-2.7278,-2.6419,-2.5934,-2.5721,-2.6069,-2.6166,-2.6167,-2.6152,-2.6131,-2.6003,-2.5673,-2.5831,-2.6054,-2.6054,-2.6067,-2.6145,-2.6433,-2.6262,-2.6067,-2.6067,-2.5815,-2.5601,-2.5601,-2.5601,-2.5601,-2.5601,-2.5595,-2.5586,-2.557,-2.5534,-2.5494,-2.5511,-2.5496,-2.5507,-2.5507,-2.5507,-2.5507,-2.5507,-2.5507,-2.5488,-2.546,-2.546,-2.544,0.0,0.0,0.0,0.0,0.0,0.0,0.0,0.0,0.0,0.0,0.0,0.0,0.0,0.0,0.0,0.0,0.0,0.0,0.0,0.0,0.0,0.0,0.0,0.0,0.0,0.0,-3.0997,-3.2071,-3.3035,-3.3474,-3.3141,-3.3883,-3.4407,-3.4407,-3.4904,-3.5209,-3.5209,-3.5209,-3.545,-3.6042,-3.5488,-3.5469,-3.6061,-3.5229,-3.4522,-3.3995,-3.284,-3.2012,-3.1465,-3.0605,-3.0211,-3.0211,-3.0211,-3.0199,-3.0207,-3.0292,-3.0433,-3.0609,-3.0661,-3.0722,-3.0764,-3.0796,-3.08,-3.08,-3.08,-3.0626,-3.0216,-2.9101,-2.7948,-2.6895,-2.6307,-2.5937,-2.5705,-2.5705,-2.5706,-2.5692,-2.5703,-2.5641,-2.5603,-2.5591,-2.5603,-2.5601,-2.5601,-2.5601,-2.5601,-2.5601,-2.5601,-2.5601,-2.5601,-2.5601,-2.5601,-2.5601,-2.5601,-2.5601,-2.5601,-2.5601,-2.5595,-2.5599,-2.557,-2.5511,-2.5499,-2.5507,-2.5496,-2.5511,-2.5507,-2.5507,-2.5507,-2.5507,-2.5507,-2.5507,-2.5507,-2.5507,-2.5507,0.0,0.0,0.0,0.0,0.0,0.0,0.0,0.0,0.0,0.0,0.0,0.0,0.0,0.0,0.0,0.0,0.0,0.0,0.0,0.0,0.0,0.0,0.0,-2.9108,-3.0369,-3.1483,-3.2162,-3.351,-3.4273,-3.3957,-3.468,-3.5171,-3.5209,-3.519,-3.5171,-3.5209,-3.5209,-3.5209,-3.5248,-3.5209,-3.5209,-3.5209,-3.4407,-3.3975,-3.3899,-3.2286,-3.1484,-3.1427,-3.0586,-3.0211,-3.0211,-3.0211,-3.0211,-3.0192,-3.02,-3.0273,-3.0419,-3.062,-3.0706,-3.0714,-3.0786,-3.0781,-3.0761,-3.0722,-3.0216,-2.9552,-2.9525,-2.8389,-2.7022,-2.6978,-2.6395,-2.5738,-2.5719,-2.5703,-2.5692,-2.5703,-2.5641,-2.5604,-2.5591,-2.5605,-2.5601,-2.5601,-2.5601,-2.5601,-2.5601,-2.5601,-2.5601,-2.5601,-2.5601,-2.5601,-2.5601,-2.5601,0.0,-2.5601,-2.5601,-2.5595,-2.5599,-2.5596,-2.5564,-2.5503,-2.5495,-2.5507,-2.5492,-2.5507,-2.5507,-2.5507,-2.5507,-2.5507,-2.5507,-2.5507,-2.5507,-2.5492,0.0,0.0,0.0,0.0,0.0,0.0,0.0,0.0,0.0,0.0,0.0,0.0,0.0,0.0,0.0,0.0,0.0,0.0,0.0,0.0,0.0,0.0,-3.0373,-3.0459,-3.1311,-3.2283,-3.3247,-3.3939,-3.4392,-3.4548,-3.4423,-3.456,-3.5171,-3.4655,-3.4579,-3.5171,-3.5209,-3.5488,-3.6118,-3.5526,-3.5209,-3.5209,-3.4407,-3.3402,-3.2172,-3.1713,-3.1178,-3.0548,-3.0307,-3.0211,-3.0211,-3.0211,-3.0211,-3.0211,-3.0199,-3.0226,-3.028,-3.0528,-3.0665,-3.0717,-3.0771,-3.0396,-2.9772,-2.9188,-2.8838,-2.8544,-2.7917,-2.7816,-2.7719,-2.643,-2.6334,-2.6511,-2.5887,-2.5697,-2.5707,-2.5701,-2.5683,-2.5659,-2.5618,-2.5591,-2.5593,-2.559,-2.5601,-2.5601,-2.5601,-2.5601,-2.5601,-2.5601,-2.5601,-2.5601,-2.5601,-2.5601,0.0,-2.5601,-2.5601,-2.5595,-2.5599,-2.5567,-2.5518,-2.5505,-2.5495,-2.5499,0.0,-2.5496,-2.5507,-2.5507,-2.5507,-2.5507,-2.5507,-2.5507,-2.5496,0.0,0.0,0.0,0.0,0.0,0.0,0.0,0.0,0.0,0.0,0.0,0.0,0.0,0.0,0.0,0.0,0.0,0.0,0.0,0.0,0.0,0.0,-3.0152,-3.1618,-3.1962,-3.2125,-3.2469,-3.3209,-3.3204,-3.3246,-3.3565,-3.3742,-3.3872,-3.3978,-3.3985,-3.4044,-3.4151,-3.4151,-3.438,-3.4896,-3.4418,-3.4151,-3.4151,-3.3337,-3.2439,-3.1503,-3.1121,-3.0682,-3.0211,-3.0211,-3.0211,0.0,-3.0211,-3.0211,-3.0211,-3.0211,-3.0211,0.0,0.0,0.0,0.0,0.0,-2.9726,-2.8928,-2.846,-2.8051,-2.7678,-2.7168,-2.7106,-2.7027,-2.6011,-2.605,-2.6346,-2.5839,-2.5708,-2.5699,-2.5694,-2.5701,-2.5683,-2.5649,-2.5615,-2.5595,-2.561,-2.5598,-2.559,-2.5604,0.0,0.0,-2.5601,-2.5601,-2.5601,-2.5601,-2.5601,-2.5601,0.0,-2.5601,-2.5598,-2.5609,-2.556,-2.5531,-2.5544,-2.5543,0.0,0.0,0.0,-2.5499,-2.5507,-2.5507,0.0,0.0,0.0,0.0,0.0,0.0,0.0,0.0,-2.6459,-2.7077,0.0,0.0,0.0,0.0,0.0,0.0,0.0,0.0,0.0,0.0,0.0,0.0,0.0,0.0,0.0,0.0,-3.1288,-3.2542,-3.3176,-3.2578,-3.2201,-3.2512,-3.1937,-3.1589,-3.1826,-3.272,-3.3006,-3.2343,-3.3151,-3.3371,-3.273,0.0,0.0,0.0,0.0,-3.2653,-3.2558,-3.1775,-3.1374,-3.1336,-3.056,-3.0185,-3.0185,-3.0204,-3.0211,-3.0211,-3.0211,-3.0211,-3.0211,-3.0211,-3.0128,-3.0072,-3.02,-3.0298,-3.028,-2.9489,-2.8746,0.0,0.0,0.0,0.0,-2.6848,-2.6396,-2.5825,-2.572,-2.5763,-2.5827,-2.573,-2.5699,-2.5708,-2.5696,-2.5693,-2.5702,-2.5703,-2.5641,-2.5607,-2.5597,-2.5607,-2.5595,-2.5601,-2.559,-2.561,-2.5607,-2.5604,-2.5601,-2.5601,-2.5601,0.0,-2.5601,-2.5601,-2.5598,-2.5598,0.0,0.0,-2.5599,-2.5596,-2.557,-2.5518,-2.5494,-2.5495,-2.5499,-2.5496,-2.5496,-2.5496,-2.5496,-2.5507,-2.5506,-2.6377,-2.6844,-2.6961,-2.7734,-2.8569,0.0,0.0,0.0,0.0,0.0,0.0,0.0,0.0,0.0,0.0,0.0,0.0,0.0,0.0,0.0,-3.069,-3.2125,-3.2995,-3.2506,-3.1727,-3.1483,-3.2192,-3.181,-3.1518,-3.1565,-3.1382,-3.1552,-3.2241,-3.1906,-3.1952,-3.2595,-3.2665,0.0,-3.2699,-3.2657,-3.2317,-3.1657,-3.1428,-3.0994,-3.0365,0.0,0.0,-3.0116,-3.0171,-3.0211,-3.0211,-3.0211,-3.0211,-3.0211,-3.0211,-2.9784,-2.916,-2.9292,-2.9467,-2.9433,-2.7895,-2.7252,-2.7088,-2.6428,-2.6096,-2.5958,-2.5956,-2.6285,-2.6558,-2.5894,-2.6147,0.0,-2.5876,-2.5708,-2.5696,-2.5697,-2.5694,-2.5691,-2.5702,-2.5684,-2.5662,-2.5607,-2.5603,-2.5594,-2.5598,-2.5607,-2.5602,-2.5603,-2.5599,-2.5601,-2.5601,-2.5601,-2.5601,-2.5601,-2.5601,-2.5595,-2.5602,-2.5602,-2.5602,-2.5599,-2.5548,-2.5544,-2.5573,-2.5538,-2.5508,-2.5505,-2.5505,-2.5505,-2.5505,-2.5505,-2.5531,-2.5586,-2.6408,-2.7155,-2.7848,-2.8019,-2.8566,0.0,0.0,0.0,0.0,0.0,0.0,0.0,0.0,0.0,0.0,0.0,-2.6469,-2.6882,0.0,-3.0579,-3.1112,-3.1912,-3.2379,-3.2166,-3.1152,-3.0545,-3.0962,-3.043,-3.0051,-3.0051,-3.0323,-3.0544,-3.063,-3.0894,-3.1085,-3.1151,-3.1313,-3.1405,-3.1405,-3.1371,-3.1154,-3.0761,-3.0719,-3.0495,-3.0095,-3.0091,-3.0106,-3.0101,-3.0123,-3.0171,-3.0211,-3.0211,-3.0211,-3.0211,-3.0211,-2.9688,-2.886,-2.8523,-2.82,-2.784,-2.7051,-2.6527,-2.615,-2.5741,-2.5641,-2.5699,-2.5699,-2.5972,-2.6225,-2.5816,-2.5972,-2.6225,-2.5816,-2.5703,-2.5707,-2.5691,-2.5699,-2.5692,-2.5709,-2.5694,-2.5699,-2.5664,-2.5643,-2.5641,-2.5606,-2.5602,-2.5599,-2.5593,-2.5605,-2.5603,-2.5595,-2.5607,-2.5599,-2.5601,-2.5601,-2.5598,-2.5589,-2.5609,-2.5609,-2.5609,-2.5564,-2.5557,-2.5599,-2.557,-2.5525,-2.5495,-2.5495,-2.5495,-2.5495,-2.5495,-2.5525,-2.5599,-2.6414,-2.7045,-2.7524,-2.8356,-2.9214,0.0,0.0,0.0,0.0,0.0,0.0,0.0,0.0,-2.4445,-2.4611,-2.5681,-2.6739,-2.7249,-2.8972,-3.0574,-3.1368,-3.1508,-3.1538,-3.1717,-3.0599,-2.9735,-2.9585,-2.8993,-2.86,-2.86,-2.943,-2.9699,-2.9048,-3.0004,-3.0312,-2.9653,-2.9888,-3.003,-3.003,-3.0053,-3.0087,-3.0087,-3.0072,-3.0053,-3.0053,-3.0061,-3.0076,-3.0079,-3.0094,-3.0123,-3.0178,-3.0185,-3.0089,-2.9956,-2.9956,-2.9344,-2.8344,-2.7695,-2.696,-2.6254,-2.6384,-2.6033,-2.5501,-2.5501,-2.56,-2.5699,-2.5699,-2.5699,-2.5699,-2.5699,-2.5699,-2.5699,-2.5699,-2.5699,-2.5701,-2.5708,-2.5691,-2.5694,-2.5704,-2.5708,-2.5696,-2.5694,-2.5696,-2.568,-2.5625,-2.5624,-2.5624,-2.5623,-2.5623,-2.5615,-2.56,-2.5602,-2.5608,-2.5596,-2.5604,-2.5601,-2.5601,-2.5601,-2.5601,-2.5601,-2.5601,-2.5595,-2.5602,-2.5602,-2.5577,-2.5525,-2.5525,-2.5525,-2.5525,-2.5525,-2.5551,-2.5602,-2.6246,-2.668,-2.6925,-2.8282,-2.9467,-2.1007,-2.1291,-2.1803,-2.3047,-2.329,-2.3692,0.0,0.0,-2.5313,-2.6083,-2.6799,-2.7625,-2.8748,-2.9691,-3.0675,-3.1759,-3.1631,-3.1204,-3.0602,-3.0044,-2.947,-2.8817,-2.8654,-2.86,-2.86,-2.8728,-2.8864,-2.8991,-2.9141,-2.9265,-2.9339,-2.9607,-2.9739,-2.9739,-2.9913,-3.0014,-3.0014,-2.9956,-2.9913,-2.9913,-2.9972,-3.0014,-3.0003,-3.0072,-3.0109,-3.0116,-3.0171,-2.9765,-2.9051,-2.9051,-2.8115,-2.667,-2.6574,-2.6051,-2.5359,-2.5422,-2.5476,-2.5501,-2.5501,-2.56,-2.5699,-2.5699,-2.5699,-2.5699,-2.5699,-2.5699,-2.5699,-2.5699,-2.5699,-2.5699,-2.5701,-2.5707,-2.5692,-2.5694,-2.5702,-2.569,-2.5694,-2.5694,-2.5703,-2.57,-2.5682,-2.5683,-2.5684,-2.5683,-2.5662,-2.5602,-2.5602,-2.56,-2.5608,-2.5599,-2.5601,-2.5601,-2.5601,-2.5601,-2.5601,-2.5601,-2.5598,-2.5598,-2.5598,-2.5598,-2.5595,-2.5595,-2.5595,-2.5595,-2.5595,-2.5595,-2.5598,-2.5695,-2.6145,-2.6906,-2.71,-2.8029,-2.055,-2.14,-2.2305,0.0,-2.3239,-2.4099,-2.4796,-2.4713,-2.473,-2.5512,-2.6226,-2.6993,-2.7931,-2.869,-2.9409,0.0,-2.973,-2.941,-2.9538,-2.9048,-2.8681,-2.8559,-2.8574,-2.86,-2.86,-2.86,-2.865,-2.8755,-2.8904,-2.9034,-2.9123,-2.9346,-2.9475,-2.9475,-2.9672,-2.9779,-2.9779,-2.9855,-2.9897,-2.9897,-2.9932,-2.9964,-3.0007,-3.0019,-2.9783,-2.9355,-2.9377,-2.9174,-2.8805,-2.8329,-2.7732,-2.7046,-2.6587,-2.5919,-2.5197,-2.5223,-2.5293,-2.5394,-2.5425,-2.5508,-2.5603,-2.5671,-2.5699,-2.5699,-2.5699,-2.5699,-2.5699,-2.5699,-2.5699,-2.5699,-2.5699,-2.5701,-2.5705,-2.5705,-2.5708,-2.5692,-2.5692,-2.5692,-2.5697,-2.5692,-2.5694,-2.5696,-2.5701,-2.5702,-2.5689,-2.5662,-2.5662,-2.5631,-2.5614,-2.5603,-2.5608,-2.5604,-2.5601,-2.5601,-2.5601,-2.5601,-2.5601,-2.5601,-2.5601,-2.5601,-2.5601,-2.5601,-2.5601,-2.5601,-2.5601,-2.5601,-2.5601,-2.5601,-2.5795,-2.6164,-2.6668,-2.7276,-2.0141,0.0,0.0,-2.1731,-2.2725,-2.3767,-2.3835,-2.3852,-2.405,-2.4679,-2.5209,-2.5889,-2.6818,-2.7431,-2.8006,-2.8656,-2.8264,-2.8066,-2.8624,-2.8247,-2.8041,-2.8304,-2.8453,-2.8549,-2.8574,-2.8587,-2.86,-2.86,-2.8785,-2.8887,-2.8887,-2.9097,-2.9228,-2.9228,-2.9415,-2.9533,-2.9608,-2.9742,-2.9847,-2.9897,-2.9897,-2.9932,-2.9972,-2.998,-2.9555,-2.8801,-2.8801,-2.8534,-2.8077,-2.7487,-2.7101,-2.6854,-2.627,-2.5697,-2.5174,-2.5174,-2.5228,-2.5317,-2.5352,-2.5425,-2.5529,-2.561,-2.5669,-2.5699,-2.5699,-2.5699,-2.5699,-2.5699,-2.5699,-2.5699,-2.5699,-2.5699,-2.5699,-2.5699,-2.5699,-2.5699,-2.5699,-2.5699,-2.5699,-2.5699,-2.5699,-2.5699,-2.5699,-2.5699,-2.5707,-2.5707,-2.5709,-2.5682,-2.5622,-2.5605,-2.5597,-2.5593,-2.5608,-2.5608,-2.5608,-2.5608,-2.5603,-2.5607,-2.5604,-2.5599,-2.5601,-2.5601,-2.5601,-2.5601,-2.5601,-2.5601,-2.5601,-2.559,-2.5596,-2.5615,-2.6245,-2.6688,0.0,0.0,-2.0441,-2.1142,-2.1594,-2.2166,-2.3268,-2.3516,-2.3601,-2.3951,-2.405,-2.4514,-2.597,-2.6252,-2.6733,-2.818,-2.8062,-2.7825,-2.793,-2.7867,-2.7829,-2.7911,-2.8214,-2.8432,0.0,-2.8562,-2.86,-2.86,-2.86,-2.8612,-2.8612,-2.8863,-2.9003,-2.9003,-2.9198,-2.9405,-2.9598,-2.9608,-2.9707,-2.9897,-2.9897,-2.9897,-2.9916,-2.9964,-2.9555,-2.8801,-2.8801,-2.7887,-2.637,-2.6351,-2.5882,-2.5178,-2.5158,-2.512,-2.5107,-2.5107,-2.5187,-2.5308,-2.5308,-2.5398,-2.5501,-2.5504,-2.5583,-2.5699,-2.5699,-2.5699,-2.5699,-2.5699,-2.5699,-2.5699,-2.5699,-2.5699,-2.5699,-2.5699,-2.5699,-2.5699,-2.5699,-2.5699,-2.5699,-2.5699,-2.5699,-2.5699,-2.5699,-2.5699,-2.5699,-2.5701,-2.5701,-2.5708,-2.5703,-2.5641,-2.5593,-2.5607,-2.5607,-2.5607,-2.5607,-2.5607,-2.5597,-2.5601,-2.56,-2.5598,-2.5604,-2.5601,-2.5601,-2.5601,-2.5601,-2.5601,-2.5601,-2.5593,-2.5608,-2.5608,-2.563,-2.6137,-1.9596,0.0,-2.0489,-2.1142,-2.1329,-2.1606,-2.2552,-2.2394,-2.2264,-2.3109,-2.3272,-2.3719,-2.5209,-2.5457,-2.5789,-2.6783,-2.6825,-2.682,-2.7063,-2.7125,-2.7303,-2.7771,-2.7971,0.0,0.0,0.0,0.0,-2.8587,-2.86,-2.86,-2.86,-2.8687,-2.8718,-2.8718,-2.8962,-2.913,-2.9188,-2.9334,-2.9426,-2.9494,-2.9109,-2.919,-2.967,-2.8755,-2.818,-2.791,-2.7322,-2.6745,-2.6195,-2.5663,-2.562,-2.5849,-2.5259,-2.507,-2.5101,-2.5101,-2.5118,-2.5181,-2.5273,-2.5331,-2.5378,-2.5414,-2.5486,-2.5565,-2.5565,-2.5596,-2.5634,-2.5634,-2.5639,-2.5643,-2.5695,-2.5699,-2.5699,-2.5699,-2.5699,-2.5699,-2.5699,-2.5699,-2.5699,-2.5699,-2.5699,-2.5699,-2.5699,-2.5699,-2.5699,-2.5699,-2.5705,-2.5686,-2.5638,-2.5644,-2.5643,-2.5595,-2.5592,-2.5609,-2.5609,-2.5593,-2.5591,-2.5603,-2.5607,-2.5607,-2.5598,-2.5598,-2.5605,-2.5609,-2.5603,-2.5595,-2.5593,-2.56,-2.5591,-2.5591,-2.5652,-2.584,-1.952,-1.9779,-2.0146,-2.0524,-2.0561,-2.067,-2.1344,-2.1277,-2.1263,-2.2067,-2.2369,-2.2874,-2.4067,-2.4298,-2.4646,-2.5639,-2.5805,-2.5959,-2.6453,-2.6657,-2.6971,-2.7519,-2.7988,-2.8426,0.0,0.0,0.0,-2.8641,-2.8871,-2.8889,-2.8618,-2.86,-2.86,-2.86,-2.8773,-2.8899,-2.9003,-2.913,-2.922,-2.9304,-2.8903,-2.8839,-2.9036,-2.82,-2.7489,-2.69,-2.6403,-2.6046,-2.5724,-2.5212,-2.532,-2.5777,-2.5226,-2.5037,-2.5063,-2.5063,-2.5082,-2.5107,-2.5198,-2.5238,-2.5264,-2.5302,-2.5367,-2.5441,-2.5462,-2.5483,-2.5544,-2.5582,-2.5593,-2.5617,-2.5643,-2.5669,-2.5671,-2.5697,-2.5699,-2.5697,-2.5669,-2.5669,-2.5669,-2.5669,-2.5669,-2.5671,-2.5697,-2.5699,-2.5699,-2.5699,-2.5703,-2.5678,-2.5641,-2.567,-2.5678,-2.5644,-2.5644,-2.5644,-2.5644,-2.5644,-2.5644,-2.5643,-2.5644,-2.5624,-2.5602,-2.5602,-2.5595,-2.5606,-2.5597,-2.5605,-2.5602,-2.5623,-2.5632,-2.5632,-2.569,-2.5697,-1.9395,-1.9395,-1.9395,-1.9395,-1.9395,-1.949,-1.9811,-2.0244,-2.0648,-2.0942,-2.14,-2.1968,-2.2665,0.0,-2.3487,-2.4928,-2.5193,-2.5458,-2.6152,-2.6486,-2.6791,0.0,0.0,0.0,0.0,0.0,0.0,-2.8701,0.0,-2.9463,-2.8708,-2.8623,-2.8587,-2.8587,-2.86,-2.8706,-2.898,-2.898,-2.9093,-2.9262,-2.918,-2.8773,-2.8097,-2.8157,-2.7356,-2.5906,-2.6068,-2.5698,-2.5003,-2.5003,-2.5003,-2.5003,-2.5003,-2.5004,-2.4993,-2.4993,-2.5031,-2.5082,-2.5088,-2.5145,-2.5194,-2.5192,-2.524,-2.5295,-2.5379,-2.5398,-2.5413,-2.5541,-2.5595,-2.5585,-2.5598,-2.5605,-2.5612,-2.5671,-2.5695,-2.5671,-2.561,-2.5605,-2.5605,-2.5605,-2.5608,-2.5615,-2.5695,-2.5699,-2.5699,-2.5699,-2.5699,-2.5703,-2.5691,-2.5692,-2.5697,-2.5707,-2.5708,-2.571,-2.571,-2.5708,-2.5701,-2.5698,-2.5699,-2.5663,-2.5604,-2.5604,-2.5619,-2.5604,-2.5603,-2.5612,-2.5603,-2.5663,-2.569,-2.5692,-2.5703,-2.5707,-1.9302,-1.9246,-1.9195,-1.9358,-1.9358,-1.9435,-1.9811,-1.9987,-2.0246,-2.0862,-2.1118,-2.1518,-2.2602,0.0,0.0,-2.5755,-2.6369,0.0,-2.7,-2.6625,0.0,-2.6791,0.0,-2.7803,-2.819,-2.9191,0.0,0.0,-2.925,-2.9638,-2.9439,-2.8843,-2.8536,-2.8536,-2.8574,-2.8637,-2.8712,-2.8712,-2.8718,-2.8773,-2.7732,-2.7451,-2.7822,-2.6163,-2.5606,-2.5861,-2.5317,-2.5049,-2.5003,-2.5003,-2.5003,-2.5003,-2.5003,-2.501,-2.4998,-2.5005,-2.5018,-2.5025,-2.5031,-2.5076,-2.5125,-2.5132,-2.5134,-2.5143,-2.5165,-2.522,-2.5274,-2.5414,-2.5441,-2.546,-2.5576,-2.5593,-2.5596,-2.5621,-2.5624,-2.5621,-2.5596,-2.5593,-2.5593,-2.5593,-2.5593,-2.5615,-2.5695,-2.5699,-2.5699,-2.5699,-2.5699,-2.5699,-2.5703,-2.5708,-2.5694,-2.5697,-2.5705,-2.571,-2.571,-2.5702,-2.5701,-2.571,-2.5705,-2.5686,-2.5673,-2.5668,-2.5661,-2.5662,-2.5661,-2.5672,-2.5663,-2.5697,-2.5703,-2.5703,-2.5706,-2.5707,-1.9176,-1.9157,-1.912,-1.9246,-1.9246,-1.9269,-1.95,-1.9811,-2.0177,-2.0565,-2.0975,0.0,-2.2065,-2.3194,0.0,0.0,0.0,0.0,-2.6816,-2.6733,-2.6695,0.0,-2.718,0.0,-2.824,-2.9216,-2.9708,0.0,-2.9566,-2.9499,-2.9143,-2.8732,-2.8492,-2.8492,-2.8574,-2.8587,-2.8562,-2.8562,-2.8562,-2.8543,-2.7404,-2.6938,-2.7057,-2.5508,-2.4957,-2.523,0.0,-2.4817,-2.4996,-2.4889,-2.4922,-2.4996,-2.4889,-2.4922,-2.5003,-2.5004,-2.4992,-2.4992,-2.4992,-2.5024,-2.5056,-2.5056,-2.507,-2.505,-2.5093,-2.5128,-2.5179,-2.5274,-2.5303,-2.533,-2.5479,-2.5505,-2.5534,-2.5592,-2.5601,-2.5595,-2.5564,-2.556,-2.556,-2.556,-2.5579,-2.5612,-2.5645,-2.5673,-2.5699,-2.5699,-2.5699,-2.5699,-2.5699,-2.5703,-2.5707,-2.5707,-2.5692,-2.5697,-2.5697,-2.5691,-2.5707,-2.5707,-2.5694,-2.5699,-2.5699,-2.5693,-2.5693,-2.5703,-2.5703,-2.5701,-2.5698,-2.5704,-2.5707,-2.5707,-2.5707,-2.5708,-1.9101,-1.9101,-1.9101,-1.9101,-1.9101,-1.9101,-1.9101,-1.9681,-2.0227,-2.0208,0.0,-2.1481,-2.1402,-2.2228,-2.3194,-2.405,0.0,-2.6401,-2.6599,-2.6998,-2.7178,-2.6826,-2.7351,-2.798,-2.8563,-2.9363,-2.9983,-3.0287,-2.9757,-2.9166,-2.8577,-2.8499,-2.8484,-2.8497,-2.844,-2.8386,-2.8335,-2.8227,-2.8185,-2.8173,-2.7373,-2.667,-2.6011,-2.5392,-2.4835,-2.4363,0.0,0.0,-2.4915,-2.473,-2.4761,-2.4915,-2.4753,-2.4809,-2.4957,-2.4996,-2.5003,-2.5003,-2.5003,-2.5003,-2.5003,-2.5003,-2.5003,-2.4998,-2.5063,-2.5088,-2.5107,-2.5168,-2.5195,-2.5222,-2.535,-2.5385,-2.5418,-2.5522,-2.5564,-2.556,-2.5515,-2.5508,-2.5508,-2.5495,-2.5546,-2.5605,-2.5608,-2.5665,-2.5699,-2.5699,-2.5699,-2.5699,-2.5699,-2.5699,-2.5699,-2.5699,-2.5699,-2.5699,-2.5699,-2.5699,-2.5699,-2.5699,-2.5702,-2.5694,-2.5694,-2.5698,-2.5693,-2.5703,-2.5703,-2.5703,-2.5707,-2.5707,-2.5707,-2.5707,-2.5708,-2.569,-1.9101,-1.9101,-1.9101,-1.9101,-1.9101,-1.9101,-1.9101,-1.9457,0.0,0.0,-2.0597,-2.1023,-2.134,-2.2525,-2.3964,-2.5468,0.0,0.0,0.0,0.0,-2.7269,0.0,0.0,0.0,0.0,0.0,0.0,0.0,0.0,-2.8693,-2.9281,-2.8699,-2.8367,-2.8406,-2.7779,-2.7437,-2.7437,-2.6825,-2.6519,-2.6513,-2.5756,-2.5339,-2.517,-2.4414,-2.4097,-2.4145,0.0,0.0,-2.451,-2.4476,-2.4466,-2.4518,-2.4642,-2.4723,-2.4768,-2.4936,-2.5003,-2.5003,-2.5003,-2.5003,-2.5003,-2.5003,-2.5003,-2.501,-2.5004,-2.5011,-2.5031,-2.5107,-2.5112,-2.5136,-2.5203,-2.5279,-2.5315,-2.5357,-2.5437,-2.5511,-2.5503,-2.5499,-2.5491,-2.5508,-2.5547,-2.5599,-2.5605,-2.5665,-2.5699,-2.5699,-2.5699,-2.5699,-2.5699,-2.5699,-2.5699,-2.5699,-2.5699,-2.5699,-2.5699,-2.5699,-2.5699,-2.5699,-2.5705,-2.5707,-2.5707,-2.5708,-2.5709,-2.5701,-2.5703,-2.57,-2.5707,-2.5707,-2.5707,-2.5707,-2.5691,-2.5693,-1.9101,-1.9101,-1.9101,-1.9101,-1.9101,-1.9101,-1.9101,0.0,0.0,0.0,-2.0663,-2.1119,-2.1309,-2.2264,0.0,0.0,0.0,0.0,0.0,0.0,0.0,0.0,0.0,0.0,0.0,0.0,0.0,0.0,0.0,0.0,-2.88,-2.8501,-2.8143,-2.7795,-2.7394,-2.7004,-2.6589,-2.623,-2.6051,-2.6033,-2.5272,-2.4933,-2.4978,-2.4172,-2.3919,-2.4107,-2.4107,0.0,-2.4389,-2.4284,-2.4301,-2.4398,-2.4399,-2.4451,-2.4559,-2.4768,-2.4846,-2.4853,-2.4957,-2.5003,-2.5003,-2.5003,-2.5003,-2.5003,-2.5003,-2.5003,-2.5017,-2.5044,-2.5057,-2.5057,-2.5136,-2.5174,-2.5198,-2.5244,-2.5312,-2.5412,-2.5484,-2.5507,-2.5496,-2.5499,-2.5534,-2.5544,-2.5543,-2.5607,-2.5647,-2.5641,-2.5643,-2.5667,-2.5697,-2.5699,-2.5699,-2.5699,-2.5699,-2.5699,-2.5699,-2.5699,-2.5695,-2.5645,-2.5658,-2.5646,-2.5646,-2.5652,-2.5651,-2.5655,-2.565,-2.5677,-2.5702,-2.5702,-2.57,-2.5695,-2.5697,-2.5698,-1.9101,-1.9101,-1.9101,-1.9101,-1.9101,-1.9101,-1.9101,-1.9678,0.0,0.0,-2.0795,-2.1293,-2.1293,0.0,-2.259,0.0,-2.495,0.0,0.0,0.0,0.0,0.0,0.0,0.0,0.0,0.0,0.0,0.0,0.0,0.0,-2.8213,-2.8085,-2.7758,-2.7176,-2.6835,-2.6361,-2.5732,-2.5553,-2.5464,-2.5446,-2.4831,-2.4624,-2.4703,-2.4089,-2.3878,-2.4049,-2.4049,0.0,0.0,-2.4098,-2.4126,-2.4265,-2.4136,-2.4192,-2.4363,-2.461,-2.47,-2.473,-2.4929,-2.5003,-2.5003,-2.5003,-2.5003,-2.5003,-2.5003,-2.5003,-2.5003,-2.5003,-2.5003,-2.5004,-2.5057,-2.5088,-2.5112,-2.519,-2.5244,-2.5312,-2.5436,-2.5452,-2.5476,-2.5488,-2.5506,-2.5495,-2.5495,-2.556,-2.561,-2.5595,-2.56,-2.5625,-2.5663,-2.5684,-2.5684,-2.5684,-2.5693,-2.5699,-2.5699,-2.5695,-2.5667,-2.5591,-2.5609,-2.5598,-2.5598,-2.5602,-2.56,-2.5599,-2.5607,-2.5637,-2.5677,-2.5699,-2.5702,-2.5702,-2.5701,-2.5701,-1.9101,-1.9101,-1.9101,-1.9101,-1.9101,-1.9101,-1.9101,0.0,0.0,-2.0191,-2.0795,-2.1293,-2.1293,-2.1358,-2.2102,0.0,0.0,-2.5903,0.0,0.0,0.0,0.0,0.0,0.0,0.0,0.0,0.0,0.0,0.0,0.0,0.0,-2.7513,-2.7094,-2.7022,-2.5665,-2.4885,-2.4831,-2.4088,-2.3731,-2.3731,-2.3716,-2.3748,-2.3819,-2.3801,-2.381,-2.3827,0.0,0.0,0.0,-2.3837,-2.3847,-2.3878,-2.4049,-2.4098,-2.4164,-2.4561,-2.47,-2.473,-2.4929,-2.5003,-2.5003,-2.5003,-2.5003,-2.5003,-2.5003,-2.5003,-2.5003,-2.5003,-2.5003,-2.5003,-2.5017,-2.5044,-2.5112,-2.519,-2.5198,-2.5229,-2.5293,-2.5326,-2.5344,-2.548,-2.5506,-2.5495,-2.5495,-2.556,-2.5601,-2.5604,-2.5604,-2.5607,-2.561,-2.561,-2.561,-2.561,-2.5654,-2.5699,-2.5699,-2.5643,-2.561,-2.5608,-2.5604,-2.559,-2.559,-2.5607,-2.559,-2.5593,-2.5609,-2.5605,-2.5616,-2.5675,-2.57,-2.5701,-2.5703,-2.5702,-1.9101,-1.9101,-1.9101,-1.9101,-1.9101,-1.9101,-1.9101,0.0,-2.0191,-2.0191,-2.0795,-2.1293,-2.1293,-2.1293,-2.1876,-2.3694,-2.4091,-2.5081,-2.7564,0.0,0.0,0.0,0.0,0.0,0.0,0.0,0.0,0.0,0.0,0.0,0.0,-2.733,-2.6782,-2.63,-2.5247,-2.448,-2.3969,-2.3666,-2.3505,-2.3505,-2.3562,-2.3607,-2.3652,-2.375,-2.3797,-2.38,0.0,0.0,0.0,-2.3806,-2.3806,-2.3806,-2.3899,-2.3929,-2.3941,-2.4248,-2.4417,-2.4543,-2.4746,-2.4908,-2.5003,-2.5003,-2.5003,-2.5003,-2.5003,-2.5003,-2.5003,-2.5003,-2.5003,-2.5003,-2.5003,-2.5011,-2.507,-2.5124,-2.5147,-2.5151,-2.5224,-2.5265,-2.5326,-2.5372,-2.5441,-2.5468,-2.5394,-2.5468,-2.5533,-2.5483,-2.5511,-2.5541,-2.5598,-2.5601,-2.5601,-2.5601,-2.5621,-2.5634,-2.5634,-2.5626,-2.5574,-2.5537,-2.5544,-2.5535,-2.5535,-2.5531,-2.5541,-2.5546,-2.5544,-2.5543,-2.5535,-2.5574,-2.5595,-2.5634,-2.5674,-2.5699,-1.9101,-1.9101,-1.9101,-1.9101,-1.9101,-1.9101,0.0,-1.9588,-2.0085,-2.0174,-2.0871,-2.1424,-2.1326,-2.1649,-2.228,-2.3318,-2.3829,-2.485,-2.703,-2.7943,0.0,0.0,0.0,0.0,0.0,0.0,0.0,0.0,0.0,0.0,0.0,-2.6711,-2.6281,-2.5806,-2.4855,-2.4058,-2.3505,-2.3505,-2.3505,-2.3505,-2.3551,-2.3573,-2.3596,-2.3696,-2.3761,-2.3804,0.0,0.0,0.0,-2.3803,-2.3803,-2.3803,-2.3795,-2.3806,-2.3827,-2.4039,-2.4183,-2.4337,-2.4534,-2.4696,-2.4839,-2.4879,-2.4887,-2.4894,-2.4936,-2.4964,-2.5003,-2.5003,-2.5003,-2.5003,-2.5003,-2.5003,-2.5004,-2.507,-2.5063,-2.5095,-2.5151,-2.5203,-2.5254,-2.5279,-2.534,-2.5378,-2.5293,-2.534,-2.5395,-2.5361,-2.5406,-2.5467,-2.5567,-2.557,-2.557,-2.557,-2.557,-2.558,-2.5598,-2.5573,-2.5557,-2.5499,-2.5505,-2.5498,-2.5498,-2.5507,-2.5503,-2.5498,-2.5507,-2.5499,-2.5493,-2.5492,-2.5524,-2.5563,-2.5642,-2.5676,-1.9101,-1.9101,-1.9101,-1.9101,-1.9101,-1.9101,-1.9101,-1.9402,-1.98,-2.0122,-2.1045,-2.1687,-2.1359,-2.2491,-2.348,-2.3496,-2.4237,-2.5553,-2.7784,-2.8256,0.0,0.0,0.0,0.0,0.0,0.0,0.0,0.0,0.0,0.0,0.0,-2.5435,-2.5478,-2.5788,-2.4308,-2.3505,-2.3505,-2.3505,-2.3505,-2.3505,-2.3505,-2.3539,-2.3596,-2.3596,-2.3674,0.0,0.0,0.0,0.0,-2.3804,-2.3804,-2.3804,-2.3803,-2.3806,-2.3827,-2.4039,-2.4107,-2.4126,-2.4328,-2.4398,-2.4434,-2.4564,-2.4607,-2.4639,-2.4749,-2.4896,-2.5003,-2.5003,-2.5003,-2.5003,-2.5003,-2.5003,-2.5003,-2.5003,-2.5003,-2.5011,-2.5088,-2.5107,-2.5118,-2.5195,-2.5192,-2.5192,-2.5192,-2.5192,-2.5224,-2.5288,-2.5297,-2.5344,-2.5484,-2.5492,-2.5492,-2.5492,-2.5492,-2.5522,-2.5595,-2.5535,-2.5495,-2.5495,-2.5495,-2.5511,-2.5511,-2.5507,-2.5507,-2.5511,-2.5507,-2.5511,-2.5492,-2.5509,-2.5501,-2.5504,-2.5561,-2.5601,-1.9101,-1.9101,-1.9101,-1.9101,-1.9101,-1.9101,-1.9101,-1.9737,-2.0348,-2.0444,-2.1546,-2.2453,-2.2336,-2.2966,-2.382,-2.4774,-2.5279,0.0,0.0,0.0,0.0,0.0,0.0,0.0,0.0,0.0,0.0,0.0,0.0,0.0,0.0,-2.5018,-2.462,-2.4431,-2.3653,-2.3229,-2.3229,-2.3229,-2.3313,-2.3505,-2.3505,-2.3517,-2.3539,-2.3573,0.0,0.0,0.0,0.0,0.0,-2.3783,-2.3804,-2.3804,-2.3797,-2.3807,-2.3818,-2.3863,-2.3958,-2.405,-2.4099,-2.422,-2.4327,-2.4327,-2.4327,-2.4336,-2.4378,-2.4551,-2.4742,-2.4787,-2.4882,-2.5003,-2.5003,-2.5003,-2.5003,-2.5003,-2.5003,-2.501,-2.5024,-2.5063,-2.5113,-2.513,-2.5168,-2.519,-2.5147,-2.5168,-2.5182,-2.5168,-2.5198,-2.5264,-2.5359,-2.5367,-2.5404,-2.5484,-2.5507,-2.5519,-2.5526,-2.5518,-2.5491,-2.5491,-2.5499,-2.5507,-2.5507,-2.5507,-2.5507,-2.5507,-2.5507,-2.5507,-2.5507,-2.5495,-2.5495,-2.5501,-2.5521,-2.5532,-1.9143,-1.9101,-1.9101,-1.9101,-1.9101,-1.9101,-1.9101,-1.9786,-2.0448,-2.0567,-2.1732,-2.2738,-2.2802,-2.3474,-2.4287,-2.5063,-2.578,0.0,0.0,0.0,0.0,0.0,0.0,0.0,0.0,0.0,0.0,0.0,0.0,0.0,0.0,0.0,-2.4103,-2.349,-2.314,-2.2952,-2.2952,-2.304,-2.3193,-2.3348,-2.3459,-2.3505,-2.3505,-2.3539,0.0,0.0,0.0,0.0,0.0,-2.3721,-2.375,-2.3729,-2.3783,-2.3775,-2.3754,-2.3754,-2.3831,-2.3919,-2.3899,-2.3999,-2.4107,-2.4052,-2.4099,-2.4146,-2.4071,-2.4238,-2.4468,-2.4534,-2.4696,-2.4842,-2.4875,-2.4943,-2.5003,-2.5003,-2.5003,-2.5003,-2.5003,-2.5031,-2.5057,-2.5057,-2.5107,-2.5112,-2.5063,-2.5107,-2.5124,-2.5088,-2.5141,-2.5195,-2.524,-2.5255,-2.5303,-2.5408,-2.5417,-2.5444,-2.5507,-2.5507,-2.5507,-2.5507,-2.5507,-2.5507,-2.5507,-2.5507,-2.5507,-2.5507,-2.5507,-2.5507,-2.5507,-2.5507,-2.5495,-2.5502,-2.5502,-2.5499,0.0,-1.912,-1.912,-1.9101,-1.9101,-1.9116,-1.9159,-1.9696,0.0,-2.0625,-2.1764,-2.2753,-2.3002,-2.4083,-2.4921,-2.4897,0.0,0.0,0.0,0.0,0.0,0.0,0.0,0.0,0.0,0.0,0.0,0.0,0.0,0.0,0.0,0.0,-2.3903,-2.2856,-2.2697,-2.2651,-2.266,-2.294,-2.3077,-2.3089,-2.336,-2.3505,-2.3505,-2.3505,0.0,0.0,0.0,0.0,0.0,-2.3674,-2.3663,-2.3607,-2.3739,-2.3761,-2.3689,-2.3689,-2.3721,-2.3783,-2.3711,-2.3721,-2.3775,-2.3782,-2.3909,-2.4029,-2.3837,-2.3983,-2.421,-2.4255,-2.4414,-2.4599,-2.4665,-2.4839,-2.4971,-2.5003,-2.5003,-2.5003,-2.5003,-2.5003,-2.5003,-2.5003,-2.5003,-2.5003,-2.5003,-2.5003,-2.5018,-2.5082,-2.5095,-2.5112,-2.5171,-2.5182,-2.5219,-2.5283,-2.5293,-2.5344,-2.548,-2.5488,-2.5507,-2.5507,-2.5507,-2.5507,-2.5507,-2.5507,-2.5507,-2.5488,-2.5488,-2.5488,-2.5488,-2.5507,-2.5507,-2.5488,-2.5507,-2.546,-1.942,0.0,-1.9302,-1.9139,-1.9176,-1.9359,0.0,-2.0349,-2.0971,-2.1549,-2.2571,-2.3803,-2.5286,-2.5313,-2.5894,-2.8248,0.0,0.0,0.0,0.0,0.0,0.0,0.0,0.0,0.0,0.0,0.0,0.0,0.0,0.0,0.0,0.0,-2.3467,-2.2111,-2.2026,-2.2113,-2.232,-2.2634,-2.2902,-2.3089,-2.336,-2.3505,-2.3505,-2.3505,0.0,0.0,0.0,0.0,-2.3528,-2.3596,-2.3607,-2.3596,-2.3629,-2.3641,-2.3618,-2.3618,-2.3629,-2.3641,-2.3629,-2.3629,-2.3641,-2.3589,-2.3594,-2.3627,-2.3571,-2.3881,-2.4174,-2.4079,-2.4211,-2.4405,-2.4583,-2.4689,-2.4817,-2.4957,-2.5003,-2.5003,-2.5003,-2.5003,-2.5003,-2.5003,-2.5003,-2.5003,-2.5003,-2.5003,-2.501,-2.5018,-2.5018,-2.5057,-2.5112,-2.5124,-2.514,-2.5214,-2.526,-2.5306,-2.5339,-2.5444,-2.5507,-2.5507,-2.5507,-2.5507,-2.5507,-2.5507,-2.5484,-2.5429,-2.5429,-2.5429,-2.5429,-2.5464,-2.546,-2.5429,-2.5484,-2.546,-1.965,-1.9671,-1.9836,-1.9723,-1.9981,-2.0343,-2.0636,-2.1167,-2.1687,-2.2052,0.0,-2.3887,-2.5354,-2.5255,0.0,0.0,0.0,0.0,0.0,0.0,0.0,0.0,0.0,0.0,0.0,0.0,0.0,0.0,0.0,0.0,0.0,0.0,-2.3487,-2.2343,-2.1978,-2.1869,-2.2027,-2.232,-2.2537,-2.2699,-2.3114,-2.3313,-2.3313,-2.3313,0.0,0.0,0.0,0.0,-2.3324,-2.3517,-2.3573,-2.3551,-2.3585,-2.3573,-2.3551,-2.3551,-2.3573,-2.3603,-2.3562,-2.3551,-2.3551,-2.3517,-2.3505,-2.3505,-2.3505,-2.3685,-2.387,-2.3831,-2.3988,-2.4183,-2.431,-2.4441,-2.4602,-2.4696,-2.4809,-2.4861,-2.4861,-2.4936,-2.5003,-2.5003,-2.5003,-2.5003,-2.5003,-2.5003,-2.5003,-2.5003,-2.5003,-2.5004,-2.5057,-2.5044,-2.5082,-2.5159,-2.5195,-2.5219,-2.5259,-2.535,-2.5421,-2.5507,-2.5507,-2.5507,-2.5507,-2.5507,-2.546,-2.5401,-2.5393,-2.5408,-2.5408,-2.5436,-2.5436,-2.5408,-2.5436,-2.5432,-2.0023,-2.0202,-2.0562,-2.042,-2.0912,-2.1434,-2.1517,0.0,0.0,0.0,0.0,0.0,-2.4822,-2.4927,0.0,0.0,0.0,0.0,0.0,0.0,0.0,0.0,0.0,0.0,0.0,0.0,0.0,0.0,0.0,0.0,0.0,0.0,0.0,-2.2758,-2.2144,-2.1812,-2.1812,-2.2068,-2.2206,-2.2206,-2.2764,-2.3028,-2.3028,-2.3028,-2.3028,0.0,0.0,0.0,-2.3132,-2.3413,-2.3517,-2.3505,-2.3562,-2.3551,-2.3505,-2.3505,-2.3539,-2.3573,-2.3517,-2.3505,-2.3505,-2.3505,-2.3505,-2.3505,-2.3505,-2.3505,-2.3517,-2.3562,-2.3754,-2.3955,-2.3971,-2.4155,-2.4346,-2.4381,-2.4526,-2.4657,-2.47,-2.4832,-2.495,-2.4964,-2.4996,-2.4984,-2.4971,-2.4996,-2.4977,-2.4971,-2.4964,-2.4964,-2.495,-2.495,-2.4984,-2.5025,-2.5076,-2.5106,-2.5154,-2.5249,-2.5326,-2.5455,-2.548,-2.5507,-2.5484,-2.548,-2.5468,-2.5397,-2.5395,-2.5406,-2.5406,-2.5406,-2.5406,-2.5406,-2.5406,-2.5397,-2.0931,-2.122,-2.1332,-2.0577,-2.0951,-2.1593,-2.2058,-2.2229,0.0,0.0,0.0,0.0,0.0,-2.604,0.0,0.0,0.0,0.0,0.0,0.0,0.0,0.0,0.0,0.0,0.0,0.0,0.0,0.0,0.0,0.0,0.0,0.0,0.0,-2.1995,-2.1862,-2.1812,-2.1812,-2.2068,-2.2206,-2.2206,-2.2594,-2.2769,-2.2769,-2.2769,-2.2769,0.0,0.0,-2.2884,-2.3089,-2.3156,-2.3301,-2.3505,-2.3517,-2.3517,-2.3505,-2.3505,-2.3505,-2.3517,-2.3505,-2.3505,-2.3505,-2.3505,-2.3505,-2.3505,-2.3505,-2.3505,-2.3505,-2.3517,-2.3585,-2.37,-2.3876,-2.3981,-2.4099,-2.4264,-2.4371,-2.4493,-2.4657,-2.4723,-2.4761,-2.482,-2.4917,-2.4964,-2.4849,-2.4917,-2.4957,-2.4849,-2.4834,-2.4813,-2.4753,-2.4746,-2.4746,-2.4768,-2.4919,-2.5012,-2.5032,-2.5132,-2.5219,-2.5248,-2.541,-2.546,-2.5425,-2.541,-2.5421,-2.5395,-2.5393,-2.5403,-2.5403,-2.5402,-2.5402,-2.5403,-2.5402,-2.5397,-2.068,-2.0898,-2.1152,-2.1099,-2.1852,-2.2649,-2.2903,-2.2898,-2.301,0.0,0.0,0.0,0.0,0.0,0.0,0.0,0.0,0.0,0.0,0.0,0.0,0.0,0.0,0.0,0.0,0.0,0.0,0.0,0.0,0.0,0.0,0.0,0.0,0.0,-2.1812,-2.1812,-2.1812,-2.1911,-2.1984,-2.1984,-2.2292,-2.2429,-2.2429,-2.2429,-2.2429,-2.2429,0.0,-2.2497,-2.2647,-2.2977,-2.318,-2.3301,-2.343,-2.3505,-2.3505,-2.3505,-2.3407,-2.3301,-2.3459,-2.3505,-2.3505,-2.3505,-2.3505,-2.3505,-2.3505,-2.3505,-2.3505,-2.3505,-2.3551,-2.3618,-2.3711,-2.38,-2.3858,-2.3999,-2.4107,-2.4211,-2.4301,-2.4501,-2.4665,-2.4696,-2.4868,-2.4957,-2.4808,-2.4849,-2.4868,-2.4768,-2.4753,-2.4719,-2.4707,-2.47,-2.47,-2.47,-2.4791,-2.4842,-2.4842,-2.4923,-2.5053,-2.5235,-2.5351,-2.5391,-2.5401,-2.5391,-2.5393,-2.5393,-2.5403,-2.5389,-2.5351,-2.5341,-2.5341,-2.5351,-2.5341,-2.5341,-2.0598,-2.0621,-2.0853,-2.153,-2.2402,-2.3203,-2.3606,-2.3526,-2.3518,0.0,0.0,0.0,0.0,0.0,0.0,0.0,0.0,0.0,0.0,0.0,0.0,0.0,0.0,0.0,0.0,0.0,0.0,0.0,0.0,0.0,0.0,0.0,0.0,0.0,-2.1812,-2.1812,-2.1812,-2.1812,-2.1812,-2.1812,-2.2013,-2.211,-2.211,-2.211,-2.211,-2.211,-2.211,-2.2136,-2.2234,-2.2699,-2.296,-2.3102,-2.3265,-2.3307,-2.3307,-2.3307,-2.3175,-2.304,-2.3313,-2.3413,-2.3424,-2.3482,-2.3505,-2.3505,-2.3505,-2.3505,-2.3505,-2.3505,-2.3539,-2.3573,-2.3573,-2.3629,-2.3689,-2.3739,-2.386,-2.3966,-2.3991,-2.4238,-2.4474,-2.4532,-2.4727,-2.4853,-2.4776,-2.4776,-2.4742,-2.4684,-2.4676,-2.4668,-2.4653,-2.4653,-2.4653,-2.4653,-2.4668,-2.4684,-2.47,-2.4753,-2.4885,-2.517,-2.5224,-2.5264,-2.5279,-2.5274,-2.5274,-2.5278,-2.5303,-2.5298,-2.5253,-2.5274,-2.5308,-2.5308,-2.5308,-2.5308,-2.1451,-2.1154,-2.0853,-2.153,-2.1769,-2.2267,-2.3941,-2.3852,0.0,-2.4888,0.0,0.0,0.0,0.0,0.0,0.0,0.0,0.0,0.0,0.0,0.0,0.0,0.0,0.0,0.0,0.0,0.0,0.0,0.0,0.0,0.0,0.0,0.0,0.0,0.0,-2.1812,-2.1812,-2.1812,-2.1812,-2.1812,-2.1811,-2.1825,-2.1825,-2.1825,-2.1825,-2.1825,-2.1825,-2.1969,-2.2206,-2.2248,-2.259,-2.3082,-2.2846,-2.2769,-2.2769,-2.2769,-2.2756,-2.2769,-2.3028,-2.3132,-2.318,-2.3407,-2.3505,-2.3505,-2.3505,-2.3505,-2.3505,-2.3505,-2.3505,-2.3505,-2.3505,-2.3562,-2.3607,-2.3607,-2.3718,-2.386,-2.3971,-2.4012,-2.4108,-2.4372,-2.4476,-2.4545,-2.4615,-2.466,-2.4684,-2.4623,-2.4615,-2.4582,-2.4525,-2.4517,-2.4517,-2.4517,-2.4566,-2.4621,-2.47,-2.4689,-2.4738,-2.4824,-2.5006,-2.5063,-2.493,-2.4942,-2.4942,-2.4942,-2.5068,-2.5126,-2.5101,-2.5243,-2.5308,-2.5308,-2.5308,-2.5308,-2.1078,-2.0914,-2.0763,-2.1002,-2.1395,0.0,0.0,-2.3889,-2.43,-2.5453,-2.5668,0.0,0.0,0.0,0.0,0.0,0.0,0.0,0.0,0.0,0.0,0.0,0.0,0.0,0.0,0.0,0.0,0.0,0.0,0.0,0.0,0.0,0.0,0.0,0.0,-2.1812,-2.1812,-2.1812,-2.1812,-2.1812,-2.1812,-2.1812,-2.1812,-2.1812,-2.1812,-2.1812,-2.1812,-2.1855,-2.1969,-2.2139,-2.233,-2.255,-2.266,-2.2581,-2.2416,-2.262,-2.2567,-2.2429,-2.2738,-2.2965,-2.3119,-2.3217,-2.336,-2.3505,-2.3505,-2.3505,-2.3505,-2.3505,-2.3505,-2.3505,-2.3505,-2.3517,-2.3551,-2.3585,-2.3607,-2.3634,-2.3736,-2.3855,-2.3969,-2.4078,-2.4201,-2.4301,-2.4293,-2.4372,-2.4424,-2.4356,-2.4464,-2.4534,-2.45,-2.45,-2.45,-2.45,-2.4525,-2.4541,-2.4574,-2.4604,-2.4629,-2.4618,-2.479,-2.4915,-2.4891,-2.4904,-2.4903,-2.4902,-2.4955,-2.4987,-2.4987,-2.5031,-2.5056,-2.5056,-2.5138,-2.5171,-2.1078,-2.0898,-2.0748,-2.0957,0.0,0.0,-2.3568,-2.4111,-2.4646,-2.5755,-2.5969,0.0,0.0,0.0,0.0,0.0,0.0,0.0,0.0,0.0,0.0,0.0,0.0,0.0,0.0,0.0,0.0,0.0,0.0,0.0,0.0,0.0,0.0,0.0,0.0,-2.1812,-2.1812,-2.1812,-2.1812,-2.1812,-2.1812,-2.1812,-2.1812,-2.1812,-2.1812,-2.1812,-2.1812,-2.1812,-2.1811,-2.2013,-2.2068,-2.211,-2.2416,-2.2347,-2.2096,-2.2337,-2.2281,-2.2124,-2.2429,-2.266,-2.2833,-2.294,-2.3168,-2.3372,-2.3372,-2.343,-2.3505,-2.3505,-2.3448,-2.3383,-2.3482,-2.3505,-2.3517,-2.3562,-2.3551,-2.3539,-2.3585,-2.3711,-2.3821,-2.3865,-2.3963,-2.4042,-2.4068,-2.4136,-2.4201,-2.4201,-2.4321,-2.4429,-2.4491,-2.45,-2.45,-2.45,-2.45,-2.45,-2.45,-2.4532,-2.4541,-2.45,-2.4629,-2.4723,-2.4778,-2.4759,-2.4771,-2.4768,-2.4814,-2.4835,-2.4832,-2.4881,-2.4902,-2.4908,-2.4987,-2.505,-2.1689,-2.1203,-2.0872,-2.153,0.0,0.0,-2.4291,-2.4499,-2.471,-2.5766,0.0,-2.5589,-2.4911,0.0,0.0,0.0,0.0,0.0,0.0,0.0,0.0,0.0,0.0,0.0,0.0,0.0,0.0,0.0,0.0,0.0,0.0,0.0,0.0,0.0,0.0,0.0,-2.1797,-2.1812,-2.1812,-2.1812,-2.1812,-2.1812,-2.1812,-2.1812,-2.1812,-2.1812,-2.1812,-2.1812,-2.1812,-2.1812,-2.1812,-2.1842,-2.2096,-2.2025,-2.1812,-2.1812,-2.1812,-2.184,-2.211,-2.2206,-2.2248,-2.2594,-2.2889,-2.3107,-2.3107,-2.3277,-2.3494,-2.3494,-2.3301,-2.3168,-2.3418,-2.3494,-2.3494,-2.3505,-2.3551,-2.3596,-2.3596,-2.3596,-2.3634,-2.3764,-2.3735,-2.3764,-2.3966,-2.3996,-2.4046,-2.4173,-2.4201,-2.4275,-2.4474,-2.45,-2.45,-2.45,-2.45,-2.45,-2.45,-2.45,-2.45,-2.45,-2.45,-2.45,-2.45,-2.45,-2.45,-2.45,-2.4621,-2.47,-2.47,-2.4825,-2.4902,-2.4902,-2.4902,-2.4902,-2.1272,-2.1047,0.0,-2.1004,0.0,0.0,0.0,-2.4156,0.0,0.0,-2.5223,-2.4897,0.0,0.0,0.0,0.0,0.0,0.0,0.0,0.0,0.0,0.0,0.0,0.0,0.0,0.0,0.0,0.0,0.0,0.0,0.0,0.0,0.0,0.0,0.0,0.0,-2.1449,-2.1693,-2.1812,-2.1812,-2.1812,-2.1812,-2.1812,-2.1812,-2.1812,-2.1812,-2.1812,-2.1812,-2.1812,-2.1812,-2.1812,-2.1796,-2.1899,-2.1869,-2.1812,-2.1812,-2.1812,-2.1796,-2.1899,-2.2039,-2.222,-2.2334,-2.255,-2.282,-2.282,-2.2871,-2.2935,-2.2935,-2.2884,-2.2833,-2.291,-2.2935,-2.3022,-2.3407,-2.3517,-2.3528,-2.3528,-2.3528,-2.3551,-2.3589,-2.356,-2.3571,-2.3645,-2.3728,-2.3806,-2.384,-2.3978,-2.4106,-2.4275,-2.4411,-2.45,-2.45,-2.45,-2.45,-2.45,-2.45,-2.45,-2.45,-2.45,-2.45,-2.45,-2.45,-2.45,-2.45,-2.4551,-2.4557,-2.4557,-2.4607,-2.4613,-2.4621,-2.473,-2.4757,-2.2095,-2.1897,0.0,-2.1799,-2.2411,-2.3046,-2.3126,0.0,0.0,0.0,0.0,0.0,0.0,0.0,0.0,0.0,0.0,0.0,0.0,0.0,0.0,0.0,0.0,0.0,0.0,0.0,0.0,0.0,0.0,0.0,0.0,0.0,0.0,0.0,0.0,0.0,-2.1103,-2.1417,-2.1602,-2.1602,-2.1753,-2.1812,-2.1812,-2.1812,-2.1812,-2.1812,-2.1812,-2.1812,-2.1812,-2.1812,-2.1812,-2.1812,-2.1812,-2.1812,-2.1812,-2.1812,-2.1812,-2.1812,-2.1812,-2.1913,-2.2039,-2.2039,-2.2251,-2.2497,-2.2497,-2.2594,-2.2703,-2.2703,-2.2607,-2.2541,-2.2677,-2.2594,-2.263,-2.3199,-2.3336,-2.336,-2.3482,-2.3505,-2.3505,-2.3505,-2.3505,-2.3505,-2.3505,-2.356,-2.3635,-2.3682,-2.3876,-2.4056,-2.4182,-2.4312,-2.4411,-2.4491,-2.4429,-2.4384,-2.4384,-2.4384,-2.4384,-2.4384,-2.4465,-2.45,-2.45,-2.45,-2.45,-2.45,-2.45,-2.45,-2.45,-2.45,-2.45,-2.45,-2.4582,-2.4631,-2.344,-2.3071,0.0,-2.3167,-2.3354,0.0,-2.3839,0.0,0.0,0.0,0.0,0.0,0.0,0.0,0.0,0.0,0.0,0.0,0.0,0.0,0.0,0.0,0.0,0.0,0.0,0.0,0.0,0.0,0.0,0.0,0.0,0.0,0.0,0.0,0.0,0.0,-2.0761,-2.1087,-2.1262,0.0,-2.1617,-2.1783,-2.1812,-2.1812,-2.1812,-2.1812,-2.1812,-2.1812,-2.1812,-2.1812,-2.1812,-2.1812,-2.1812,-2.1812,-2.1812,-2.1812,-2.1812,-2.1812,-2.1812,-2.1812,-2.1812,-2.1812,-2.1969,-2.2164,-2.2164,-2.2375,-2.2624,-2.2624,-2.2388,-2.222,-2.2541,-2.2388,-2.232,-2.2884,-2.3052,-2.3168,-2.3407,-2.3494,-2.3505,-2.3505,-2.3505,-2.3505,-2.3505,-2.3505,-2.3544,-2.3667,-2.3855,-2.4026,-2.4144,-2.4173,-2.4257,-2.4429,-2.4294,-2.4182,-2.4182,-2.4182,-2.4182,-2.4182,-2.4357,-2.4482,-2.4482,-2.4491,-2.45,-2.45,-2.45,-2.45,-2.45,-2.45,-2.45,-2.45,-2.45,-2.45,-2.2132,-2.1728,0.0,0.0,-2.2163,-2.2511,-2.26,-2.252,0.0,0.0,0.0,0.0,0.0,0.0,0.0,0.0,0.0,0.0,0.0,0.0,0.0,0.0,0.0,0.0,0.0,0.0,0.0,0.0,0.0,0.0,0.0,0.0,0.0,0.0,0.0,-2.0344,-2.0344,-2.0712,-2.1039,0.0,-2.1371,-2.1556,-2.1812,-2.1812,-2.1812,-2.1812,-2.1812,-2.1812,-2.1812,-2.1812,-2.1812,-2.1812,-2.1812,-2.1812,-2.1812,-2.1812,-2.1812,-2.1812,-2.1812,-2.1812,-2.1812,-2.1812,-2.184,-2.1899,-2.1899,-2.1943,-2.2001,-2.2001,-2.1943,-2.1913,-2.1972,-2.1943,-2.1969,-2.232,-2.2751,-2.3119,-2.318,-2.3348,-2.3505,-2.3505,-2.3505,-2.3505,-2.3505,-2.3505,-2.3517,-2.3544,-2.3675,-2.3767,-2.3798,-2.3958,-2.4066,-2.4105,-2.4075,-2.4046,-2.4046,-2.4046,-2.4046,-2.4046,-2.4173,-2.4257,-2.4257,-2.442,-2.45,-2.45,-2.45,-2.45,-2.45,-2.45,-2.45,-2.45,-2.45,-2.45,-2.2218,0.0,0.0,-2.1441,0.0,-2.163,-2.163,-2.1335,0.0,0.0,0.0,0.0,0.0,0.0,0.0,0.0,0.0,0.0,0.0,0.0,0.0,0.0,0.0,0.0,0.0,0.0,0.0,0.0,0.0,0.0,0.0,0.0,0.0,0.0,-1.9871,-1.9962,-1.9962,-2.0326,-2.0597,-2.0779,-2.1119,-2.148,-2.1812,-2.1812,-2.1812,-2.1812,-2.1812,-2.1812,-2.1812,-2.1812,-2.1812,-2.1812,-2.1812,-2.1812,-2.1812,-2.1812,-2.1812,-2.1812,-2.1812,-2.1812,-2.1812,-2.1812,-2.1812,-2.1812,-2.1812,-2.1812,-2.1781,-2.1753,-2.1783,-2.1797,-2.1708,-2.1723,-2.1797,-2.1943,-2.232,-2.2712,-2.2871,-2.3114,-2.3313,-2.3313,-2.3407,-2.3505,-2.3505,-2.3505,-2.3505,-2.3505,-2.356,-2.3631,-2.3682,-2.3795,-2.3896,-2.3996,-2.3917,-2.3865,-2.3865,-2.3865,-2.3865,-2.3865,-2.4018,-2.4096,-2.4096,-2.4201,-2.4339,-2.45,-2.45,-2.45,-2.45,-2.45,-2.45,-2.45,-2.45,-2.45,-2.2577,0.0,-2.1831,-2.1425,-2.1088,0.0,-2.0843,0.0,0.0,0.0,0.0,0.0,0.0,0.0,0.0,0.0,0.0,0.0,0.0,0.0,0.0,0.0,0.0,0.0,0.0,0.0,0.0,0.0,0.0,0.0,0.0,0.0,-1.9468,-1.9636,-1.9672,-1.969,-1.969,-1.9962,-2.0139,-2.0208,-2.0958,-2.1449,-2.1723,-2.1766,-2.1812,-2.1812,-2.1812,-2.1812,-2.1812,-2.1812,-2.1812,-2.1812,-2.1812,-2.1812,-2.1812,-2.1812,-2.1812,-2.1812,-2.1812,-2.1812,-2.1812,-2.1812,-2.1812,-2.1812,-2.1797,-2.1766,-2.1768,-2.1709,-2.1723,-2.1738,-2.1635,-2.1634,-2.1679,-2.1679,-2.1897,-2.2209,-2.2541,-2.2833,-2.304,-2.3095,-2.3313,-2.3505,-2.3505,-2.3505,-2.3505,-2.3505,-2.3505,-2.3544,-2.3646,-2.3667,-2.3721,-2.3894,-2.3753,-2.3667,-2.3667,-2.3667,-2.3667,-2.3667,-2.3845,-2.3955,-2.3955,-2.3986,-2.4124,-2.4402,-2.4447,-2.4474,-2.45,-2.45,-2.45,-2.45,-2.45,-2.45,-2.2064,0.0,-2.0906,0.0,-2.0631,-2.0219,0.0,0.0,0.0,0.0,0.0,0.0,0.0,0.0,0.0,0.0,0.0,0.0,0.0,0.0,0.0,0.0,0.0,0.0,0.0,0.0,0.0,0.0,0.0,0.0,0.0,-1.9321,-1.9358,-1.9431,-1.9541,-1.9611,-1.9611,-1.9708,-1.9909,-2.0208,-2.0958,-2.1324,-2.1371,-2.1678,-2.1812,-2.1812,-2.1812,-2.1812,-2.1812,-2.1812,-2.1812,-2.1812,-2.1812,-2.1812,-2.1812,-2.1812,-2.1812,-2.1812,-2.1812,-2.1812,-2.1812,-2.1812,-2.1812,-2.1797,-2.1723,-2.1708,-2.1709,-2.1635,-2.162,-2.1619,-2.1604,-2.1604,-2.1603,-2.1603,-2.1694,-2.1855,-2.2178,-2.251,-2.282,-2.3052,-2.3313,-2.3505,-2.3505,-2.3505,-2.3505,-2.3505,-2.3505,-2.3517,-2.3522,-2.3522,-2.3533,-2.3555,-2.3544,-2.3522,-2.3522,-2.3522,-2.3522,-2.3522,-2.3664,-2.3735,-2.3735,-2.3907,-2.4026,-2.4066,-2.4173,-2.4321,-2.45,-2.45,-2.45,-2.45,-2.45,-2.45,-2.1309,-2.0779,-2.023,0.0,-1.9798,-1.9537,-1.9537,0.0,0.0,0.0,0.0,0.0,0.0,0.0,0.0,0.0,0.0,0.0,0.0,0.0,0.0,0.0,0.0,0.0,0.0,0.0,0.0,0.0,0.0,0.0,-1.9302,-1.9302,-1.9339,-1.9395,-1.9465,-1.952,-1.9593,-1.9629,-1.9833,-2.0191,-2.0531,-2.0893,-2.1293,-2.1449,-2.1616,-2.1812,-2.1812,-2.1812,-2.1812,-2.1812,-2.1812,-2.1812,-2.1812,-2.1812,-2.1812,-2.1812,-2.1812,-2.1812,-2.1812,-2.1812,-2.1812,-2.1812,-2.1783,-2.1738,-2.1724,-2.1679,-2.1619,-2.151,-2.1542,-2.1557,-2.145,-2.1465,-2.148,-2.148,-2.151,-2.1586,-2.1825,-2.2169,-2.251,-2.282,-2.3089,-2.3241,-2.3089,-2.3295,-2.3395,-2.3102,-2.3313,-2.3448,-2.3301,-2.3413,-2.3505,-2.3505,-2.3505,-2.3505,-2.3505,-2.3505,-2.3505,-2.3505,-2.3567,-2.3594,-2.3594,-2.3671,-2.3757,-2.3827,-2.4068,-2.4238,-2.433,-2.4456,-2.45,-2.45,-2.45,-2.45,0.0,0.0,-1.9917,-1.9384,-1.9157,-1.9101,0.0,0.0,0.0,0.0,0.0,0.0,0.0,0.0,0.0,0.0,0.0,0.0,0.0,0.0,0.0,0.0,0.0,0.0,0.0,0.0,0.0,0.0,0.0,0.0,-1.9246,-1.9246,-1.9265,-1.9321,-1.9358,-1.9413,-1.952,-1.9574,-1.9759,-2.0085,-2.0156,-2.0531,-2.1167,-2.1167,-2.1356,-2.1678,-2.1751,-2.1812,-2.1812,-2.1812,-2.1812,-2.1812,-2.1812,-2.1812,-2.1812,-2.1812,-2.1812,-2.1812,-2.1812,-2.1812,-2.1812,-2.1812,-2.1753,-2.1694,-2.1679,-2.1619,-2.1527,-2.1418,-2.1465,-2.1481,-2.1341,-2.134,-2.1371,-2.1371,-2.1386,-2.1449,-2.1557,-2.1899,-2.2237,-2.25,-2.2764,-2.2897,-2.273,-2.3022,-2.3163,-2.2769,-2.3035,-2.3211,-2.3028,-2.3223,-2.3395,-2.3395,-2.3471,-2.3505,-2.3505,-2.3505,-2.3505,-2.3505,-2.3505,-2.3505,-2.3505,-2.3505,-2.3555,-2.3646,-2.3929,-2.4106,-2.4144,-2.4294,-2.4384,-2.442,-2.442,-2.4446,0.0,-2.0497,0.0,-1.9347,-1.9101,0.0,0.0,0.0,0.0,0.0,0.0,0.0,0.0,0.0,0.0,0.0,0.0,0.0,0.0,0.0,0.0,0.0,0.0,0.0,0.0,0.0,0.0,0.0,0.0,0.0,-1.9101,-1.9101,-1.9101,-1.912,-1.9246,-1.9321,-1.9321,-1.9501,-1.9632,-1.9744,-2.005,-2.0429,-2.0827,-2.0827,-2.1006,-2.134,-2.1646,-2.1812,-2.1812,-2.1812,-2.1812,-2.1812,-2.1812,-2.1812,-2.1812,-2.1812,-2.1812,-2.1812,-2.1812,-2.1812,-2.1812,-2.1812,-2.1753,-2.1694,-2.1619,-2.151,-2.1402,-2.1324,-2.1309,-2.1309,-2.1293,-2.1293,-2.1325,-2.1325,-2.134,-2.1449,-2.1557,-2.1827,-2.2025,-2.2124,-2.2358,-2.2573,-2.2673,-2.273,-2.2743,-2.2699,-2.273,-2.2743,-2.273,-2.2947,-2.3132,-2.3132,-2.3348,-2.3505,-2.3505,-2.3505,-2.3505,-2.3505,-2.3505,-2.3505,-2.3505,-2.3505,-2.3505,-2.3499,-2.3646,-2.3816,-2.4016,-2.4026,-2.4095,-2.421,-2.421,-2.4321,0.0,0.0,0.0,-1.9699,-1.9328,0.0,0.0,0.0,0.0,0.0,0.0,0.0,0.0,0.0,0.0,0.0,0.0,0.0,0.0,0.0,0.0,0.0,0.0,0.0,0.0,0.0,0.0,0.0,0.0,0.0,-1.9082,-1.9101,-1.9101,-1.9101,-1.9139,-1.9195,-1.9302,-1.9413,-1.9487,-1.9523,-1.9708,-2.001,-2.0342,-2.041,-2.0614,-2.099,-2.1119,-2.1277,-2.1495,-2.1706,-2.1812,-2.1812,-2.1812,-2.1812,-2.1812,-2.1812,-2.1812,-2.1812,-2.1812,-2.1812,-2.1781,-2.1753,-2.1694,-2.1619,-2.1511,-2.1418,-2.1324,-2.1325,-2.1293,-2.1293,-2.1293,-2.1293,-2.1293,-2.1293,-2.1324,-2.134,-2.1403,-2.1572,-2.1753,-2.1783,-2.1998,-2.2139,-2.2015,-2.232,-2.2453,-2.2115,-2.2419,-2.262,-2.2416,-2.2647,-2.2833,-2.2833,-2.3077,-2.3241,-2.3241,-2.3395,-2.3505,-2.3505,-2.3505,-2.3505,-2.3505,-2.3505,-2.3505,-2.3505,-2.3555,-2.3642,-2.3806,-2.3927,-2.4026,-2.4057,-2.4057,-2.4163,-2.1228,0.0,0.0,0.0,0.0,0.0,0.0,0.0,0.0,0.0,0.0,0.0,0.0,0.0,0.0,0.0,0.0,0.0,0.0,0.0,0.0,0.0,0.0,0.0,0.0,0.0,0.0,0.0,0.0,0.0,-1.8792,-1.8796,-1.8695,-1.8477,-1.8462,-1.8619,-1.8962,-1.8998,-1.9053,-1.9104,-1.9212,-1.9326,-1.9428,-1.9607,-1.9885,-2.0234,-2.0502,-2.086,-2.1309,-2.1541,-2.1708,-2.1812,-2.1812,-2.1812,-2.1797,-2.1661,-2.1691,-2.1766,-2.1678,-2.1708,-2.1797,-2.1708,-2.1649,-2.1542,-2.1308,-2.1261,-2.1277,-2.1167,-2.1214,-2.1293,-2.1293,-2.1293,-2.1293,-2.1293,-2.1293,-2.1293,-2.1293,-2.1403,-2.1496,-2.1527,-2.1676,-2.1766,-2.1619,-2.1926,-2.2082,-2.1708,-2.2044,-2.2254,-2.207,-2.2323,-2.2514,-2.2541,-2.2794,-2.3003,-2.3077,-2.3265,-2.3395,-2.3494,-2.3505,-2.3505,-2.3505,-2.3505,-2.3505,-2.3505,-2.3505,-2.3544,-2.3624,-2.3779,-2.3863,-2.3896,-2.3896,-2.4008,0.0,0.0,0.0,0.0,0.0,0.0,0.0,0.0,0.0,0.0,0.0,0.0,0.0,0.0,0.0,0.0,0.0,0.0,0.0,0.0,0.0,0.0,0.0,0.0,0.0,0.0,0.0,0.0,0.0,-1.8366,-1.8176,-1.8169,-1.7864,-1.7229,-1.72,-1.7539,-1.827,-1.8285,-1.8323,-1.846,-1.853,-1.8393,-1.8098,-1.8475,-1.8808,-1.909,-1.9802,-2.055,-2.1246,-2.1277,-2.1495,-2.1797,-2.1797,-2.1797,-2.1736,-2.1418,-2.1495,-2.1753,-2.1418,-2.1526,-2.1797,-2.1708,-2.1649,-2.1496,-2.1039,-2.1071,-2.1214,-2.0893,-2.1039,-2.1293,-2.1293,-2.1293,-2.1293,-2.1293,-2.1293,-2.1293,-2.1293,-2.1293,-2.1324,-2.1386,-2.1402,-2.1449,-2.1557,-2.1589,-2.1589,-2.1589,-2.1604,-2.1619,-2.1694,-2.1926,-2.211,-2.2178,-2.247,-2.2782,-2.304,-2.3082,-2.3205,-2.3471,-2.3494,-2.3494,-2.3505,-2.3505,-2.3505,-2.3505,-2.3505,-2.3505,-2.3505,-2.3505,-2.356,-2.3692,-2.3692,-2.387,-2.1645,0.0,0.0,0.0,0.0,0.0,0.0,0.0,0.0,0.0,0.0,0.0,0.0,0.0,0.0,0.0,0.0,0.0,0.0,0.0,0.0,0.0,0.0,0.0,0.0,0.0,0.0,0.0,-1.7572,-1.7448,-1.7687,-1.7565,-1.7403,-1.7214,-1.72,-1.7287,-1.7495,-1.7495,-1.7527,-1.7561,-1.7728,-1.7759,-1.7665,-1.7876,-1.7999,-1.8032,-1.823,-1.8809,-1.9713,-2.0831,-2.1356,-2.1433,-2.1433,-2.1433,-2.1402,-2.1055,-2.1151,-2.1433,-2.1324,-2.1526,-2.1783,-2.1664,-2.1418,-2.1119,-2.0893,-2.0876,-2.0925,-2.0827,-2.1039,-2.1293,-2.1293,-2.1293,-2.1293,-2.1293,-2.1293,-2.1293,-2.1293,-2.1293,-2.1325,-2.1324,-2.1324,-2.134,-2.1388,-2.1418,-2.1464,-2.1464,-2.1542,-2.1604,-2.1635,-2.1694,-2.1738,-2.1768,-2.2013,-2.2237,-2.2361,-2.2546,-2.2824,-2.3193,-2.3217,-2.3301,-2.3494,-2.3505,-2.3505,-2.3505,-2.3505,-2.3505,-2.3505,-2.3505,-2.351,-2.3567,-2.3657,-2.3746,-2.1855,0.0,0.0,0.0,0.0,0.0,0.0,-1.9609,0.0,0.0,0.0,0.0,0.0,0.0,0.0,0.0,0.0,0.0,0.0,0.0,0.0,0.0,0.0,0.0,0.0,0.0,0.0,0.0,-1.695,-1.671,-1.6754,-1.6534,-1.6416,-1.6416,-1.6416,-1.6532,-1.6779,-1.6779,-1.6779,-1.6779,-1.697,-1.6888,-1.664,-1.7018,-1.7167,-1.7133,-1.7415,-1.8004,-1.8786,-1.9887,-2.0591,-2.1007,-2.1007,-2.1039,-2.1055,-2.0679,-2.0877,-2.1277,-2.1135,-2.1402,-2.1753,-2.1448,-2.1182,-2.0926,-2.0479,-2.0444,-2.0529,-2.0376,-2.0696,-2.1087,-2.1087,-2.1198,-2.1293,-2.1293,-2.1293,-2.1293,-2.1293,-2.1293,-2.1293,-2.1293,-2.1293,-2.1293,-2.1293,-2.1324,-2.1371,-2.1371,-2.1418,-2.1481,-2.1511,-2.1527,-2.1542,-2.1589,-2.1738,-2.1882,-2.2039,-2.2234,-2.248,-2.2841,-2.2854,-2.301,-2.3313,-2.3313,-2.336,-2.3505,-2.3505,-2.3505,-2.3505,-2.3505,-2.3505,-2.3505,-2.3582,-2.3646,-2.1926,-2.1691,0.0,0.0,0.0,0.0,-1.9963,-1.972,0.0,0.0,0.0,0.0,0.0,0.0,0.0,0.0,0.0,0.0,0.0,0.0,0.0,0.0,0.0,0.0,0.0,0.0,-1.6392,-1.671,-1.6436,-1.607,-1.5652,-1.5384,-1.5237,-1.5237,-1.5283,-1.5559,-1.6081,-1.6111,-1.6111,-1.6111,-1.6219,-1.5989,-1.5418,-1.6096,-1.6345,-1.6326,-1.6993,-1.7562,-1.8112,-1.8603,-1.9479,-2.0514,-2.0514,-2.0597,-2.0646,-2.0258,-2.0563,-2.1103,-2.0795,-2.1119,-2.1569,-2.1071,-2.0894,-2.0715,-1.9927,-1.9925,-2.0087,-1.9836,-2.0239,-2.0745,-2.0794,-2.1023,-2.1246,-2.1293,-2.1293,-2.1293,-2.1293,-2.1294,-2.1277,-2.1277,-2.1294,-2.1293,-2.1293,-2.1293,-2.1293,-2.1293,-2.1293,-2.1324,-2.1371,-2.1386,-2.1433,-2.1542,-2.1574,-2.1679,-2.1911,-2.1982,-2.2136,-2.2436,-2.2432,-2.2625,-2.3028,-2.301,-2.3145,-2.3459,-2.3459,-2.3459,-2.3459,-2.3494,-2.3505,-2.3505,-2.3505,-2.356,-2.2015,-2.1897,-2.1779,-2.1748,0.0,0.0,0.0,-1.9846,0.0,0.0,0.0,0.0,0.0,0.0,0.0,0.0,0.0,0.0,0.0,0.0,0.0,0.0,0.0,0.0,0.0,0.0,-1.6522,-1.634,-1.5774,-1.5367,-1.5226,-1.5019,-1.4902,-1.4902,-1.5147,-1.5356,-1.5472,-1.5472,-1.5472,-1.5487,-1.5563,-1.5535,-1.5404,-1.5595,-1.5654,-1.5608,-1.5755,-1.6119,-1.6666,-1.729,-1.8531,-2.0039,-2.0039,-2.0056,-2.0037,-1.9693,-1.9821,-2.016,-2.0091,-2.0365,-2.0715,-2.05,-2.0246,-2.0,-1.9764,-1.9762,-1.9854,-2.005,-2.0208,-2.0395,-2.0728,-2.0844,-2.0974,-2.123,-2.1293,-2.1293,-2.1293,-2.123,-2.1151,-2.1151,-2.123,-2.1293,-2.1293,-2.1293,-2.1293,-2.1293,-2.1293,-2.1293,-2.1324,-2.1324,-2.1324,-2.1372,-2.1372,-2.1402,-2.1509,-2.1524,-2.1705,-2.2068,-2.211,-2.2248,-2.2595,-2.2862,-2.306,-2.318,-2.318,-2.318,-2.318,-2.3383,-2.3505,-2.3505,-2.3505,-2.351,-2.212,-2.2077,-2.2034,-2.1928,0.0,0.0,0.0,0.0,-2.0178,0.0,0.0,0.0,0.0,0.0,0.0,0.0,0.0,0.0,0.0,0.0,0.0,0.0,0.0,0.0,0.0,0.0,-1.6785,-1.625,-1.5834,-1.5381,-1.4871,-1.5081,-1.5069,-1.4808,-1.5132,-1.5298,-1.5298,-1.5298,-1.5298,-1.5298,-1.5328,-1.5344,-1.5344,-1.5374,-1.5388,-1.5344,-1.5344,-1.5663,-1.624,-1.6924,-1.7939,-1.9087,-1.9453,-1.9624,-1.9624,-1.9453,-1.9606,-1.9899,-1.9899,-2.016,-2.0464,-2.0158,-1.9932,-1.9752,-1.9475,-1.9398,-1.9453,-1.9606,-1.9803,-2.0032,-2.0412,-2.0579,-2.0745,-2.1103,-2.1119,-2.1055,-2.1055,-2.099,-2.0942,-2.0942,-2.1006,-2.1071,-2.1183,-2.1262,-2.1293,-2.1293,-2.1293,-2.1293,-2.1293,-2.1293,-2.1293,-2.1293,-2.1293,-2.1309,-2.1356,-2.1371,-2.1494,-2.169,-2.1705,-2.1866,-2.2234,-2.2371,-2.2563,-2.2786,-2.2798,-2.2829,-2.2897,-2.2968,-2.3067,-2.3205,-2.3336,-2.3395,0.0,0.0,0.0,0.0,0.0,-2.1776,0.0,0.0,0.0,-2.0335,0.0,0.0,0.0,0.0,0.0,0.0,0.0,0.0,0.0,0.0,0.0,0.0,0.0,0.0,0.0,0.0,-1.6915,-1.6364,-1.6028,-1.549,-1.466,-1.5167,-1.523,-1.4713,-1.5086,-1.5298,-1.5298,-1.5298,-1.5298,-1.5298,-1.5298,-1.5298,-1.5298,-1.5298,-1.5298,-1.5298,-1.5298,-1.5573,-1.6097,-1.688,-1.7534,-1.8085,-1.8936,-1.9302,-1.9339,-1.9339,-1.9515,-1.974,-1.974,-1.9967,-2.0174,-1.9788,-1.9678,-1.9591,-1.9217,-1.9101,-1.9101,-1.9101,-1.9343,-1.9657,-2.0015,-2.0206,-2.041,-2.0811,-2.0811,-2.0728,-2.0728,-2.0728,-2.0745,-2.0745,-2.0745,-2.0811,-2.1006,-2.1135,-2.1214,-2.1262,-2.1246,-2.1262,-2.1293,-2.1293,-2.1293,-2.1293,-2.1293,-2.1293,-2.1293,-2.1356,-2.1371,-2.1371,-2.1371,-2.1524,-2.1868,-2.1911,-2.2096,-2.2459,-2.2436,-2.2453,-2.2567,-2.2426,-2.252,-2.282,-2.3114,-2.3223,0.0,0.0,0.0,0.0,-2.2092,0.0,0.0,0.0,-2.0449,-1.9454,0.0,0.0,0.0,0.0,0.0,0.0,0.0,0.0,0.0,0.0,0.0,0.0,0.0,0.0,0.0,0.0,0.0,-1.6726,-1.5832,-1.5106,-1.4711,-1.4872,-1.4799,-1.4362,-1.4963,-1.5298,-1.5298,-1.5298,-1.5298,-1.5298,-1.5298,-1.5298,-1.5298,-1.5298,-1.5298,-1.5298,-1.5298,-1.5327,-1.5502,-1.669,-1.7243,-1.7432,-1.8655,-1.912,-1.912,-1.912,-1.9157,-1.918,-1.918,-1.9217,-1.9254,-1.9213,-1.9195,-1.9176,-1.912,-1.9101,-1.9101,-1.9101,-1.9139,-1.9269,-1.9657,-1.9693,-1.9729,-2.0118,-2.0325,-2.0444,-2.0444,-2.0478,-2.0544,-2.0544,-2.0544,-2.0595,-2.0794,-2.0844,-2.0909,-2.1103,-2.1119,-2.1183,-2.1277,-2.1293,-2.1293,-2.1293,-2.1293,-2.1293,-2.1293,-2.1325,-2.1309,-2.1309,-2.1309,-2.1356,-2.1447,-2.1809,-2.2124,-2.2409,-2.2178,-2.2053,-2.2068,-2.194,-2.211,-2.2556,-2.2875,-2.2973,0.0,0.0,0.0,0.0,0.0,0.0,0.0,0.0,-2.1361,0.0,0.0,0.0,0.0,0.0,0.0,0.0,0.0,0.0,0.0,0.0,0.0,0.0,0.0,0.0,0.0,0.0,0.0,0.0,0.0,-1.5589,-1.5191,-1.5296,-1.5176,-1.4779,-1.5117,-1.5298,-1.5298,-1.5298,-1.5298,-1.5298,-1.5298,-1.5298,-1.5298,-1.5298,-1.5298,-1.5298,-1.5298,-1.5298,-1.537,-1.624,-1.6851,-1.7301,-1.8216,-1.8796,-1.9101,-1.9101,-1.9101,-1.9101,-1.9101,-1.9101,-1.9101,-1.9101,-1.9101,-1.9101,-1.9101,-1.9101,-1.9101,-1.9101,-1.9101,-1.9195,-1.9599,-1.9563,-1.9527,-1.9839,-1.9892,-1.9909,-2.0032,-2.0085,-2.0152,-2.034,-2.0222,-2.012,-2.0206,-2.0545,-2.0778,-2.0696,-2.0925,-2.1119,-2.1183,-2.1246,-2.1293,-2.1293,-2.1293,-2.1293,-2.1293,-2.1293,-2.1293,-2.1293,-2.1293,-2.1309,-2.134,-2.1494,-2.1675,-2.182,-2.172,-2.1691,-2.1768,-2.1631,-2.1675,-2.1878,-2.233,-2.251,-2.2827,0.0,0.0,0.0,0.0,0.0,0.0,0.0,0.0,0.0,0.0,0.0,0.0,0.0,0.0,0.0,0.0,0.0,0.0,0.0,0.0,0.0,0.0,0.0,0.0,0.0,0.0,0.0,0.0,0.0,-1.5649,-1.5808,-1.5729,-1.5268,-1.5448,-1.5472,-1.5298,-1.5298,-1.5298,-1.5298,-1.5298,-1.5298,-1.5298,-1.5298,-1.5298,-1.5298,-1.5298,-1.5298,-1.5341,-1.595,-1.6605,-1.7272,-1.794,-1.8579,-1.9101,-1.9101,-1.9101,-1.9101,-1.9101,-1.9101,-1.9101,-1.9101,-1.9101,-1.9101,-1.9101,-1.9101,-1.9101,-1.9101,-1.9101,-1.9176,-1.9472,-1.9398,-1.9339,-1.9497,-1.946,-1.9406,-1.9533,-1.9624,-1.9749,-2.0008,-1.9854,-1.966,-1.957,-2.0032,-2.0359,-2.0206,-2.0545,-2.0844,-2.0893,-2.1103,-2.1262,-2.1262,-2.1277,-2.1293,-2.1293,-2.1293,-2.1293,-2.1293,-2.1293,-2.1293,-2.1293,-2.1293,-2.1324,-2.1371,-2.1371,-2.1418,-2.1528,-2.1418,-2.1371,-2.1386,-2.188,-2.211,0.0,0.0,0.0,-2.303,0.0,0.0,0.0,0.0,-2.286,0.0,0.0,0.0,0.0,0.0,0.0,0.0,0.0,0.0,0.0,0.0,0.0,0.0,0.0,0.0,0.0,0.0,0.0,0.0,0.0,0.0,-1.599,-1.6304,-1.6224,-1.5691,-1.6008,-1.5892,-1.5312,-1.5298,-1.5298,-1.5298,-1.5298,-1.5298,-1.5298,-1.5298,-1.5298,-1.5298,-1.5298,-1.5298,-1.5341,-1.595,-1.6605,-1.7272,-1.794,-1.8579,-1.9101,-1.9101,-1.9101,-1.9101,-1.9101,-1.9101,-1.9101,-1.9101,-1.9101,-1.9101,-1.9101,-1.9101,-1.9101,-1.9101,-1.9101,-1.9101,-1.912,-1.9074,-1.8979,-1.8874,-1.8988,-1.9082,-1.8969,-1.9176,-1.9413,-1.9431,-1.9413,-1.9321,-1.8974,-1.9213,-1.949,-1.9594,-1.9909,-2.0204,-2.041,-2.0827,-2.1119,-2.1119,-2.1214,-2.1293,-2.1293,-2.1293,-2.1293,-2.1293,-2.1293,-2.1293,-2.1293,-2.1293,-2.1293,-2.1293,-2.1293,-2.1325,-2.1325,-2.1325,-2.1293,-2.1309,-2.1721,-2.184,0.0,0.0,-2.2764,-2.3032,0.0,0.0,0.0,0.0,0.0,0.0,0.0,0.0,0.0,0.0,0.0,0.0,0.0,0.0,0.0,0.0,0.0,0.0,0.0,0.0,0.0,0.0,0.0,0.0,0.0,0.0,0.0,-1.6506,-1.6462,-1.6043,-1.6138,-1.5968,-1.5493,-1.5378,-1.5298,-1.5298,-1.5298,-1.5298,-1.5298,-1.5298,-1.5298,-1.5298,-1.5298,-1.5298,-1.5312,-1.5515,-1.5965,-1.6605,-1.7287,-1.794,-1.855,-1.8956,-1.9101,-1.9101,-1.9101,-1.9101,-1.9101,-1.9101,-1.9101,-1.9101,-1.9101,-1.9101,-1.9101,-1.9101,-1.9101,-1.9101,-1.9101,-1.9055,-1.8974,-1.8822,-1.8817,-1.8851,-1.8893,-1.8988,-1.912,-1.9358,-1.9213,-1.9064,-1.9045,-1.8908,-1.8889,-1.9109,-1.95,-1.9806,-1.9925,-2.0156,-2.0345,-2.0427,-2.0478,-2.0513,-2.0564,-2.0564,-2.068,-2.0958,-2.0974,-2.1071,-2.1293,-2.1293,-2.1293,-2.1293,-2.1293,-2.1293,-2.1293,-2.1293,-2.1293,-2.1293,-2.1449,-2.148,-2.2747,-2.2695,0.0,-2.3032,-2.2975,0.0,-2.366,0.0,0.0,0.0,0.0,0.0,0.0,0.0,0.0,0.0,0.0,0.0,0.0,0.0,0.0,0.0,0.0,0.0,0.0,0.0,-1.8074,-1.7659,0.0,0.0,0.0,0.0,-1.683,-1.6448,-1.6588,-1.6329,-1.5605,-1.5473,-1.5377,-1.5298,-1.5298,-1.5298,-1.5298,-1.5298,-1.5298,-1.5298,-1.5298,-1.5298,-1.5298,-1.5298,-1.566,-1.6271,-1.6938,-1.7621,-1.8274,-1.8883,-1.9101,-1.9101,-1.9101,-1.9101,-1.9101,-1.9101,-1.9101,-1.9101,-1.9101,-1.9101,-1.9101,-1.9101,-1.9101,-1.9101,-1.9101,-1.9055,-1.8974,-1.8822,-1.8755,-1.8711,-1.8755,-1.876,-1.8817,-1.904,-1.8908,-1.8779,-1.8874,-1.8697,-1.8634,-1.8798,-1.9128,-1.9372,-1.9457,-1.9717,-1.9912,-2.0045,-2.01,-2.0154,-2.0191,-2.0191,-2.0378,-2.0778,-2.0794,-2.0958,-2.1294,-2.1293,-2.1293,-2.1293,-2.1293,-2.1293,-2.1293,-2.1293,-2.1293,-2.1293,-2.1293,-2.1293]},{"header":{"parameterUnit":"m.s-1","parameterCategory":1,"la1":30.6,"la2":29.2853,"lo1":-89.7004,"lo2":-87.6739,"dy":0.0162,"dx":0.0183,"nx":112,"ny":82,"refTime":"2024-07-23T12:00:00:Z","depth":0,"parameterNumber":3,"parameterNumberName":"V-component_of_WINDS"},"data":[0.0,0.0,0.0,0.0,0.0,0.0,0.0,0.0,0.0,0.0,0.0,0.0,0.0,0.0,0.0,0.0,0.0,0.0,0.0,0.0,0.0,0.0,0.0,0.0,0.0,0.0,0.0,0.0,0.0,0.0,0.0,0.0,0.0,0.0,0.0,0.0,0.0,0.0,0.0,0.0,0.0,0.0,0.0,0.0,0.0,0.0,0.0,0.0,0.0,0.0,0.0,0.0,0.0,0.0,0.0,0.0,0.0,0.0,0.0,0.0,0.0,0.0,0.0,0.0,0.0,0.0,0.0,0.0,0.0,0.0,0.0,0.0,0.0,0.0,0.0,0.0,0.0,0.0,0.0,0.0,0.0,0.0,0.0,0.0,0.0,0.0,0.0,0.0,0.0,0.0,0.0,-0.1403,-0.25,-0.3231,-0.3357,-0.4156,-0.4582,-0.4406,0.0,0.0,0.0,0.0,0.0,0.0,0.0,0.0,0.0,0.0,0.0,0.0,0.0,0.0,0.0,0.0,0.0,0.0,0.0,0.0,0.0,0.0,0.0,0.0,0.0,0.0,0.0,0.0,0.0,0.0,0.0,0.0,0.0,0.0,0.0,0.0,0.0,0.0,0.0,0.0,0.0,0.0,0.0,0.0,0.0,0.0,0.0,0.0,0.0,0.0,0.0,0.0,0.0,0.0,0.0,0.0,0.0,0.0,0.0,0.0,0.0,0.0,0.0,0.0,0.0,0.0,0.0,0.0,0.0,0.0,0.0,0.0,0.0,0.0,0.0,0.0,0.0,0.0,0.0,0.0,0.0,0.0,0.0,0.0,0.0,0.0,0.0,0.0,0.0,0.0,0.0,0.0,0.0,0.0,0.0,0.0,0.0,0.0,0.0,0.0,0.0,0.0,0.0,0.0,-0.2078,-0.2799,-0.306,-0.3469,-0.4064,-0.4531,-0.4679,-0.4406,0.0,0.0,0.0,0.0,0.0,0.0,0.0,0.0,0.0,0.0,0.0,0.0,0.0,0.0,0.0,0.0,0.0,0.0,0.0,0.0,0.0,0.0,0.0,0.0,0.0,0.0,0.0,0.0,0.0,0.0,0.0,0.0,0.0,0.0,0.0,0.0,0.0,0.0,0.0,0.0,0.0,0.0,0.0,0.0,0.0,0.0,0.0,0.0,0.0,0.0,0.0,0.0,0.0,0.0,0.0,0.0,0.0,0.0,0.0,0.0,0.0,0.0,0.0,0.0,0.0,0.0,0.0,0.0,0.0,0.0,0.0,0.0,0.0,0.0,0.0,0.0,0.0,0.0,0.0,0.0,0.0,0.0,0.0,0.0,0.0,0.0,0.0,0.0,0.0,0.0,0.0,0.0,0.0,0.0,0.0,0.0,0.0,0.0,0.0,0.0,0.0,0.0,0.0,-0.2502,-0.2853,-0.3709,-0.3792,-0.3928,-0.4267,-0.4597,-0.4679,-0.4406,-0.4637,0.0,0.0,0.0,0.0,0.0,0.0,0.0,0.0,0.0,0.0,0.0,0.0,0.0,0.0,0.0,0.0,0.0,0.0,0.0,0.0,0.0,0.0,0.0,0.0,0.0,0.0,0.0,0.0,0.0,0.0,0.0,0.0,0.0,0.0,0.0,0.0,0.0,0.0,0.0,0.0,0.0,0.0,0.0,0.0,0.0,0.0,0.0,0.0,0.0,0.0,0.0,0.0,0.0,0.0,0.0,0.0,0.0,0.0,0.0,0.0,0.0,0.0,0.0,0.0,0.0,0.0,0.0,0.0,0.0,0.0,0.0,0.0,0.0,0.0,0.0,0.0,0.0,0.0,0.0,0.0,0.0,0.0,0.0,0.0,0.0,0.0,0.0,0.0,0.0,0.0,0.0,0.0,0.0,0.0,0.0,0.0,0.0,0.0,0.0,0.0,0.0,0.0,-0.3157,-0.3507,-0.4223,-0.43,-0.4289,-0.4259,-0.4551,-0.4633,-0.436,-0.468,0.0,0.0,0.0,0.0,0.0,0.0,0.0,0.0,0.0,0.0,0.0,0.0,0.0,0.0,0.0,0.0,0.0,0.0,0.0,0.0,0.0,0.0,0.0,0.0,0.0,0.0,0.0,0.0,0.0,0.0,0.0,0.0,0.0,0.0,0.0,0.0,0.0,0.0,0.0,0.0,0.0,0.0,0.0,0.0,0.0,0.0,0.0,0.0,0.0,0.0,0.0,0.0,0.0,0.0,0.0,0.0,0.0,0.0,0.0,0.0,0.0,0.0,0.0,0.0,0.0,0.0,0.0,0.0,0.0,0.0,0.0,0.0,0.0,0.0,0.0,0.0,0.0,0.0,0.0,0.0,0.0,0.0,0.0,0.0,0.0,0.0,0.0,0.0,0.0,0.0,0.0,0.0,0.0,0.0,0.0,0.0,0.0,0.0,0.0,0.0,0.0,0.0,-0.3818,-0.402,-0.4264,-0.43,-0.4254,-0.414,-0.4417,-0.4494,-0.423,-0.4533,0.0,0.0,0.0,0.0,0.0,0.0,0.0,0.0,0.0,0.0,0.0,0.0,0.0,0.0,0.0,0.0,0.0,0.0,0.0,0.0,0.0,0.0,0.0,0.0,0.0,0.0,0.0,0.0,0.0,0.0,0.0,0.0,0.0,0.0,0.0,0.0,0.0,0.0,0.0,0.0,0.0,0.0,0.0,0.0,0.0,0.0,0.0,0.0,0.0,0.0,0.0,0.0,0.0,0.0,0.0,0.0,0.0,0.0,0.0,0.0,0.0,0.0,0.0,0.0,0.0,0.0,0.0,0.0,0.0,0.0,0.0,0.0,0.0,0.0,0.0,0.0,0.0,0.0,0.0,0.0,0.0,0.0,0.0,0.0,0.0,0.0,0.0,0.0,0.0,0.0,0.0,0.0,0.0,0.0,0.0,0.0,0.0,0.0,0.0,0.0,0.0,0.0,-0.3633,-0.3773,0.0,-0.404,-0.4021,-0.3976,-0.4281,-0.4391,-0.4209,0.0,0.0,0.0,0.0,0.0,0.0,0.0,0.0,0.0,0.0,0.0,0.0,0.0,0.0,0.0,0.0,0.0,0.0,0.0,0.0,0.0,0.0,0.0,0.0,0.0,0.0,0.0,0.0,0.0,0.0,0.0,0.0,0.0,0.0,0.0,0.0,0.0,0.0,0.0,0.0,0.0,0.0,0.0,0.0,0.0,0.0,0.0,0.0,0.0,0.0,0.0,0.0,0.0,0.0,0.0,0.0,0.0,0.0,0.0,0.0,0.0,0.0,0.0,0.0,0.0,0.0,0.0,0.0,0.0,0.0,0.0,0.0,0.0,0.0,0.0,0.0,0.0,0.0,0.0,0.0,0.0,0.0,0.0,0.0,0.0,0.0,0.0,0.0,0.0,0.0,0.0,0.0,0.0,0.0,0.0,0.0,0.0,0.0,0.0,0.0,0.0,0.0,-0.3401,-0.347,-0.3577,0.0,-0.3903,-0.3889,-0.3879,-0.415,-0.4272,-0.4142,0.0,0.0,0.0,0.0,0.0,0.0,0.0,0.0,0.0,0.0,0.0,0.0,0.0,0.0,0.0,0.0,0.0,0.0,0.0,0.0,0.0,0.0,0.0,0.0,0.0,0.0,0.0,0.0,0.0,0.0,0.0,0.0,0.0,0.0,0.0,0.0,0.0,0.0,0.0,0.0,0.0,0.0,0.0,0.0,0.0,0.0,0.0,0.0,0.0,0.0,0.0,0.0,0.0,0.0,0.0,0.0,0.0,0.0,0.0,0.0,0.0,0.0,0.0,0.0,0.0,0.0,0.0,0.0,0.0,0.0,0.0,0.0,0.0,0.0,0.0,0.0,0.0,0.0,0.0,0.0,0.0,0.0,0.0,0.0,0.0,0.0,0.0,0.0,0.0,0.0,0.0,0.0,0.0,0.0,0.0,0.0,0.0,0.0,0.0,0.0,0.0,0.0,-0.326,-0.335,-0.3536,-0.387,-0.39,-0.3882,-0.3791,-0.4048,-0.4139,0.0,0.0,0.0,0.0,0.0,0.0,0.0,0.0,0.0,0.0,0.0,0.0,0.0,0.0,0.0,0.0,0.0,0.0,0.0,0.0,0.0,0.0,0.0,0.0,0.0,0.0,0.0,0.0,0.0,0.0,0.0,0.0,0.0,0.0,0.0,0.0,0.0,0.0,0.0,0.0,0.0,0.0,0.0,0.0,0.0,0.0,0.0,0.0,0.0,0.0,0.0,0.0,0.0,0.0,0.0,0.0,0.0,0.0,0.0,0.0,0.0,0.0,0.0,0.0,0.0,0.0,0.0,0.0,0.0,0.0,0.0,0.0,0.0,0.0,0.0,0.0,0.0,0.0,0.0,0.0,0.0,0.0,0.0,0.0,0.0,0.0,0.0,0.0,0.0,0.0,0.0,0.0,0.0,0.0,0.0,0.0,0.0,0.0,0.0,0.0,0.0,0.0,0.0,-0.3121,-0.3178,-0.3311,-0.3657,-0.3689,-0.3672,-0.3665,-0.3829,-0.3952,-0.3996,0.0,0.0,0.0,0.0,0.0,0.0,0.0,0.0,0.0,0.0,0.0,0.0,0.0,0.0,0.0,0.0,0.0,0.0,0.0,0.0,0.0,0.0,0.0,0.0,0.0,0.0,0.0,0.0,0.0,0.0,0.0,0.0,0.0,0.0,0.0,0.0,0.0,0.0,0.0,0.0,0.0,0.0,0.0,0.0,0.0,0.0,0.0,0.0,0.0,0.0,0.0,0.0,0.0,0.0,0.0,0.0,0.0,0.0,0.0,0.0,0.0,0.0,0.0,0.0,0.0,0.0,0.0,0.0,0.0,0.0,0.0,0.0,0.0,0.0,0.0,0.0,0.0,0.0,0.0,0.0,0.0,0.0,0.0,0.0,0.0,0.0,0.0,0.0,0.0,0.0,0.0,0.0,0.0,0.0,0.0,0.0,0.0,0.0,0.0,0.0,0.0,0.0,-0.3077,-0.3102,-0.3216,-0.3555,-0.3613,-0.3613,-0.3613,-0.3716,-0.3852,-0.3993,0.0,0.0,0.0,0.0,0.0,0.0,0.0,0.0,0.0,0.0,0.0,0.0,0.0,0.0,0.0,0.0,0.0,0.0,0.0,0.0,0.0,0.0,0.0,0.0,0.0,0.0,0.0,0.0,0.0,0.0,0.0,0.0,0.0,0.0,0.0,0.0,0.0,0.0,0.0,0.0,0.0,0.0,0.0,0.0,0.0,0.0,0.0,0.0,0.0,0.0,0.0,0.0,0.0,0.0,0.0,0.0,0.0,0.0,0.0,0.0,0.0,0.0,0.0,0.0,0.0,0.0,0.0,0.0,0.0,0.0,0.0,0.0,0.0,0.0,0.0,0.0,0.0,0.0,0.0,0.0,0.0,0.0,0.0,0.0,0.0,0.0,0.0,0.0,0.0,0.0,0.0,0.0,0.0,0.0,0.0,0.0,0.0,0.0,0.0,0.0,0.0,0.0,-0.3049,-0.3102,-0.3216,-0.3555,-0.3583,-0.3613,-0.3613,-0.3716,-0.3827,-0.3965,0.0,0.0,0.0,0.0,0.0,0.0,0.0,0.0,0.0,0.0,0.0,0.0,0.0,0.0,0.0,0.0,0.0,0.0,0.0,0.0,0.0,0.0,0.0,0.0,0.0,0.0,0.0,0.0,0.0,0.0,0.0,0.0,0.0,0.0,0.0,0.0,0.0,0.0,0.0,0.0,0.0,0.0,0.0,0.0,0.0,0.0,0.0,0.0,0.0,0.0,0.0,0.0,0.0,0.0,0.0,0.0,0.0,0.0,0.0,0.0,0.2591,0.0,0.0,0.0,0.0,0.0,0.0,0.0,0.0,0.0,0.0,0.0,0.0,0.0,0.0,0.0,0.0,0.0,0.0,0.0,0.0,0.0,0.0,0.0,0.0,0.0,0.0,0.0,0.0,0.0,0.0,0.0,0.0,0.0,0.0,0.0,0.0,0.0,0.0,0.0,0.0,0.0,-0.2914,-0.3021,-0.3188,-0.3413,-0.3527,-0.3613,-0.3613,-0.3638,-0.3691,-0.3824,0.0,0.0,0.0,0.0,0.0,0.0,0.0,0.0,0.0,0.0,0.0,0.0,0.0,0.0,0.0,0.0,0.0,0.0,0.0,0.0,0.0,0.0,0.0,0.0,0.0,0.0,0.0,0.0,0.0,0.0,0.0,0.0,0.0,0.0,0.0,0.0,0.0,0.0,0.0,0.0,0.0,0.0,0.0,0.0,0.0,0.0,0.0,0.0,0.0,0.0,0.0,0.0,0.0,0.0,0.0,0.0,0.0,0.0,0.0,0.0,0.0,0.2686,0.0,0.0,0.0,0.0,0.0,0.0,0.0,0.0,0.0,0.0,0.0,0.0,0.0,0.0,0.0,0.0,0.0,0.0,0.0,0.0,0.0,0.0,0.0,0.0,0.0,0.0,0.0,0.0,0.0,0.0,0.0,0.0,0.0,0.0,0.0,0.0,0.0,0.0,0.0,0.0,-0.2888,-0.3023,-0.3188,-0.3385,-0.3527,-0.3613,-0.3613,-0.3613,-0.3663,-0.3796,-0.3852,0.0,0.0,0.0,0.0,0.0,0.0,0.0,0.0,0.0,0.0,0.0,0.0,0.0,0.0,0.0,0.0,0.0,0.0,0.0,0.0,0.0,0.0,0.0,0.0,0.0,0.0,0.0,0.0,0.0,0.0,0.0,0.0,0.0,0.0,0.0,0.0,0.0,0.0,0.0,0.0,0.0,0.0,0.0,0.0,0.0,0.0,0.0,0.0,0.0,0.0,0.0,0.0,0.0,0.4928,0.4913,0.4523,0.4526,0.4828,0.5272,0.4479,0.3974,0.3638,0.0,0.0,0.0,0.0,0.0,0.0,0.0,0.0,0.0,0.0,0.0,0.0,0.0,0.0,0.0,0.0,0.0,0.0,0.0,0.0,0.0,0.0,0.0,0.0,0.0,-0.1246,-0.1105,0.0,0.0,0.0,0.0,0.0,0.0,0.0,0.0,0.0,0.0,0.0,0.0,-0.286,-0.2996,-0.316,-0.333,-0.3499,-0.3613,-0.3613,-0.3613,-0.3638,-0.3771,-0.3796,-0.386,0.0,0.0,0.0,0.0,0.0,0.0,0.0,0.0,0.0,0.0,0.0,0.0,0.0,0.0,0.0,0.0,0.0,0.0,0.0,0.0,0.0,0.0,0.0,0.0,0.0,0.0,0.0,0.0,0.0,0.0,0.0,0.0,0.6476,0.6369,0.0,0.0,0.0,0.0,0.0,0.0,0.0,0.0,0.0,0.0,0.0,0.0,0.0,0.0,0.4553,0.548,0.5956,0.5959,0.6753,0.6935,0.6592,0.6604,0.6467,0.6214,0.5967,0.0,0.3617,0.2745,0.0,0.0,0.0,0.0,0.0,0.0,0.0,0.0,0.0,0.0,0.0,0.0,0.0,0.0,0.0,0.0,0.0,0.0,0.0,0.0,0.0,0.0,0.0705,-0.006,-0.0623,-0.1176,0.0,-0.2502,-0.2968,-0.2968,0.0,0.0,0.0,0.0,0.0,0.0,0.0,0.0,-0.2719,-0.2938,-0.3102,-0.313,-0.3413,-0.3613,-0.3613,-0.3613,-0.3613,-0.3638,-0.3744,-0.3815,-0.3828,-0.3929,0.0,0.0,0.0,0.0,0.0,0.0,0.0,0.0,0.0,0.0,0.0,0.0,0.0,0.0,0.0,0.0,0.0,0.0,0.0,0.0,0.0,0.0,0.0,0.0,0.0,0.0,0.0,0.0,0.0,0.6565,0.6871,0.6231,0.6559,0.656,0.0,0.0,0.0,0.0,0.0,0.0,0.0,0.0,0.0,0.5777,0.5931,0.6077,0.6227,0.6678,0.6946,0.6946,0.7195,0.7204,0.6984,0.6886,0.6668,0.6387,0.6247,0.5477,0.4243,0.3372,0.2241,0.1054,0.0,0.0,0.0,0.0,0.0,0.0971,0.0957,0.0952,0.0,0.0,0.0,0.0,0.0,0.0,0.0,0.0,0.0,0.0,0.0,0.0,0.0,-0.0483,-0.1056,-0.1703,-0.2404,-0.2797,-0.3015,0.0,-0.2885,-0.2782,-0.2758,0.0,0.0,0.0,0.0,0.0,-0.2691,-0.2856,-0.3023,-0.3102,-0.333,-0.3527,-0.3585,-0.3613,-0.3613,-0.3613,-0.3663,-0.3716,-0.3796,-0.3852,-0.3938,0.0,0.0,0.0,0.0,0.0,0.0,0.0,0.0,0.0,0.0,0.0,0.0,0.0,0.0,0.0,0.0,0.0,0.0,0.0,0.0,0.0,0.0,0.0,0.0,0.0,0.0,0.0,0.0,0.7109,0.7461,0.631,0.7104,0.7284,0.0,0.0,0.0,0.0,0.0,0.0,0.66,0.6647,0.6825,0.7127,0.7214,0.7354,0.748,0.7484,0.7484,0.748,0.7305,0.7131,0.6984,0.6804,0.6591,0.6387,0.6247,0.5683,0.4815,0.3885,0.2649,0.1343,0.1134,0.1052,0.1,0.0993,0.1013,0.1003,0.0994,0.0987,0.1001,0.1008,0.0,0.0622,0.0143,0.0,0.0,0.0,0.0,-0.057,-0.0117,0.0,-0.0767,-0.1108,-0.1573,-0.21,-0.28,-0.2952,-0.2958,0.0,-0.2885,-0.2776,-0.2738,0.0,0.0,0.0,0.0,-0.2691,-0.2691,-0.2805,-0.2942,-0.3077,-0.3272,-0.3444,-0.3583,-0.3613,-0.3613,-0.3613,-0.3613,-0.3638,-0.3744,-0.3744,-0.3799,-0.3938,0.0,0.0,0.0,0.0,0.0,0.0,0.0,0.0,0.0,0.0,0.0,0.0,0.0,0.0,0.0,0.0,0.0,0.0,0.0,0.0,0.0,0.0,0.0,0.0,0.0,0.0,0.0,0.0,0.0,0.7127,0.7678,0.0,0.0,0.0,0.0,0.6686,0.6857,0.7005,0.7151,0.7163,0.7244,0.7464,0.7468,0.7476,0.7484,0.7484,0.7484,0.748,0.7305,0.7131,0.6984,0.6796,0.6583,0.6387,0.6247,0.5782,0.4987,0.3954,0.2917,0.1975,0.1274,0.1002,0.0998,0.1001,0.1008,0.0999,0.1,0.1,0.1003,0.1063,0.0676,0.0122,0.003,-0.043,0.0,0.0,-0.0059,-0.0029,0.0,-0.0029,-0.0321,-0.1473,-0.1843,-0.2062,-0.2685,-0.2804,-0.2858,0.0,-0.2885,-0.2796,-0.2792,0.0,-0.2691,-0.2691,-0.2691,-0.2691,-0.2691,-0.2805,-0.2942,-0.3077,-0.3272,-0.3444,-0.3583,-0.3613,-0.3613,-0.3613,-0.3613,-0.3613,-0.3613,-0.361,-0.3666,-0.3796,-0.3852,0.0,0.0,0.0,0.0,0.0,0.0,0.0,0.0,0.0,0.0,0.0,0.0,0.0,0.0,0.0,0.0,0.0,0.0,0.0,0.0,0.0,0.0,0.0,0.0,0.0,0.0,0.0,0.0,0.813,0.8754,0.0,0.696,0.6928,0.7033,0.7029,0.7192,0.7359,0.7387,0.7391,0.7476,0.7694,0.7584,0.758,0.7698,0.758,0.7427,0.7317,0.7135,0.6992,0.6816,0.6595,0.6477,0.6387,0.635,0.6115,0.5749,0.4885,0.3651,0.2246,0.186,0.1457,0.1059,0.1048,0.1052,0.1061,0.1061,0.1061,0.1056,0.1029,0.0836,0.0625,0.0576,0.0424,0.0309,0.0512,0.0571,0.0485,0.0114,-0.0285,-0.0794,-0.1598,-0.2118,-0.248,-0.2681,-0.274,-0.2748,-0.2807,-0.276,-0.274,-0.274,-0.2713,-0.2691,-0.2691,-0.2691,-0.2691,-0.2691,-0.2747,-0.283,-0.297,-0.3107,-0.3272,-0.3444,-0.3555,-0.3613,-0.3613,-0.3613,-0.3613,-0.3613,-0.3613,-0.361,-0.3663,-0.3663,-0.3802,0.0,0.0,0.0,0.0,0.0,0.0,0.0,0.0,0.0,0.0,0.0,0.0,0.0,0.0,0.0,0.0,0.0,0.0,0.0,0.0,0.0,0.0,0.0,0.0,0.0,0.0,1.0522,0.8819,0.9434,0.9244,0.7347,0.7241,0.7313,0.7313,0.7419,0.7484,0.7484,0.7484,0.7575,0.7702,0.7584,0.758,0.7706,0.7488,0.7338,0.7187,0.698,0.6841,0.6688,0.6505,0.6387,0.6387,0.6387,0.635,0.6214,0.5683,0.4616,0.3251,0.248,0.1913,0.1511,0.121,0.1109,0.1109,0.1109,0.1069,0.1055,0.108,0.1068,0.0998,0.1062,0.1019,0.0954,0.0954,0.0926,0.0757,0.0168,-0.0448,-0.1062,-0.1649,-0.2268,-0.2691,-0.2691,-0.2691,-0.2691,-0.2691,-0.2691,-0.2691,-0.2691,-0.2691,-0.2691,-0.2691,-0.2691,-0.2691,-0.2691,-0.2691,-0.2747,-0.2888,-0.297,-0.3132,-0.3385,-0.3471,-0.3555,-0.3585,-0.3613,-0.3613,-0.3613,-0.3613,-0.3613,-0.3613,-0.3613,-0.3613,-0.3613,0.0,0.0,0.0,0.0,0.0,0.0,0.0,0.0,0.0,0.0,0.0,0.0,0.0,0.0,0.0,0.0,0.0,0.0,0.0,0.0,0.0,0.0,0.0,1.0308,1.1241,1.1265,0.9146,0.9688,0.9505,0.7723,0.753,0.7476,0.7484,0.748,0.7476,0.7484,0.7484,0.7484,0.7492,0.7484,0.7484,0.7484,0.7313,0.7183,0.7167,0.6863,0.6692,0.668,0.6501,0.6387,0.6387,0.6387,0.6387,0.6383,0.6247,0.5782,0.4954,0.3151,0.2417,0.2316,0.1445,0.1109,0.1108,0.1106,0.1055,0.1032,0.1225,0.1271,0.1239,0.1355,0.1268,0.1096,0.1095,0.101,0.0757,0.0168,-0.042,-0.1034,-0.1649,-0.224,-0.2691,-0.2691,-0.2691,-0.2691,-0.2691,-0.2691,-0.2691,-0.2691,-0.2691,-0.2691,-0.2691,-0.2691,0.0,-0.2691,-0.2691,-0.2747,-0.2888,-0.2916,-0.3026,-0.3357,-0.3413,-0.3471,-0.3583,-0.3613,-0.3613,-0.3613,-0.3613,-0.3613,-0.3613,-0.3613,-0.3613,-0.3583,0.0,0.0,0.0,0.0,0.0,0.0,0.0,0.0,0.0,0.0,0.0,0.0,0.0,0.0,0.0,0.0,0.0,0.0,0.0,0.0,0.0,0.0,1.2156,1.1883,1.2334,1.2311,1.1245,1.0701,0.9943,0.8694,0.7789,0.7346,0.7476,0.7366,0.735,0.7476,0.7484,0.7584,0.7718,0.7592,0.7484,0.7484,0.7313,0.7062,0.6838,0.6741,0.6627,0.6493,0.6407,0.6387,0.6387,0.6387,0.6387,0.6387,0.635,0.6218,0.5851,0.4087,0.3088,0.2519,0.1747,0.1427,0.1397,0.1338,0.1291,0.1309,0.1341,0.1397,0.1392,0.1356,0.1323,0.1302,0.1272,0.115,0.0898,0.0308,-0.0056,-0.0504,-0.1539,-0.193,-0.2155,-0.2605,-0.2691,-0.2691,-0.2691,-0.2691,-0.2691,-0.2691,-0.2691,-0.2691,-0.2691,-0.2691,0.0,-0.2691,-0.2691,-0.2747,-0.2888,-0.2998,-0.3077,-0.3188,-0.3413,-0.3527,0.0,-0.3555,-0.3613,-0.3613,-0.3613,-0.3613,-0.3613,-0.3613,-0.3555,0.0,0.0,0.0,0.0,0.0,0.0,0.0,0.0,0.0,0.0,0.0,0.0,0.0,0.0,0.0,0.0,0.0,0.0,0.0,0.0,0.0,0.0,1.2182,1.2775,1.2914,1.298,1.2749,1.2005,1.119,1.0363,0.9427,0.8374,0.7742,0.7805,0.7418,0.7236,0.7298,0.7298,0.7347,0.7457,0.7355,0.7298,0.7298,0.7086,0.6895,0.6696,0.6615,0.6522,0.6387,0.6387,0.6387,0.0,0.6387,0.6387,0.6387,0.6387,0.6387,0.0,0.0,0.0,0.0,0.0,0.1525,0.1453,0.1429,0.1409,0.142,0.1454,0.151,0.1535,0.1505,0.1508,0.1467,0.1439,0.1319,0.1094,0.0673,0.0336,-0.0112,-0.0868,-0.123,-0.1593,-0.2184,-0.2324,-0.2408,-0.2663,0.0,0.0,-0.2691,-0.2691,-0.2691,-0.2691,-0.2691,-0.2691,0.0,-0.2691,-0.2719,-0.2805,-0.2884,-0.2965,-0.3023,-0.3193,0.0,0.0,0.0,-0.3527,-0.3613,-0.3613,0.0,0.0,0.0,0.0,0.0,0.0,0.0,0.0,-0.3102,-0.3205,0.0,0.0,0.0,0.0,0.0,0.0,0.0,0.0,0.0,0.0,0.0,0.0,0.0,0.0,0.0,0.0,1.2602,1.3148,1.3404,1.3162,1.2684,1.2035,1.1388,1.0723,0.9997,0.9112,0.8497,0.8252,0.7654,0.7207,0.7032,0.0,0.0,0.0,0.0,0.7015,0.6995,0.6826,0.674,0.6732,0.6531,0.6416,0.6416,0.642,0.6387,0.6387,0.6387,0.6387,0.6387,0.6387,0.6404,0.6289,0.5427,0.4596,0.3718,0.2191,0.1569,0.0,0.0,0.0,0.0,0.1583,0.1614,0.1664,0.177,0.1717,0.1636,0.163,0.1487,0.1319,0.1178,0.0729,0.0252,0.0056,-0.0392,-0.095,-0.1566,-0.1706,-0.1874,-0.2493,-0.2605,-0.2607,-0.2635,-0.2663,-0.2691,-0.2691,-0.2691,0.0,-0.2691,-0.2691,-0.2719,-0.2719,0.0,0.0,-0.2888,-0.2916,-0.297,-0.3077,-0.3272,-0.3413,-0.3527,-0.3555,-0.3555,-0.3555,-0.3555,-0.3471,-0.333,-0.3297,-0.3177,-0.3012,-0.3129,-0.3223,0.0,0.0,0.0,0.0,0.0,0.0,0.0,0.0,0.0,0.0,0.0,0.0,0.0,0.0,0.0,1.2517,1.298,1.3331,1.3133,1.2819,1.264,1.2762,1.1736,1.093,1.0792,0.9782,0.8936,0.8488,0.8066,0.7634,0.7189,0.7055,0.0,0.6988,0.7091,0.7091,0.691,0.7039,0.7013,0.6871,0.0,0.0,0.6642,0.6482,0.6387,0.6387,0.6387,0.6387,0.6387,0.6387,0.6331,0.6165,0.5396,0.4338,0.3223,0.2717,0.2235,0.1805,0.1732,0.171,0.173,0.1758,0.1809,0.1828,0.1811,0.1828,0.0,0.1781,0.1657,0.1543,0.1515,0.1206,0.0785,0.028,0.0,-0.0336,-0.095,-0.1062,-0.1257,-0.1846,-0.1987,-0.2043,-0.2268,-0.2521,-0.2691,-0.2691,-0.2691,-0.2691,-0.2691,-0.2691,-0.2747,-0.286,-0.286,-0.286,-0.2888,-0.2996,-0.3023,-0.2942,-0.3079,-0.316,-0.3188,-0.3188,-0.3188,-0.3188,-0.3188,-0.3135,-0.3,-0.3038,-0.3034,-0.2988,-0.3038,-0.3065,0.0,0.0,0.0,0.0,0.0,0.0,0.0,0.0,0.0,0.0,0.0,1.4409,1.3623,0.0,1.4873,1.3771,1.3793,1.3744,1.3242,1.2626,1.2302,1.247,1.1796,1.1311,1.1311,1.0441,0.9777,0.9438,0.8604,0.7967,0.7623,0.7193,0.6962,0.6962,0.7027,0.7014,0.689,0.6986,0.7005,0.6913,0.6843,0.6778,0.6708,0.6609,0.6482,0.6387,0.6387,0.6387,0.6387,0.6387,0.631,0.6167,0.5674,0.4846,0.3851,0.3411,0.2847,0.2288,0.2252,0.2046,0.1797,0.1797,0.1816,0.1834,0.1805,0.1816,0.1834,0.1805,0.1741,0.1685,0.1628,0.1487,0.1262,0.0842,0.0701,0.0477,-0.0112,-0.0252,-0.042,-0.0978,-0.109,-0.1146,-0.1285,-0.1426,-0.1762,-0.2352,-0.2437,-0.2521,-0.2691,-0.2691,-0.2719,-0.2802,-0.2805,-0.2805,-0.2805,-0.2856,-0.2912,-0.2888,-0.297,-0.3021,-0.3102,-0.3102,-0.3102,-0.3102,-0.3102,-0.3021,-0.2888,-0.298,-0.2962,-0.2893,-0.3012,-0.3071,0.0,0.0,0.0,0.0,0.0,0.0,0.0,0.0,1.4797,1.4824,1.5507,1.5908,1.5338,1.6059,1.6385,1.5215,1.4693,1.4207,1.3504,1.2636,1.2014,1.1916,1.1714,1.1591,1.1591,1.1077,1.0626,1.0358,0.9281,0.8513,0.8258,0.7521,0.7106,0.7106,0.7007,0.6946,0.6946,0.7012,0.7007,0.7007,0.6975,0.6909,0.6806,0.6741,0.6609,0.6449,0.6416,0.6396,0.6367,0.6367,0.6237,0.6057,0.5918,0.5424,0.4747,0.409,0.337,0.2708,0.2708,0.2296,0.1797,0.1797,0.1797,0.1797,0.1797,0.1797,0.1797,0.1797,0.1797,0.1769,0.1657,0.1628,0.1572,0.1403,0.1319,0.1178,0.0673,0.0589,0.042,-0.014,-0.0252,-0.0252,-0.0307,-0.0335,-0.0699,-0.1818,-0.2043,-0.2212,-0.2549,-0.2663,-0.2691,-0.2691,-0.2691,-0.2691,-0.2691,-0.2691,-0.2747,-0.286,-0.286,-0.2914,-0.3021,-0.3021,-0.3021,-0.3021,-0.3021,-0.2968,-0.286,-0.2903,-0.2892,-0.28,-0.2973,-0.3097,1.4709,1.4294,1.4193,1.511,1.4659,1.4306,0.0,0.0,1.5474,1.5711,1.6262,1.6558,1.6059,1.6373,1.6568,1.6182,1.5299,1.4468,1.3906,1.2947,1.2094,1.1679,1.1613,1.1591,1.1591,1.1534,1.1189,1.0516,1.0212,0.9792,0.918,0.835,0.7864,0.7864,0.7423,0.7171,0.7171,0.733,0.7423,0.7423,0.7265,0.7171,0.7134,0.6839,0.6675,0.6642,0.6482,0.6327,0.6208,0.6208,0.6008,0.5669,0.5649,0.5478,0.5159,0.4626,0.3694,0.2708,0.2708,0.2296,0.1797,0.1797,0.1797,0.1797,0.1797,0.1797,0.1797,0.1797,0.1797,0.1797,0.1769,0.1685,0.16,0.1572,0.1431,0.129,0.1206,0.1206,0.101,0.0421,0.0308,0.0224,0.0,-0.0056,-0.0308,-0.109,-0.1482,-0.1818,-0.2212,-0.2521,-0.2691,-0.2691,-0.2691,-0.2691,-0.2691,-0.2691,-0.2719,-0.2719,-0.2719,-0.2719,-0.2747,-0.2747,-0.2747,-0.2747,-0.2747,-0.2747,-0.2719,-0.2729,-0.2748,-0.2798,-0.2818,-0.2946,1.5276,1.537,1.5545,0.0,1.5528,1.5426,1.5457,1.533,1.5303,1.571,1.6189,1.6582,1.6617,1.6984,1.7108,0.0,1.585,1.4985,1.3971,1.3123,1.2359,1.1793,1.1654,1.1591,1.1591,1.1591,1.1466,1.1146,1.0699,1.0281,1.0028,0.9288,0.8871,0.8871,0.8264,0.7944,0.7944,0.7652,0.7489,0.7489,0.7428,0.7297,0.7204,0.7068,0.6876,0.6642,0.6546,0.6468,0.6419,0.6313,0.6116,0.5872,0.5773,0.5539,0.527,0.5046,0.446,0.371,0.3347,0.2822,0.2268,0.1908,0.1797,0.1797,0.1797,0.1797,0.1797,0.1797,0.1797,0.1797,0.1797,0.1769,0.1713,0.1713,0.1657,0.16,0.16,0.16,0.1515,0.1262,0.1206,0.1178,0.1066,0.1038,0.0841,0.028,-0.0308,-0.0839,-0.1258,-0.1762,-0.2212,-0.2663,-0.2691,-0.2691,-0.2691,-0.2691,-0.2691,-0.2691,-0.2691,-0.2691,-0.2691,-0.2691,-0.2691,-0.2691,-0.2691,-0.2691,-0.2691,-0.2691,-0.2711,-0.275,-0.2627,-0.2626,1.5842,0.0,0.0,1.6043,1.6135,1.6107,1.5368,1.5195,1.5248,1.5459,1.579,1.6177,1.6717,1.7099,1.7246,1.6964,1.6318,1.5517,1.4506,1.3549,1.2742,1.2197,1.1895,1.1716,1.1654,1.1622,1.1591,1.1591,1.1122,1.08,1.08,1.0161,0.9779,0.9779,0.9134,0.8678,0.849,0.8004,0.7684,0.7489,0.7489,0.7428,0.7265,0.7232,0.6993,0.6616,0.6616,0.6555,0.645,0.6314,0.6163,0.6015,0.5854,0.5638,0.538,0.538,0.5018,0.4436,0.3987,0.3347,0.2627,0.2184,0.1936,0.1797,0.1797,0.1797,0.1797,0.1797,0.1797,0.1797,0.1797,0.1797,0.1797,0.1797,0.1797,0.1797,0.1797,0.1797,0.1797,0.1797,0.1797,0.1797,0.1797,0.1797,0.1685,0.1347,0.0842,0.0252,-0.0419,-0.1006,-0.1566,-0.2155,-0.2212,-0.2212,-0.2212,-0.2212,-0.2268,-0.2437,-0.2465,-0.2521,-0.2691,-0.2691,-0.2691,-0.2691,-0.2691,-0.2691,-0.2691,-0.2605,-0.2549,-0.2551,-0.2325,-0.2188,0.0,0.0,1.5934,1.637,1.6162,1.5811,1.5694,1.5676,1.5547,1.5112,1.5028,1.5318,1.6267,1.6444,1.6705,1.7523,1.6778,1.6024,1.5762,1.4314,1.3199,1.2978,1.2451,1.1996,0.0,1.1685,1.1591,1.1591,1.1591,1.156,1.156,1.0863,1.0485,1.0485,0.9805,0.9166,0.8522,0.849,0.8134,0.7489,0.7489,0.7489,0.7493,0.7297,0.6993,0.6616,0.6616,0.6406,0.6118,0.6114,0.5975,0.5813,0.5808,0.5713,0.5595,0.5595,0.5124,0.4491,0.4491,0.3683,0.2708,0.2681,0.2266,0.1797,0.1797,0.1797,0.1797,0.1797,0.1797,0.1797,0.1797,0.1797,0.1797,0.1797,0.1797,0.1797,0.1797,0.1797,0.1797,0.1797,0.1797,0.1797,0.1797,0.1797,0.1797,0.1769,0.1769,0.1319,0.014,-0.0448,-0.0782,-0.095,-0.095,-0.095,-0.095,-0.095,-0.1202,-0.179,-0.1818,-0.2099,-0.2663,-0.2691,-0.2691,-0.2691,-0.2691,-0.2691,-0.2691,-0.238,-0.2212,-0.2212,-0.1933,-0.1684,1.6663,0.0,1.6965,1.6592,1.6478,1.6244,1.5427,1.5034,1.4771,1.4581,1.4542,1.4821,1.5753,1.5946,1.6115,1.6736,1.6519,1.6115,1.5625,1.4959,1.4213,1.3321,1.2895,0.0,0.0,0.0,0.0,1.1622,1.1591,1.1591,1.1591,1.1373,1.124,1.124,1.0541,1.0066,0.9837,0.939,0.9032,0.8807,0.8244,0.8027,0.8124,0.7303,0.6863,0.6733,0.6591,0.6483,0.6349,0.622,0.6151,0.6116,0.5977,0.5845,0.5709,0.5622,0.5454,0.5152,0.4684,0.4239,0.3821,0.343,0.3016,0.2659,0.2659,0.2549,0.2355,0.213,0.2074,0.2018,0.1853,0.1797,0.1797,0.1797,0.1797,0.1797,0.1797,0.1797,0.1797,0.1797,0.1797,0.1797,0.1797,0.1797,0.1797,0.1797,0.1713,0.1374,0.0559,0.014,-0.028,-0.0726,-0.0838,-0.0894,-0.0894,-0.081,-0.0866,-0.1062,-0.095,-0.095,-0.1174,-0.1174,-0.1426,-0.1959,-0.1762,-0.1874,-0.238,-0.2071,-0.193,-0.193,-0.1625,-0.1411,1.6782,1.708,1.7282,1.6769,1.6724,1.6589,1.5614,1.5037,1.4682,1.4468,1.4216,1.4293,1.5112,1.522,1.5401,1.606,1.6164,1.6064,1.5777,1.5468,1.4874,1.3833,1.35,1.3029,0.0,0.0,0.0,1.1645,1.1701,1.1709,1.1599,1.1591,1.1591,1.1591,1.1153,1.0769,1.0485,1.0066,0.9741,0.9486,0.894,0.868,0.8635,0.7721,0.7205,0.6988,0.6644,0.6464,0.6384,0.6257,0.6225,0.6248,0.6115,0.5982,0.5873,0.5786,0.5704,0.5595,0.5069,0.4763,0.4512,0.4177,0.3763,0.3378,0.3211,0.3044,0.2854,0.2491,0.238,0.2326,0.2018,0.1936,0.1908,0.1825,0.1797,0.1825,0.1936,0.1936,0.1936,0.1936,0.1936,0.1908,0.1825,0.1797,0.1797,0.1797,0.1741,0.1514,0.1091,0.084,0.0532,0.0056,-0.0056,-0.0112,-0.0112,-0.0028,-0.0084,-0.028,-0.0196,-0.0196,-0.0391,-0.0391,-0.0726,-0.1398,-0.1202,-0.1426,-0.2043,-0.1764,-0.1624,-0.1624,-0.129,-0.115,1.6897,1.6897,1.6897,1.6897,1.6897,1.6757,1.6222,1.571,1.5209,1.4801,1.4131,1.3827,1.4405,0.0,1.4676,1.5577,1.5742,1.5908,1.6381,1.5875,1.5235,0.0,0.0,0.0,0.0,0.0,0.0,1.1705,0.0,1.1904,1.1635,1.1637,1.1622,1.1622,1.1591,1.1272,1.0548,1.0548,1.0231,0.9614,0.9551,0.9349,0.9028,0.8441,0.7909,0.7367,0.6772,0.6407,0.6205,0.6205,0.6205,0.6205,0.6205,0.6119,0.6,0.6,0.5923,0.5791,0.5677,0.523,0.4783,0.4897,0.4536,0.3978,0.3539,0.34,0.3289,0.2882,0.2747,0.2661,0.2324,0.224,0.2156,0.1908,0.1853,0.1908,0.2184,0.224,0.224,0.224,0.2212,0.2128,0.1853,0.1797,0.1797,0.1797,0.1797,0.1741,0.1628,0.16,0.1515,0.1347,0.1319,0.1291,0.1291,0.1319,0.1066,0.0505,0.0477,0.0252,-0.0279,-0.0307,-0.0559,-0.1034,-0.1062,-0.1286,-0.1762,-0.1429,-0.129,-0.1262,-0.101,-0.0898,1.7002,1.7065,1.7094,1.6939,1.6939,1.682,1.6222,1.6005,1.5676,1.488,1.4548,1.4446,1.4503,0.0,0.0,1.6133,1.6477,0.0,1.6831,1.6436,0.0,1.5235,0.0,1.4052,1.3258,1.2996,0.0,0.0,1.2116,1.2201,1.2119,1.1874,1.1747,1.1747,1.1654,1.1498,1.131,1.131,1.124,1.1045,1.0094,0.9721,0.9784,0.8533,0.7767,0.7385,0.7081,0.6653,0.6205,0.6205,0.6205,0.6205,0.6205,0.6178,0.6146,0.6032,0.5978,0.595,0.5923,0.5732,0.5513,0.5572,0.5285,0.4944,0.4835,0.4646,0.4343,0.3713,0.3519,0.338,0.2745,0.2577,0.2549,0.2495,0.2467,0.2495,0.2549,0.2577,0.2577,0.2577,0.238,0.2128,0.1853,0.1797,0.1797,0.1797,0.1797,0.1797,0.1741,0.1657,0.1572,0.1515,0.1375,0.1291,0.1291,0.1431,0.1459,0.1291,0.1375,0.1374,0.1233,0.0896,0.0392,-0.028,-0.0392,-0.0756,-0.1429,-0.115,-0.101,-0.101,-0.0926,-0.0898,1.7115,1.7136,1.7178,1.7065,1.7065,1.701,1.6655,1.6222,1.5764,1.5287,1.4755,0.0,1.4363,1.4883,0.0,0.0,0.0,0.0,1.6757,1.6705,1.6359,0.0,1.5222,0.0,1.3697,1.3507,1.3227,0.0,1.2474,1.2332,1.2221,1.1938,1.1802,1.1802,1.1654,1.1622,1.1685,1.1685,1.1685,1.1677,1.0795,1.0374,1.0285,0.9064,0.8199,0.7593,0.0,0.6766,0.6232,0.6495,0.6445,0.6232,0.6495,0.6445,0.6205,0.6119,0.6087,0.6087,0.6087,0.6037,0.5987,0.5987,0.5845,0.5668,0.5477,0.5312,0.5066,0.4457,0.4291,0.4125,0.3383,0.3188,0.3107,0.2775,0.2691,0.2747,0.2856,0.2884,0.2884,0.2884,0.2519,0.2156,0.199,0.188,0.1797,0.1797,0.1797,0.1797,0.1797,0.1741,0.1685,0.1685,0.16,0.1515,0.1515,0.1628,0.1685,0.1685,0.1572,0.1487,0.1487,0.1234,0.0729,-0.0084,0.0,-0.0336,-0.1122,-0.0982,-0.0898,-0.0898,-0.0898,-0.087,1.7199,1.7199,1.7199,1.7199,1.7199,1.7199,1.7199,1.6441,1.5732,1.5788,0.0,1.415,1.4199,1.4435,1.4812,1.5285,0.0,1.6537,1.6661,1.687,1.6655,1.5723,1.5751,1.539,1.428,1.4202,1.3942,1.3366,1.2823,1.2418,1.2204,1.1987,1.1872,1.184,1.1671,1.1649,1.1773,1.1728,1.1675,1.1706,1.1338,1.0945,1.0542,0.9715,0.8856,0.8004,0.0,0.0,0.6472,0.7004,0.6896,0.6472,0.6923,0.6793,0.6309,0.6232,0.6205,0.6205,0.6205,0.6205,0.6205,0.6205,0.6205,0.6146,0.5786,0.5677,0.5595,0.512,0.4983,0.4846,0.4128,0.3907,0.3685,0.3049,0.2856,0.2884,0.3105,0.316,0.316,0.3102,0.2657,0.224,0.2212,0.1992,0.1797,0.1797,0.1797,0.1797,0.1797,0.1797,0.1797,0.1797,0.1797,0.1797,0.1797,0.1797,0.1797,0.1797,0.1431,0.1206,0.1206,0.1122,0.0729,-0.0112,0.0168,-0.0084,-0.0898,-0.0898,-0.0898,-0.0898,-0.087,-0.0813,1.7199,1.7199,1.7199,1.7199,1.7199,1.7199,1.7199,1.6765,0.0,0.0,1.5311,1.4754,1.4292,1.4873,1.5599,1.6186,0.0,0.0,0.0,0.0,1.6916,0.0,0.0,0.0,0.0,0.0,0.0,0.0,0.0,1.2625,1.2694,1.2367,1.2151,1.2058,1.1684,1.1541,1.1541,1.1283,1.1154,1.1118,1.0701,1.0431,1.0329,0.9802,0.922,0.8639,0.0,0.0,0.761,0.7717,0.7685,0.7584,0.7241,0.7031,0.6869,0.6391,0.6205,0.6205,0.6205,0.6205,0.6205,0.6205,0.6205,0.6178,0.6119,0.6091,0.6009,0.5595,0.5481,0.5371,0.4842,0.4429,0.4095,0.3959,0.3688,0.3444,0.3499,0.3527,0.3441,0.316,0.2826,0.2521,0.224,0.1992,0.1797,0.1797,0.1797,0.1797,0.1797,0.1797,0.1797,0.1797,0.1797,0.1797,0.1797,0.1797,0.1797,0.1797,0.1713,0.1685,0.1685,0.1319,0.0842,0.0308,0.0028,-0.0364,-0.0898,-0.0898,-0.0898,-0.0898,-0.0785,-0.0729,1.7199,1.7199,1.7199,1.7199,1.7199,1.7199,1.7199,0.0,0.0,0.0,1.522,1.4651,1.4373,1.4806,0.0,0.0,0.0,0.0,0.0,0.0,0.0,0.0,0.0,0.0,0.0,0.0,0.0,0.0,0.0,0.0,1.2672,1.243,1.2127,1.1798,1.1593,1.1462,1.1389,1.1235,1.1159,1.1151,1.0695,1.0391,1.0282,0.9828,0.9302,0.8804,0.8804,0.0,0.7925,0.8243,0.819,0.7898,0.7957,0.7797,0.745,0.6869,0.6657,0.663,0.6309,0.6205,0.6205,0.6205,0.6205,0.6205,0.6205,0.6205,0.615,0.5955,0.59,0.5814,0.5371,0.5093,0.4869,0.4622,0.4236,0.3855,0.3638,0.3613,0.3555,0.3385,0.3107,0.2854,0.2685,0.2437,0.2216,0.2046,0.2018,0.1964,0.1825,0.1797,0.1797,0.1797,0.1797,0.1797,0.1797,0.1797,0.1853,0.199,0.1822,0.1709,0.1709,0.1625,0.1288,0.0672,0.084,0.056,-0.0224,-0.0224,-0.0364,-0.0645,-0.0561,-0.0505,1.7199,1.7199,1.7199,1.7199,1.7199,1.7199,1.7199,1.6475,0.0,0.0,1.504,1.4396,1.4396,0.0,1.4987,0.0,1.6125,0.0,0.0,0.0,0.0,0.0,0.0,0.0,0.0,0.0,0.0,0.0,0.0,0.0,1.2598,1.2358,1.2033,1.1606,1.146,1.1326,1.1255,1.1177,1.1138,1.113,1.0732,1.0421,1.0232,0.9824,0.9406,0.8961,0.8961,0.0,0.0,0.8771,0.8692,0.8296,0.8666,0.8508,0.8004,0.7348,0.7112,0.7004,0.6418,0.6205,0.6205,0.6205,0.6205,0.6205,0.6205,0.6205,0.6205,0.6205,0.6205,0.6119,0.5814,0.5677,0.5481,0.5011,0.4622,0.4236,0.383,0.3719,0.3694,0.361,0.333,0.3102,0.3102,0.2884,0.2607,0.2352,0.2296,0.2242,0.202,0.1993,0.1993,0.1993,0.1881,0.1797,0.1797,0.1853,0.1964,0.2183,0.1959,0.1846,0.1846,0.2043,0.1818,0.1146,0.1706,0.154,0.0588,0.0477,0.0196,-0.0224,-0.0308,-0.0308,1.7199,1.7199,1.7199,1.7199,1.7199,1.7199,1.7199,0.0,0.0,1.581,1.504,1.4396,1.4396,1.444,1.4838,0.0,0.0,1.6701,0.0,0.0,0.0,0.0,0.0,0.0,0.0,0.0,0.0,0.0,0.0,0.0,0.0,1.225,1.1992,1.196,1.136,1.1047,1.1023,1.0724,1.0566,1.0566,1.0405,1.0234,1.0019,0.9859,0.9681,0.9536,0.0,0.0,0.0,0.951,0.9484,0.9406,0.8961,0.8771,0.8587,0.7509,0.7112,0.7004,0.6418,0.6205,0.6205,0.6205,0.6205,0.6205,0.6205,0.6205,0.6205,0.6205,0.6205,0.6205,0.615,0.5868,0.5481,0.5011,0.4869,0.4704,0.4233,0.4153,0.4042,0.3666,0.333,0.3102,0.3102,0.2884,0.2691,0.2663,0.2663,0.2635,0.2607,0.2607,0.2607,0.2607,0.2132,0.1797,0.1797,0.2018,0.2184,0.2212,0.2465,0.2605,0.2605,0.2635,0.2408,0.1902,0.1959,0.1734,0.1202,0.0672,0.0364,0.0308,-0.0056,-0.0224,1.7199,1.7199,1.7199,1.7199,1.7199,1.7199,1.7199,0.0,1.581,1.581,1.504,1.4396,1.4396,1.4396,1.4755,1.5832,1.5833,1.621,1.773,0.0,0.0,0.0,0.0,0.0,0.0,0.0,0.0,0.0,0.0,0.0,0.0,1.2419,1.1924,1.171,1.1241,1.0899,1.0703,1.0568,1.0496,1.0496,1.0368,1.0265,1.0162,0.9929,0.9766,0.9706,0.0,0.0,0.0,0.9588,0.9588,0.9588,0.9354,0.9276,0.919,0.8408,0.7904,0.7503,0.695,0.65,0.6205,0.6205,0.6205,0.6205,0.6205,0.6205,0.6205,0.6205,0.6205,0.6205,0.6205,0.6091,0.5845,0.5426,0.5317,0.5203,0.4732,0.4398,0.4153,0.399,0.366,0.3466,0.371,0.3466,0.3276,0.3355,0.3132,0.2882,0.2719,0.2691,0.2691,0.2691,0.2495,0.2355,0.2355,0.2439,0.2575,0.274,0.2854,0.2938,0.2938,0.3135,0.3051,0.2657,0.2854,0.2685,0.215,0.19,0.1593,0.1231,0.07,0.0449,1.7199,1.7199,1.7199,1.7199,1.7199,1.7199,0.0,1.6582,1.5976,1.5832,1.5268,1.4724,1.4452,1.4637,1.5028,1.5691,1.5698,1.6099,1.7512,1.7716,0.0,0.0,0.0,0.0,0.0,0.0,0.0,0.0,0.0,0.0,0.0,1.2776,1.1942,1.1523,1.1066,1.0743,1.0496,1.0496,1.0496,1.0496,1.0393,1.0342,1.029,1.0058,0.9903,0.9799,0.0,0.0,0.0,0.9647,0.9647,0.9647,0.9614,0.9588,0.9536,0.8988,0.8534,0.8084,0.753,0.7052,0.6685,0.6608,0.6581,0.6554,0.6391,0.6282,0.6205,0.6205,0.6205,0.6205,0.6205,0.6205,0.6119,0.5845,0.5786,0.565,0.5203,0.4842,0.4567,0.4429,0.4184,0.4076,0.4346,0.4184,0.3965,0.3932,0.3627,0.3325,0.2998,0.297,0.297,0.297,0.297,0.2886,0.2719,0.2772,0.2912,0.3074,0.3188,0.3244,0.3244,0.3471,0.3499,0.3244,0.3471,0.3385,0.2961,0.2792,0.2486,0.204,0.1456,0.1177,1.7199,1.7199,1.7199,1.7199,1.7199,1.7199,1.7199,1.6829,1.6358,1.5898,1.5787,1.5505,1.4577,1.517,1.58,1.5811,1.5966,1.6594,1.8,1.7915,0.0,0.0,0.0,0.0,0.0,0.0,0.0,0.0,0.0,0.0,0.0,1.3276,1.2186,1.1515,1.0854,1.0496,1.0496,1.0496,1.0496,1.0496,1.0496,1.0419,1.029,1.029,1.011,0.0,0.0,0.0,0.0,0.9799,0.9799,0.9799,0.9647,0.9588,0.9536,0.8988,0.8804,0.8692,0.8111,0.7898,0.7851,0.7568,0.7494,0.7386,0.6864,0.6468,0.6205,0.6205,0.6205,0.6205,0.6205,0.6205,0.6205,0.6205,0.6205,0.6091,0.5677,0.5595,0.5454,0.4983,0.4897,0.4897,0.4897,0.4897,0.4732,0.426,0.4205,0.4042,0.3638,0.3583,0.3583,0.3583,0.3583,0.336,0.2747,0.2938,0.3102,0.3102,0.3413,0.3585,0.3585,0.3613,0.3613,0.3585,0.3613,0.3585,0.3583,0.2991,0.2708,0.2681,0.2068,0.179,1.7199,1.7199,1.7199,1.7199,1.7199,1.7199,1.7199,1.7157,1.7074,1.6928,1.6645,1.6313,1.6042,1.5895,1.6029,1.671,1.6692,0.0,0.0,0.0,0.0,0.0,0.0,0.0,0.0,0.0,0.0,0.0,0.0,0.0,0.0,1.4046,1.3229,1.2281,1.1473,1.1049,1.1049,1.1049,1.0871,1.0496,1.0496,1.047,1.0419,1.0342,0.0,0.0,0.0,0.0,0.0,0.9851,0.9799,0.9799,0.9766,0.974,0.9714,0.955,0.9256,0.8902,0.8712,0.8369,0.8051,0.8051,0.8051,0.8025,0.7833,0.7477,0.7036,0.6874,0.6522,0.6205,0.6205,0.6205,0.6205,0.6205,0.6205,0.6178,0.6037,0.5786,0.5567,0.5399,0.512,0.5011,0.5317,0.512,0.4952,0.512,0.4869,0.4512,0.4073,0.4018,0.391,0.3638,0.3613,0.353,0.3332,0.3388,0.3441,0.3441,0.3527,0.3613,0.3613,0.3613,0.3613,0.3613,0.3613,0.3613,0.3613,0.3413,0.3102,0.2708,0.2514,0.2402,1.7123,1.7199,1.7199,1.7199,1.7199,1.7199,1.7199,1.7428,1.7619,1.745,1.7481,1.7369,1.6796,1.6667,1.6731,1.6945,1.7104,0.0,0.0,0.0,0.0,0.0,0.0,0.0,0.0,0.0,0.0,0.0,0.0,0.0,0.0,0.0,1.3916,1.3256,1.2143,1.1569,1.1569,1.1393,1.1124,1.0794,1.0598,1.0496,1.0496,1.0419,0.0,0.0,0.0,0.0,0.0,0.9947,0.9929,0.9981,0.9851,0.9818,0.987,0.987,0.9629,0.9302,0.9354,0.9093,0.8745,0.8784,0.8652,0.8521,0.8731,0.8316,0.7744,0.753,0.7052,0.6598,0.6549,0.6364,0.6205,0.6205,0.6205,0.6205,0.6205,0.6009,0.5814,0.5814,0.5595,0.5481,0.5786,0.5595,0.5426,0.5591,0.5344,0.4983,0.4536,0.4453,0.4291,0.3882,0.3827,0.3774,0.3613,0.3613,0.3613,0.3613,0.3613,0.3613,0.3613,0.3613,0.3613,0.3613,0.3613,0.3613,0.3613,0.3613,0.3413,0.3047,0.3047,0.3074,0.0,1.7178,1.7178,1.7199,1.7199,1.7212,1.7251,1.7735,0.0,1.7654,1.8303,1.8549,1.7215,1.7658,1.79,1.6912,0.0,0.0,0.0,0.0,0.0,0.0,0.0,0.0,0.0,0.0,0.0,0.0,0.0,0.0,0.0,0.0,1.4256,1.4248,1.2874,1.2107,1.2049,1.1594,1.1318,1.1293,1.0769,1.0496,1.0496,1.0496,0.0,0.0,0.0,0.0,0.0,1.011,1.0136,1.0265,0.9955,0.9903,1.0025,1.0025,0.9947,0.9851,0.9973,0.9947,0.9818,0.9699,0.9328,0.9014,0.951,0.9026,0.8277,0.8204,0.7786,0.7316,0.716,0.6685,0.6255,0.6205,0.6205,0.6205,0.6205,0.6205,0.6205,0.6205,0.6205,0.6205,0.6205,0.6205,0.6064,0.5704,0.565,0.5481,0.5007,0.4952,0.4759,0.4288,0.4233,0.4042,0.3666,0.361,0.3613,0.3613,0.3613,0.3613,0.3613,0.3613,0.3613,0.361,0.361,0.361,0.361,0.3613,0.3613,0.361,0.3613,0.3663,1.6808,0.0,1.7002,1.7157,1.7115,1.7203,0.0,1.8323,1.88,1.9149,1.9405,1.9578,1.9535,1.9468,1.938,1.9278,0.0,0.0,0.0,0.0,0.0,0.0,0.0,0.0,0.0,0.0,0.0,0.0,0.0,0.0,0.0,0.0,1.4486,1.3783,1.3399,1.3025,1.2628,1.2098,1.1669,1.1293,1.0769,1.0496,1.0496,1.0496,0.0,0.0,0.0,0.0,1.0445,1.029,1.0265,1.029,1.0213,1.0187,1.0239,1.0239,1.0213,1.0187,1.0213,1.0213,1.0187,1.0257,1.0198,1.012,1.0249,0.9347,0.8383,0.8823,0.8455,0.7812,0.7369,0.7079,0.6766,0.6309,0.6205,0.6205,0.6205,0.6205,0.6205,0.6205,0.6205,0.6205,0.6205,0.6205,0.6178,0.6064,0.6064,0.59,0.5481,0.5426,0.5258,0.4787,0.4426,0.415,0.407,0.3774,0.3613,0.3613,0.3613,0.3613,0.3613,0.3613,0.3638,0.3744,0.3744,0.3744,0.3744,0.3635,0.3663,0.3744,0.3638,0.3663,1.6599,1.7025,1.7282,1.7411,1.7561,1.7801,1.8177,1.8727,1.9229,1.9553,0.0,2.0088,2.0395,2.0269,0.0,0.0,0.0,0.0,0.0,0.0,0.0,0.0,0.0,0.0,0.0,0.0,0.0,0.0,0.0,0.0,0.0,0.0,1.4676,1.3927,1.37,1.3467,1.317,1.2628,1.2236,1.1974,1.1242,1.0871,1.0871,1.0871,0.0,0.0,0.0,0.0,1.0845,1.047,1.0342,1.0393,1.0316,1.0342,1.0393,1.0393,1.0342,1.0324,1.0368,1.0393,1.0393,1.047,1.0496,1.0496,1.0496,0.9932,0.9373,0.9629,0.9178,0.8534,0.8164,0.7765,0.7375,0.7052,0.6793,0.6603,0.6603,0.6391,0.6205,0.6205,0.6205,0.6205,0.6205,0.6205,0.6205,0.6205,0.6205,0.6119,0.59,0.5868,0.5704,0.5262,0.4983,0.4759,0.4539,0.4128,0.3799,0.3613,0.3613,0.3613,0.3613,0.3613,0.3663,0.3796,0.3852,0.3882,0.3882,0.383,0.383,0.3882,0.383,0.3858,1.6396,1.7216,1.7757,1.7712,1.8099,1.851,1.8623,0.0,0.0,0.0,0.0,0.0,2.0644,2.0824,0.0,0.0,0.0,0.0,0.0,0.0,0.0,0.0,0.0,0.0,0.0,0.0,0.0,0.0,0.0,0.0,0.0,0.0,0.0,1.4221,1.3803,1.3597,1.3597,1.3064,1.2788,1.2788,1.185,1.1418,1.1418,1.1418,1.1418,0.0,0.0,0.0,1.1251,1.0701,1.047,1.0496,1.0368,1.0393,1.0496,1.0496,1.0419,1.0342,1.047,1.0496,1.0496,1.0496,1.0496,1.0496,1.0496,1.0496,1.047,1.0368,0.987,0.9316,0.9112,0.8554,0.8057,0.7951,0.7557,0.7187,0.7112,0.6712,0.6337,0.6282,0.6232,0.62,0.6255,0.6232,0.6228,0.6255,0.6282,0.6282,0.6337,0.6337,0.62,0.5864,0.5732,0.5508,0.5089,0.4594,0.4153,0.3833,0.3666,0.3613,0.3638,0.3666,0.3749,0.3824,0.3965,0.4024,0.4024,0.4024,0.4024,0.4024,0.4024,0.4079,1.6353,1.7338,1.8059,1.7769,1.8053,1.8565,1.9132,1.9323,0.0,0.0,0.0,0.0,0.0,2.229,0.0,0.0,0.0,0.0,0.0,0.0,0.0,0.0,0.0,0.0,0.0,0.0,0.0,0.0,0.0,0.0,0.0,0.0,0.0,1.371,1.3628,1.3597,1.3597,1.3064,1.2788,1.2788,1.2172,1.1884,1.1884,1.1884,1.1884,0.0,0.0,1.166,1.1293,1.12,1.0896,1.0496,1.047,1.047,1.0496,1.0496,1.0496,1.047,1.0496,1.0496,1.0496,1.0496,1.0496,1.0496,1.0496,1.0496,1.0496,1.047,1.0316,0.9999,0.9465,0.9086,0.8712,0.8178,0.7919,0.7664,0.7187,0.7031,0.6896,0.668,0.6386,0.6282,0.6571,0.6386,0.6309,0.6571,0.6625,0.6707,0.6923,0.695,0.695,0.6869,0.63,0.5918,0.5837,0.5199,0.4759,0.4708,0.3996,0.3663,0.3771,0.3996,0.4055,0.3965,0.4107,0.4166,0.4166,0.4052,0.4052,0.4166,0.4052,0.4079,1.5976,1.696,1.7788,1.7941,1.8622,1.9344,1.9648,1.9773,2.0002,0.0,0.0,0.0,0.0,0.0,0.0,0.0,0.0,0.0,0.0,0.0,0.0,0.0,0.0,0.0,0.0,0.0,0.0,0.0,0.0,0.0,0.0,0.0,0.0,0.0,1.3597,1.3597,1.3597,1.3362,1.3242,1.3242,1.2677,1.2433,1.2433,1.2433,1.2433,1.2433,0.0,1.231,1.2073,1.1519,1.115,1.0896,1.0616,1.0496,1.0496,1.0496,1.0667,1.0896,1.0598,1.0496,1.0496,1.0496,1.0496,1.0496,1.0496,1.0496,1.0496,1.0496,1.0393,1.0239,0.9973,0.9706,0.9458,0.9093,0.8804,0.8514,0.819,0.7637,0.716,0.7052,0.6576,0.6309,0.6647,0.6571,0.6576,0.6869,0.6923,0.6972,0.7085,0.7112,0.7112,0.7112,0.6788,0.6598,0.6598,0.6041,0.5382,0.4563,0.4242,0.3993,0.3796,0.3993,0.4107,0.4107,0.4166,0.4249,0.4356,0.4298,0.4298,0.4356,0.4298,0.4298,1.5699,1.6587,1.7536,1.8066,1.8881,1.9687,2.0117,2.0182,2.0399,0.0,0.0,0.0,0.0,0.0,0.0,0.0,0.0,0.0,0.0,0.0,0.0,0.0,0.0,0.0,0.0,0.0,0.0,0.0,0.0,0.0,0.0,0.0,0.0,0.0,1.3597,1.3597,1.3597,1.3597,1.3597,1.3597,1.3194,1.2991,1.2991,1.2991,1.2991,1.2991,1.2991,1.2909,1.274,1.1974,1.151,1.1267,1.0972,1.0837,1.0837,1.0837,1.1116,1.1393,1.0871,1.0701,1.0675,1.0547,1.0496,1.0496,1.0496,1.0496,1.0496,1.0496,1.0419,1.0342,1.0342,1.0213,1.0025,0.9955,0.961,0.929,0.9059,0.8316,0.7658,0.7471,0.6945,0.663,0.6842,0.6842,0.6891,0.7166,0.7192,0.7219,0.7273,0.7273,0.7273,0.7273,0.7219,0.7166,0.7112,0.6777,0.6032,0.4807,0.4732,0.4625,0.4315,0.4457,0.457,0.4656,0.4519,0.4546,0.468,0.457,0.4491,0.4491,0.4491,0.4491,1.5765,1.6639,1.7536,1.8066,1.8267,1.8767,2.0447,2.0461,0.0,2.1682,0.0,0.0,0.0,0.0,0.0,0.0,0.0,0.0,0.0,0.0,0.0,0.0,0.0,0.0,0.0,0.0,0.0,0.0,0.0,0.0,0.0,0.0,0.0,0.0,0.0,1.3597,1.3597,1.3597,1.3597,1.3597,1.3563,1.3539,1.3539,1.3539,1.3539,1.3539,1.3539,1.3266,1.2788,1.2716,1.2138,1.1352,1.1735,1.1884,1.1884,1.1884,1.1909,1.1884,1.1418,1.1251,1.115,1.0667,1.0496,1.0496,1.0496,1.0496,1.0496,1.0496,1.0496,1.0496,1.0496,1.0368,1.0265,1.0265,1.0007,0.961,0.9112,0.8948,0.8685,0.7978,0.7717,0.7563,0.7467,0.7246,0.7166,0.744,0.7467,0.7574,0.7821,0.7848,0.7848,0.7848,0.7628,0.7381,0.7112,0.7079,0.6831,0.6276,0.5773,0.5614,0.5842,0.5959,0.6046,0.6046,0.55,0.5226,0.525,0.4736,0.4491,0.4491,0.4491,0.4491,1.5349,1.6376,1.7461,1.7662,1.7953,0.0,0.0,2.0538,2.1078,2.2371,2.2659,0.0,0.0,0.0,0.0,0.0,0.0,0.0,0.0,0.0,0.0,0.0,0.0,0.0,0.0,0.0,0.0,0.0,0.0,0.0,0.0,0.0,0.0,0.0,0.0,1.3597,1.3597,1.3597,1.3597,1.3597,1.3597,1.3597,1.3597,1.3597,1.3597,1.3597,1.3597,1.3491,1.3266,1.2943,1.257,1.2212,1.2049,1.2197,1.2457,1.2123,1.2221,1.2433,1.19,1.1544,1.1276,1.1074,1.0769,1.0496,1.0496,1.0496,1.0496,1.0496,1.0496,1.0496,1.0496,1.047,1.0393,1.0316,1.0265,1.0154,0.9862,0.9517,0.9171,0.8883,0.8422,0.8131,0.8276,0.7978,0.7818,0.815,0.7949,0.7794,0.7901,0.7901,0.7901,0.7901,0.7821,0.7708,0.7601,0.7434,0.7354,0.7321,0.6642,0.6154,0.6005,0.6036,0.6122,0.6209,0.5905,0.5769,0.5855,0.5664,0.5555,0.5555,0.5171,0.5007,1.5349,1.6364,1.7448,1.7624,0.0,0.0,1.9952,2.0639,2.1424,2.2736,2.3026,0.0,0.0,0.0,0.0,0.0,0.0,0.0,0.0,0.0,0.0,0.0,0.0,0.0,0.0,0.0,0.0,0.0,0.0,0.0,0.0,0.0,0.0,0.0,0.0,1.3597,1.3597,1.3597,1.3597,1.3597,1.3597,1.3597,1.3597,1.3597,1.3597,1.3597,1.3597,1.3597,1.3563,1.3194,1.3064,1.2991,1.2457,1.2579,1.3016,1.2638,1.2735,1.2967,1.2433,1.2049,1.176,1.1594,1.1175,1.0744,1.0744,1.0616,1.0496,1.0496,1.0624,1.0718,1.0547,1.0496,1.047,1.0368,1.0393,1.0419,1.0316,0.9973,0.9655,0.9491,0.9079,0.881,0.8909,0.8666,0.8481,0.86,0.8315,0.8055,0.7928,0.7901,0.7901,0.7901,0.7901,0.7901,0.7901,0.7735,0.7708,0.7901,0.7354,0.6885,0.661,0.6605,0.6637,0.6723,0.6475,0.6394,0.648,0.629,0.6209,0.6182,0.5769,0.5582,1.5903,1.664,1.7513,1.8066,0.0,0.0,2.0427,2.0786,2.1291,2.2695,0.0,2.3041,2.248,0.0,0.0,0.0,0.0,0.0,0.0,0.0,0.0,0.0,0.0,0.0,0.0,0.0,0.0,0.0,0.0,0.0,0.0,0.0,0.0,0.0,0.0,0.0,1.3621,1.3597,1.3597,1.3597,1.3597,1.3597,1.3597,1.3597,1.3597,1.3597,1.3597,1.3597,1.3597,1.3597,1.3597,1.3549,1.3016,1.3136,1.3597,1.3597,1.3597,1.3515,1.2991,1.2788,1.2716,1.2172,1.1694,1.1301,1.1301,1.0947,1.0522,1.0522,1.0896,1.1175,1.0641,1.0522,1.0522,1.0496,1.0393,1.029,1.029,1.029,1.0154,0.9692,0.971,0.9692,0.929,0.9211,0.908,0.8679,0.86,0.8448,0.7981,0.7901,0.7901,0.7901,0.7901,0.7901,0.7901,0.7901,0.7901,0.7901,0.7901,0.7901,0.7901,0.7901,0.7901,0.7901,0.7381,0.7112,0.7112,0.6507,0.6209,0.6209,0.6209,0.6209,1.5314,1.6077,0.0,1.7508,0.0,0.0,0.0,2.0586,0.0,0.0,2.2512,2.2467,0.0,0.0,0.0,0.0,0.0,0.0,0.0,0.0,0.0,0.0,0.0,0.0,0.0,0.0,0.0,0.0,0.0,0.0,0.0,0.0,0.0,0.0,0.0,0.0,1.4163,1.3787,1.3597,1.3597,1.3597,1.3597,1.3597,1.3597,1.3597,1.3597,1.3597,1.3597,1.3597,1.3597,1.3597,1.3586,1.342,1.3467,1.3597,1.3597,1.3597,1.3586,1.342,1.3112,1.2764,1.2604,1.2212,1.1785,1.1785,1.1685,1.156,1.156,1.166,1.176,1.161,1.156,1.1385,1.0667,1.047,1.0445,1.0445,1.0445,1.0393,1.0257,1.0275,1.0249,1.0128,0.9829,0.9588,0.9451,0.9204,0.8863,0.8448,0.8109,0.7901,0.7901,0.7901,0.7901,0.7901,0.7901,0.7901,0.7901,0.7901,0.7901,0.7901,0.7901,0.7901,0.7901,0.7741,0.7655,0.7655,0.7494,0.7408,0.7381,0.7004,0.6837,1.5943,1.6765,0.0,1.8292,1.893,1.951,1.9927,0.0,0.0,0.0,0.0,0.0,0.0,0.0,0.0,0.0,0.0,0.0,0.0,0.0,0.0,0.0,0.0,0.0,0.0,0.0,0.0,0.0,0.0,0.0,0.0,0.0,0.0,0.0,0.0,0.0,1.4674,1.4176,1.3928,1.3928,1.3692,1.3597,1.3597,1.3597,1.3597,1.3597,1.3597,1.3597,1.3597,1.3597,1.3597,1.3597,1.3597,1.3597,1.3597,1.3597,1.3597,1.3597,1.3597,1.3396,1.3112,1.3112,1.2749,1.231,1.231,1.2172,1.2008,1.2008,1.2147,1.227,1.2058,1.2172,1.2064,1.1065,1.082,1.0769,1.0547,1.0496,1.0496,1.0496,1.0496,1.0496,1.0496,1.0275,1.0002,0.984,0.9465,0.9054,0.8653,0.8342,0.8109,0.7928,0.8055,0.8189,0.8189,0.8189,0.8189,0.8189,0.8008,0.7901,0.7901,0.7901,0.7901,0.7901,0.7901,0.7901,0.7901,0.7901,0.7901,0.7901,0.7574,0.7413,1.7148,1.8025,0.0,1.9699,1.9902,0.0,2.0952,0.0,0.0,0.0,0.0,0.0,0.0,0.0,0.0,0.0,0.0,0.0,0.0,0.0,0.0,0.0,0.0,0.0,0.0,0.0,0.0,0.0,0.0,0.0,0.0,0.0,0.0,0.0,0.0,0.0,1.5153,1.4697,1.4443,0.0,1.3905,1.3644,1.3597,1.3597,1.3597,1.3597,1.3597,1.3597,1.3597,1.3597,1.3597,1.3597,1.3597,1.3597,1.3597,1.3597,1.3597,1.3597,1.3597,1.3597,1.3597,1.3597,1.3266,1.2861,1.2861,1.253,1.2157,1.2157,1.2506,1.2764,1.227,1.2506,1.2628,1.166,1.1368,1.1175,1.0667,1.0522,1.0496,1.0496,1.0496,1.0496,1.0496,1.0496,1.036,0.9925,0.9517,0.9133,0.8758,0.8679,0.8501,0.8055,0.8395,0.8653,0.8653,0.8653,0.8653,0.8653,0.8209,0.7955,0.7955,0.7928,0.7901,0.7901,0.7901,0.7901,0.7901,0.7901,0.7901,0.7901,0.7901,0.7901,1.6191,1.6824,0.0,0.0,1.9309,1.9742,1.9907,2.0056,0.0,0.0,0.0,0.0,0.0,0.0,0.0,0.0,0.0,0.0,0.0,0.0,0.0,0.0,0.0,0.0,0.0,0.0,0.0,0.0,0.0,0.0,0.0,0.0,0.0,0.0,0.0,1.5645,1.5645,1.5187,1.4766,0.0,1.428,1.3999,1.3597,1.3597,1.3597,1.3597,1.3597,1.3597,1.3597,1.3597,1.3597,1.3597,1.3597,1.3597,1.3597,1.3597,1.3597,1.3597,1.3597,1.3597,1.3597,1.3597,1.3515,1.342,1.342,1.3348,1.3252,1.3252,1.3348,1.3396,1.33,1.3348,1.3266,1.2628,1.1875,1.1276,1.115,1.0794,1.0496,1.0496,1.0496,1.0496,1.0496,1.0496,1.047,1.036,0.9958,0.9633,0.9555,0.9256,0.9028,0.8923,0.9001,0.908,0.908,0.908,0.908,0.908,0.8679,0.8441,0.8441,0.8082,0.7901,0.7901,0.7901,0.7901,0.7901,0.7901,0.7901,0.7901,0.7901,0.7901,1.6105,0.0,0.0,1.8353,0.0,1.9264,1.9264,1.9126,0.0,0.0,0.0,0.0,0.0,0.0,0.0,0.0,0.0,0.0,0.0,0.0,0.0,0.0,0.0,0.0,0.0,0.0,0.0,0.0,0.0,0.0,0.0,0.0,0.0,0.0,1.6272,1.6129,1.6129,1.5668,1.5311,1.5062,1.4617,1.4116,1.3597,1.3597,1.3597,1.3597,1.3597,1.3597,1.3597,1.3597,1.3597,1.3597,1.3597,1.3597,1.3597,1.3597,1.3597,1.3597,1.3597,1.3597,1.3597,1.3597,1.3597,1.3597,1.3597,1.3597,1.361,1.3692,1.3644,1.3621,1.3763,1.3739,1.3621,1.3348,1.2628,1.195,1.1685,1.1242,1.0871,1.0871,1.0667,1.0496,1.0496,1.0496,1.0496,1.0496,1.0275,1.0061,0.984,0.9614,0.9413,0.9211,0.9361,0.9491,0.9491,0.9491,0.9491,0.9491,0.9099,0.889,0.889,0.8659,0.8321,0.7901,0.7901,0.7901,0.7901,0.7901,0.7901,0.7901,0.7901,0.7901,1.6141,0.0,1.7639,1.8461,1.8698,0.0,1.8767,0.0,0.0,0.0,0.0,0.0,0.0,0.0,0.0,0.0,0.0,0.0,0.0,0.0,0.0,0.0,0.0,0.0,0.0,0.0,0.0,0.0,0.0,0.0,0.0,0.0,1.6812,1.6586,1.6543,1.6522,1.6522,1.6129,1.5876,1.5788,1.4846,1.4163,1.3739,1.3634,1.3597,1.3597,1.3597,1.3597,1.3597,1.3597,1.3597,1.3597,1.3597,1.3597,1.3597,1.3597,1.3597,1.3597,1.3597,1.3597,1.3597,1.3597,1.3597,1.3597,1.3621,1.3634,1.3668,1.3797,1.3739,1.3716,1.3949,1.3915,1.3844,1.3844,1.3386,1.2822,1.227,1.176,1.1393,1.1326,1.0871,1.0496,1.0496,1.0496,1.0496,1.0496,1.0496,1.036,0.9976,0.9925,0.9795,0.9472,0.9718,0.9925,0.9925,0.9925,0.9925,0.9925,0.9543,0.9316,0.9316,0.9237,0.887,0.8135,0.8062,0.7981,0.7901,0.7901,0.7901,0.7901,0.7901,0.7901,1.5378,0.0,1.7503,0.0,1.8535,1.8205,0.0,0.0,0.0,0.0,0.0,0.0,0.0,0.0,0.0,0.0,0.0,0.0,0.0,0.0,0.0,0.0,0.0,0.0,0.0,0.0,0.0,0.0,0.0,0.0,0.0,1.6981,1.6939,1.6854,1.6727,1.6675,1.6675,1.65,1.6194,1.5788,1.4846,1.435,1.428,1.381,1.3597,1.3597,1.3597,1.3597,1.3597,1.3597,1.3597,1.3597,1.3597,1.3597,1.3597,1.3597,1.3597,1.3597,1.3597,1.3597,1.3597,1.3597,1.3597,1.3621,1.3739,1.3763,1.3797,1.3949,1.3973,1.3939,1.3997,1.3997,1.3962,1.3962,1.3821,1.3491,1.2837,1.2286,1.1785,1.1368,1.0871,1.0496,1.0496,1.0496,1.0496,1.0496,1.0496,1.047,1.0411,1.0411,1.0385,1.0334,1.036,1.0411,1.0411,1.0411,1.0411,1.0411,0.9984,0.971,0.971,0.9387,0.9133,0.9028,0.8679,0.8315,0.7901,0.7901,0.7901,0.7901,0.7901,0.7901,1.5094,1.5944,1.6788,0.0,1.7709,1.7591,1.7591,0.0,0.0,0.0,0.0,0.0,0.0,0.0,0.0,0.0,0.0,0.0,0.0,0.0,0.0,0.0,0.0,0.0,0.0,0.0,0.0,0.0,0.0,0.0,1.7002,1.7002,1.696,1.6897,1.6846,1.6782,1.6697,1.6654,1.6349,1.581,1.5366,1.4903,1.4396,1.4163,1.3871,1.3597,1.3597,1.3597,1.3597,1.3597,1.3597,1.3597,1.3597,1.3597,1.3597,1.3597,1.3597,1.3597,1.3597,1.3597,1.3597,1.3597,1.3644,1.3716,1.3773,1.3844,1.3939,1.4069,1.4057,1.4033,1.4197,1.4174,1.4116,1.4116,1.4069,1.3918,1.3539,1.2929,1.2286,1.1785,1.1293,1.1023,1.1293,1.0863,1.0693,1.1267,1.0871,1.0624,1.0896,1.0701,1.0496,1.0496,1.0496,1.0496,1.0496,1.0496,1.0496,1.0496,1.0308,1.0198,1.0198,1.0017,0.981,0.9536,0.8909,0.8494,0.8289,0.8035,0.7901,0.7901,0.7901,0.7901,0.0,0.0,1.6092,1.685,1.7136,1.7199,0.0,0.0,0.0,0.0,0.0,0.0,0.0,0.0,0.0,0.0,0.0,0.0,0.0,0.0,0.0,0.0,0.0,0.0,0.0,0.0,0.0,0.0,0.0,0.0,1.7065,1.7065,1.7044,1.6981,1.6939,1.6876,1.6782,1.6718,1.647,1.5976,1.5854,1.5366,1.4581,1.4581,1.4303,1.381,1.3658,1.3597,1.3597,1.3597,1.3597,1.3597,1.3597,1.3597,1.3597,1.3597,1.3597,1.3597,1.3597,1.3597,1.3597,1.3597,1.3692,1.3821,1.3844,1.3939,1.408,1.421,1.4174,1.415,1.4361,1.4326,1.4246,1.4246,1.4222,1.4163,1.4033,1.342,1.2774,1.2344,1.185,1.1635,1.1959,1.1385,1.1141,1.1884,1.136,1.104,1.1418,1.1015,1.0693,1.0693,1.0573,1.0496,1.0496,1.0496,1.0496,1.0496,1.0496,1.0496,1.0496,1.0496,1.0334,0.9976,0.9276,0.8863,0.8758,0.8395,0.8189,0.8082,0.8082,0.8002,0.0,1.5411,0.0,1.6892,1.7199,0.0,0.0,0.0,0.0,0.0,0.0,0.0,0.0,0.0,0.0,0.0,0.0,0.0,0.0,0.0,0.0,0.0,0.0,0.0,0.0,0.0,0.0,0.0,0.0,0.0,1.7199,1.7199,1.7199,1.7178,1.7065,1.6981,1.6981,1.6803,1.662,1.6457,1.602,1.5534,1.5062,1.5062,1.4811,1.4326,1.3823,1.3597,1.3597,1.3597,1.3597,1.3597,1.3597,1.3597,1.3597,1.3597,1.3597,1.3597,1.3597,1.3597,1.3597,1.3597,1.3692,1.3821,1.3939,1.4069,1.4233,1.435,1.4373,1.4373,1.4396,1.4396,1.4384,1.4384,1.4292,1.4163,1.4033,1.3573,1.3136,1.2967,1.2521,1.2129,1.2024,1.1959,1.1934,1.1974,1.1959,1.1934,1.1959,1.1535,1.1251,1.1251,1.0794,1.0496,1.0496,1.0496,1.0496,1.0496,1.0496,1.0496,1.0496,1.0496,1.0496,1.0462,0.9976,0.9562,0.9159,0.9133,0.8949,0.8573,0.8573,0.8315,0.0,0.0,0.0,1.642,1.6913,0.0,0.0,0.0,0.0,0.0,0.0,0.0,0.0,0.0,0.0,0.0,0.0,0.0,0.0,0.0,0.0,0.0,0.0,0.0,0.0,0.0,0.0,0.0,0.0,0.0,1.722,1.7199,1.7199,1.7199,1.7157,1.7094,1.7002,1.6876,1.6791,1.6748,1.65,1.6132,1.568,1.5591,1.5288,1.4834,1.4651,1.4385,1.4093,1.3729,1.3597,1.3597,1.3597,1.3597,1.3597,1.3597,1.3597,1.3597,1.3597,1.3597,1.361,1.3692,1.3821,1.3939,1.4104,1.421,1.435,1.4384,1.4396,1.4396,1.4396,1.4396,1.4396,1.4396,1.435,1.4326,1.4267,1.3975,1.3692,1.3644,1.3218,1.2943,1.3228,1.2628,1.235,1.306,1.2491,1.2123,1.2457,1.2073,1.176,1.176,1.1318,1.1023,1.1023,1.0693,1.0496,1.0496,1.0496,1.0496,1.0496,1.0496,1.0496,1.0496,1.0334,1.0035,0.9588,0.9335,0.9133,0.8995,0.8995,0.8765,1.4352,0.0,0.0,0.0,0.0,0.0,0.0,0.0,0.0,0.0,0.0,0.0,0.0,0.0,0.0,0.0,0.0,0.0,0.0,0.0,0.0,0.0,0.0,0.0,0.0,0.0,0.0,0.0,0.0,0.0,1.6958,1.6924,1.6833,1.6637,1.6624,1.6654,1.6739,1.6698,1.6635,1.6606,1.6481,1.6073,1.5453,1.5666,1.5536,1.5144,1.5275,1.4983,1.4373,1.4022,1.3763,1.3597,1.3597,1.3597,1.3621,1.38,1.3752,1.3634,1.381,1.3763,1.3621,1.3763,1.3892,1.4057,1.4339,1.4408,1.4419,1.4581,1.4512,1.4396,1.4396,1.4396,1.4396,1.4396,1.4396,1.4396,1.4396,1.4267,1.4127,1.408,1.3776,1.3634,1.3939,1.3338,1.304,1.3763,1.318,1.2783,1.3098,1.2662,1.232,1.227,1.1834,1.1469,1.1318,1.0972,1.0693,1.0522,1.0496,1.0496,1.0496,1.0496,1.0496,1.0496,1.0496,1.036,1.0028,0.9758,0.955,0.9413,0.9413,0.9126,0.0,0.0,0.0,0.0,0.0,0.0,0.0,0.0,0.0,0.0,0.0,0.0,0.0,0.0,0.0,0.0,0.0,0.0,0.0,0.0,0.0,0.0,0.0,0.0,0.0,0.0,0.0,0.0,0.0,1.739,1.6474,1.6395,1.612,1.5513,1.5487,1.5723,1.6164,1.6177,1.6104,1.5977,1.5896,1.5332,1.4364,1.5264,1.5504,1.5219,1.561,1.5276,1.4432,1.4419,1.4093,1.3621,1.3621,1.3621,1.3681,1.421,1.4093,1.3692,1.421,1.4046,1.3621,1.3763,1.3892,1.4127,1.4731,1.4686,1.4512,1.4971,1.4766,1.4396,1.4396,1.4396,1.4396,1.4396,1.4396,1.4396,1.4396,1.4396,1.435,1.4222,1.4199,1.4163,1.4033,1.402,1.402,1.402,1.3997,1.3939,1.3821,1.3338,1.2991,1.2837,1.2359,1.1859,1.1393,1.1352,1.1099,1.0573,1.0522,1.0522,1.0496,1.0496,1.0496,1.0496,1.0496,1.0496,1.0496,1.0496,1.0275,0.9814,0.9814,0.9373,1.3789,0.0,0.0,0.0,0.0,0.0,0.0,0.0,0.0,0.0,0.0,0.0,0.0,0.0,0.0,0.0,0.0,0.0,0.0,0.0,0.0,0.0,0.0,0.0,0.0,0.0,0.0,0.0,1.792,1.741,1.6858,1.613,1.567,1.55,1.5487,1.5565,1.5684,1.5684,1.5678,1.5639,1.5479,1.5235,1.4954,1.5067,1.5103,1.5064,1.5162,1.5163,1.5024,1.4586,1.4303,1.4186,1.4186,1.4186,1.4233,1.4743,1.4605,1.4186,1.435,1.4046,1.3644,1.3868,1.421,1.4582,1.4937,1.4994,1.4926,1.5062,1.4766,1.4396,1.4396,1.4396,1.4396,1.4396,1.4396,1.4396,1.4396,1.4396,1.4384,1.435,1.435,1.4326,1.4291,1.421,1.414,1.414,1.4057,1.3997,1.3949,1.3821,1.3716,1.3668,1.3194,1.2774,1.2555,1.2178,1.1692,1.1124,1.1074,1.0896,1.0522,1.0496,1.0496,1.0496,1.0496,1.0496,1.0496,1.0496,1.0437,1.0308,0.995,0.9684,1.3491,0.0,0.0,0.0,0.0,0.0,0.0,1.6527,0.0,0.0,0.0,0.0,0.0,0.0,0.0,0.0,0.0,0.0,0.0,0.0,0.0,0.0,0.0,0.0,0.0,0.0,0.0,0.0,1.8217,1.7341,1.625,1.5318,1.4781,1.4781,1.4781,1.4886,1.5108,1.5108,1.5108,1.5108,1.4981,1.4778,1.4529,1.4599,1.4695,1.4795,1.5006,1.5309,1.5624,1.502,1.4789,1.4777,1.4777,1.4731,1.4743,1.5232,1.496,1.4419,1.4628,1.4199,1.3692,1.4129,1.449,1.4823,1.5467,1.5546,1.5434,1.5635,1.521,1.4697,1.4697,1.4535,1.4396,1.4396,1.4396,1.4396,1.4396,1.4396,1.4396,1.4396,1.4396,1.4396,1.4396,1.435,1.428,1.428,1.421,1.415,1.4104,1.408,1.4057,1.402,1.3716,1.3409,1.3112,1.274,1.2301,1.1701,1.1676,1.141,1.0871,1.0871,1.0769,1.0496,1.0496,1.0496,1.0496,1.0496,1.0496,1.0496,1.0223,0.9976,1.3338,1.3752,0.0,0.0,0.0,0.0,1.5879,1.6148,0.0,0.0,0.0,0.0,0.0,0.0,0.0,0.0,0.0,0.0,0.0,0.0,0.0,0.0,0.0,0.0,0.0,0.0,1.9797,1.9479,1.8578,1.7195,1.5281,1.4346,1.3871,1.3871,1.3821,1.404,1.4511,1.4507,1.4507,1.4507,1.4444,1.4115,1.3611,1.4023,1.4272,1.4412,1.4837,1.5402,1.5989,1.5507,1.5356,1.5389,1.5389,1.5311,1.5277,1.5756,1.5355,1.464,1.5074,1.4582,1.3907,1.4583,1.4835,1.5085,1.6173,1.6207,1.5942,1.6315,1.5812,1.5176,1.5108,1.4789,1.4466,1.4396,1.4396,1.4396,1.4396,1.443,1.4419,1.4419,1.443,1.4396,1.4396,1.4396,1.4396,1.4396,1.4396,1.435,1.4246,1.4222,1.4186,1.4057,1.4044,1.3844,1.3362,1.3208,1.2909,1.234,1.2307,1.203,1.1418,1.141,1.1133,1.0598,1.0598,1.0598,1.0598,1.0522,1.0496,1.0496,1.0496,1.0275,1.3228,1.3386,1.3576,1.3589,0.0,0.0,0.0,1.4485,0.0,0.0,0.0,0.0,0.0,0.0,0.0,0.0,0.0,0.0,0.0,0.0,0.0,0.0,0.0,0.0,0.0,0.0,1.969,1.9866,1.8429,1.6992,1.5733,1.4727,1.4203,1.4203,1.3941,1.3857,1.3961,1.3961,1.3961,1.3945,1.383,1.3714,1.3598,1.3646,1.3698,1.3779,1.3878,1.4292,1.4941,1.5297,1.5653,1.594,1.594,1.5918,1.5974,1.6488,1.6303,1.5786,1.5874,1.5521,1.5085,1.5343,1.5676,1.6051,1.6402,1.6436,1.6293,1.602,1.5788,1.5579,1.5198,1.504,1.4857,1.4489,1.4396,1.4396,1.4396,1.4523,1.4639,1.4639,1.4523,1.4396,1.4396,1.4396,1.4396,1.4396,1.4396,1.4396,1.435,1.435,1.435,1.4314,1.4314,1.4233,1.4035,1.3978,1.3695,1.3064,1.2991,1.2716,1.2046,1.1617,1.1309,1.115,1.115,1.115,1.115,1.0718,1.0496,1.0496,1.0496,1.0437,1.3128,1.32,1.3272,1.3372,0.0,0.0,0.0,0.0,1.4493,0.0,0.0,0.0,0.0,0.0,0.0,0.0,0.0,0.0,0.0,0.0,0.0,0.0,0.0,0.0,0.0,0.0,1.9181,1.9152,1.8377,1.7347,1.6123,1.5247,1.4648,1.43,1.3957,1.3804,1.3804,1.3804,1.3804,1.3804,1.3741,1.3695,1.3695,1.3661,1.3674,1.3695,1.3695,1.4041,1.4655,1.5238,1.5802,1.6266,1.6469,1.6539,1.6539,1.6799,1.6561,1.6114,1.6114,1.5786,1.5456,1.582,1.6105,1.6355,1.6744,1.6863,1.6799,1.6561,1.6324,1.6042,1.5557,1.5367,1.5176,1.4674,1.4651,1.4743,1.4743,1.4834,1.4903,1.4903,1.4811,1.472,1.4558,1.4477,1.4396,1.4396,1.4396,1.4396,1.4396,1.4396,1.4396,1.4396,1.4396,1.4373,1.4303,1.4246,1.4059,1.3718,1.3695,1.3399,1.274,1.2496,1.2187,1.1767,1.1742,1.1726,1.1635,1.1451,1.125,1.1099,1.082,1.0693,0.0,0.0,0.0,0.0,0.0,1.3508,0.0,0.0,0.0,1.4842,0.0,0.0,0.0,0.0,0.0,0.0,0.0,0.0,0.0,0.0,0.0,0.0,0.0,0.0,0.0,0.0,1.891,1.8537,1.8519,1.7977,1.668,1.5844,1.5098,1.4426,1.4007,1.3804,1.3804,1.3804,1.3804,1.3804,1.3804,1.3804,1.3804,1.3804,1.3804,1.3804,1.3804,1.4053,1.4493,1.5199,1.5787,1.6284,1.6827,1.7002,1.696,1.696,1.6667,1.6309,1.6309,1.6061,1.5832,1.6312,1.6475,1.6548,1.7039,1.7199,1.7199,1.7199,1.6926,1.6531,1.6064,1.5822,1.5591,1.5085,1.5085,1.5198,1.5198,1.5198,1.5176,1.5176,1.5176,1.5085,1.4811,1.4628,1.4512,1.4477,1.4466,1.4443,1.4396,1.4396,1.4396,1.4396,1.4396,1.4396,1.4396,1.4303,1.4246,1.4246,1.4246,1.3978,1.3433,1.3362,1.3016,1.2258,1.234,1.235,1.2221,1.2399,1.2227,1.1785,1.1242,1.1015,0.0,0.0,0.0,0.0,1.3176,0.0,0.0,0.0,1.3122,1.3246,0.0,0.0,0.0,0.0,0.0,0.0,0.0,0.0,0.0,0.0,0.0,0.0,0.0,0.0,0.0,0.0,0.0,1.9284,1.912,1.8654,1.7767,1.6518,1.5493,1.4775,1.4138,1.3804,1.3804,1.3804,1.3804,1.3804,1.3804,1.3804,1.3804,1.3804,1.3804,1.3804,1.3804,1.3831,1.3958,1.5061,1.5526,1.5696,1.676,1.7178,1.7178,1.7178,1.7136,1.7081,1.7081,1.7039,1.6997,1.7073,1.7094,1.7115,1.7178,1.7199,1.7199,1.7199,1.7157,1.701,1.6531,1.6488,1.6445,1.5966,1.5702,1.5546,1.5546,1.5501,1.5446,1.5446,1.5446,1.5379,1.5108,1.504,1.4949,1.4708,1.4685,1.4593,1.4419,1.4396,1.4396,1.4396,1.4396,1.4396,1.4396,1.4384,1.4373,1.4373,1.4373,1.4303,1.4095,1.3529,1.2967,1.2389,1.2837,1.3088,1.3064,1.3314,1.2991,1.212,1.1592,1.1485,0.0,0.0,0.0,0.0,0.0,0.0,0.0,0.0,1.3026,0.0,0.0,0.0,0.0,0.0,0.0,0.0,0.0,0.0,0.0,0.0,0.0,0.0,0.0,0.0,0.0,0.0,0.0,0.0,0.0,1.9294,1.851,1.7213,1.6132,1.5405,1.4345,1.3804,1.3804,1.3804,1.3804,1.3804,1.3804,1.3804,1.3804,1.3804,1.3804,1.3804,1.3804,1.3804,1.387,1.4655,1.5173,1.5578,1.6402,1.6924,1.7199,1.7199,1.7199,1.7199,1.7199,1.7199,1.7199,1.7199,1.7199,1.7199,1.7199,1.7199,1.7199,1.7199,1.7199,1.7094,1.6629,1.6671,1.6714,1.6281,1.6216,1.6194,1.6042,1.5976,1.5923,1.5714,1.5834,1.5932,1.5822,1.5412,1.5131,1.521,1.4926,1.4685,1.4593,1.4466,1.4396,1.4396,1.4396,1.4396,1.4396,1.4396,1.4396,1.4396,1.4396,1.4373,1.4326,1.4059,1.3742,1.3437,1.3671,1.3752,1.3668,1.3847,1.3742,1.3341,1.257,1.2286,1.16,0.0,0.0,0.0,0.0,0.0,0.0,0.0,0.0,0.0,0.0,0.0,0.0,0.0,0.0,0.0,0.0,0.0,0.0,0.0,0.0,0.0,0.0,0.0,0.0,0.0,0.0,0.0,0.0,0.0,1.8816,1.7751,1.6684,1.5638,1.4564,1.3961,1.3804,1.3804,1.3804,1.3804,1.3804,1.3804,1.3804,1.3804,1.3804,1.3804,1.3804,1.3804,1.3844,1.4393,1.4951,1.5552,1.6153,1.6728,1.7199,1.7199,1.7199,1.7199,1.7199,1.7199,1.7199,1.7199,1.7199,1.7199,1.7199,1.7199,1.7199,1.7199,1.7199,1.7115,1.6778,1.6863,1.696,1.6689,1.6731,1.6795,1.6646,1.6539,1.6389,1.6166,1.6293,1.6497,1.6603,1.6042,1.5657,1.5822,1.5412,1.504,1.4971,1.4674,1.4477,1.4477,1.4419,1.4396,1.4396,1.4396,1.4396,1.4396,1.4396,1.4396,1.4396,1.4396,1.435,1.4246,1.4246,1.421,1.4114,1.421,1.4246,1.4222,1.3375,1.2991,0.0,0.0,0.0,1.1326,0.0,0.0,0.0,0.0,1.1491,0.0,0.0,0.0,0.0,0.0,0.0,0.0,0.0,0.0,0.0,0.0,0.0,0.0,0.0,0.0,0.0,0.0,0.0,0.0,0.0,0.0,1.8475,1.8067,1.7022,1.5186,1.4765,1.4341,1.3817,1.3804,1.3804,1.3804,1.3804,1.3804,1.3804,1.3804,1.3804,1.3804,1.3804,1.3804,1.3844,1.4393,1.4951,1.5552,1.6153,1.6728,1.7199,1.7199,1.7199,1.7199,1.7199,1.7199,1.7199,1.7199,1.7199,1.7199,1.7199,1.7199,1.7199,1.7199,1.7199,1.7199,1.7178,1.7287,1.7391,1.7447,1.7323,1.722,1.7344,1.7115,1.6876,1.6854,1.6876,1.6981,1.731,1.7073,1.6757,1.6514,1.6194,1.5856,1.5591,1.5062,1.4685,1.4685,1.4512,1.4396,1.4396,1.4396,1.4396,1.4396,1.4396,1.4396,1.4396,1.4396,1.4396,1.4396,1.4396,1.4384,1.4384,1.4384,1.4396,1.4373,1.3705,1.3515,0.0,0.0,1.185,1.1233,0.0,0.0,0.0,0.0,0.0,0.0,0.0,0.0,0.0,0.0,0.0,0.0,0.0,0.0,0.0,0.0,0.0,0.0,0.0,0.0,0.0,0.0,0.0,0.0,0.0,0.0,0.0,1.8332,1.7577,1.7166,1.5482,1.4664,1.4799,1.4122,1.3804,1.3804,1.3804,1.3804,1.3804,1.3804,1.3804,1.3804,1.3804,1.3804,1.3817,1.4001,1.4406,1.4951,1.5565,1.6153,1.6702,1.7068,1.7199,1.7199,1.7199,1.7199,1.7199,1.7199,1.7199,1.7199,1.7199,1.7199,1.7199,1.7199,1.7199,1.7199,1.7199,1.7308,1.7425,1.7475,1.7509,1.7502,1.7427,1.7323,1.7178,1.6939,1.7073,1.724,1.7261,1.744,1.7461,1.7131,1.6655,1.629,1.6207,1.5854,1.5611,1.5568,1.5501,1.5423,1.5321,1.5321,1.5198,1.488,1.4857,1.472,1.4396,1.4396,1.4396,1.4396,1.4396,1.4396,1.4396,1.4396,1.4396,1.4396,1.4163,1.4116,1.1841,1.194,0.0,1.1233,1.1392,0.0,0.9891,0.0,0.0,0.0,0.0,0.0,0.0,0.0,0.0,0.0,0.0,0.0,0.0,0.0,0.0,0.0,0.0,0.0,0.0,0.0,1.8193,1.8568,0.0,0.0,0.0,0.0,1.8008,1.7989,1.6336,1.5394,1.5302,1.4651,1.4152,1.3804,1.3804,1.3804,1.3804,1.3804,1.3804,1.3804,1.3804,1.3804,1.3804,1.3804,1.4132,1.465,1.5251,1.5866,1.6454,1.7003,1.7199,1.7199,1.7199,1.7199,1.7199,1.7199,1.7199,1.7199,1.7199,1.7199,1.7199,1.7199,1.7199,1.7199,1.7199,1.7308,1.7425,1.7475,1.7604,1.7679,1.7604,1.757,1.7509,1.7295,1.744,1.755,1.7447,1.7666,1.776,1.7529,1.711,1.6803,1.6765,1.6398,1.616,1.6088,1.5988,1.5888,1.581,1.581,1.5601,1.5131,1.5108,1.488,1.443,1.4396,1.4396,1.4396,1.4396,1.4396,1.4396,1.4396,1.4396,1.4396,1.4396,1.4396]}]]